[[{"header":{"parameterUnit":"m.s-1","parameterCategory":1,"la1":30.6,"la2":28.766,"lo1":-90.7593,"lo2":-88.6598,"dy":0.0162,"dx":0.0183,"nx":116,"ny":114,"refTime":"2024-06-27T06:00:00:Z","depth":0,"parameterNumber":2,"parameterNumberName":"U-component_of_WINDS"},"data":[0.0,0.0,0.0,0.0,0.0,0.0,0.0,0.0,0.0,0.0,0.0,0.0,0.0,0.0,0.0,0.0,0.0,0.0,0.0,0.0,0.0,0.0,0.0,0.0,0.0,0.0,0.0,0.0,0.0,0.0,0.0,0.0,0.0,0.0,0.0,0.0,0.0,0.0,0.0,0.0,0.0,0.0,0.0,0.0,0.0,0.0,0.0,0.0,0.0,0.0,0.0,0.0,0.0,0.0,0.0,0.0,0.0,0.0,0.0,0.0,0.0,0.0,0.0,0.0,0.0,0.0,0.0,0.0,0.0,0.0,0.0,0.0,0.0,0.0,0.0,0.0,0.0,0.0,0.0,0.0,0.0,0.0,0.0,0.0,0.0,0.0,0.0,0.0,0.0,0.0,0.0,0.0,0.0,0.0,0.0,0.0,0.0,0.0,0.0,0.0,0.0,0.0,0.0,0.0,0.0,0.0,0.0,0.0,0.0,0.0,0.0,0.0,0.0,0.0,0.0,0.0,0.0,0.0,0.0,0.0,0.0,0.0,0.0,0.0,0.0,0.0,0.0,0.0,0.0,0.0,0.0,0.0,0.0,0.0,0.0,0.0,0.0,0.0,0.0,0.0,0.0,0.0,0.0,0.0,0.0,0.0,0.0,0.0,0.0,0.0,0.0,0.0,0.0,0.0,0.0,0.0,0.0,0.0,0.0,0.0,0.0,0.0,0.0,0.0,0.0,0.0,0.0,0.0,0.0,0.0,0.0,0.0,0.0,0.0,0.0,0.0,0.0,0.0,0.0,0.0,0.0,0.0,0.0,0.0,0.0,0.0,0.0,0.0,0.0,0.0,0.0,0.0,0.0,0.0,0.0,0.0,0.0,0.0,0.0,0.0,0.0,0.0,0.0,0.0,0.0,0.0,0.0,0.0,0.0,0.0,0.0,0.0,0.0,0.0,0.0,0.0,0.0,0.0,0.0,0.0,0.0,0.0,0.0,0.0,0.0,0.0,0.0,0.0,0.0,0.0,0.0,0.0,0.0,0.0,0.0,0.0,0.0,0.0,0.0,0.0,0.0,0.0,0.0,0.0,0.0,0.0,0.0,0.0,0.0,0.0,0.0,0.0,0.0,0.0,0.0,0.0,0.0,0.0,0.0,0.0,0.0,0.0,0.0,0.0,0.0,0.0,0.0,0.0,0.0,0.0,0.0,0.0,0.0,0.0,0.0,0.0,0.0,0.0,0.0,0.0,0.0,0.0,0.0,0.0,0.0,0.0,0.0,0.0,0.0,0.0,0.0,0.0,0.0,0.0,0.0,0.0,0.0,0.0,0.0,0.0,0.0,0.0,0.0,0.0,0.0,0.0,0.0,0.0,0.0,0.0,0.0,0.0,0.0,0.0,0.0,0.0,0.0,0.0,0.0,0.0,0.0,0.0,0.0,0.0,0.0,0.0,0.0,0.0,0.0,0.0,0.0,0.0,0.0,0.0,0.0,0.0,0.0,0.0,0.0,0.0,0.0,0.0,0.0,0.0,0.0,0.0,0.0,0.0,0.0,0.0,0.0,0.0,0.0,0.0,0.0,0.0,0.0,0.0,0.0,0.0,0.0,0.0,0.0,0.0,0.0,0.0,0.0,0.0,0.0,0.0,0.0,0.0,0.0,0.0,0.0,0.0,0.0,0.0,0.0,0.0,0.0,0.0,0.0,0.0,0.0,0.0,0.0,0.0,0.0,0.0,0.0,0.0,0.0,0.0,0.0,0.0,0.0,0.0,0.0,0.0,0.0,0.0,0.0,0.0,0.0,0.0,0.0,0.0,0.0,0.0,0.0,0.0,0.0,0.0,0.0,0.0,0.0,0.0,0.0,0.0,0.0,0.0,0.0,0.0,0.0,0.0,0.0,0.0,0.0,0.0,0.0,0.0,0.0,0.0,0.0,0.0,0.0,0.0,0.0,0.0,0.0,0.0,0.0,0.0,0.0,0.0,0.0,0.0,0.0,0.0,0.0,0.0,0.0,0.0,0.0,0.0,0.0,0.0,0.0,0.0,0.0,0.0,0.0,0.0,0.0,0.0,0.0,0.0,0.0,0.0,0.0,0.0,0.0,0.0,0.0,0.0,0.0,0.0,0.0,0.0,0.0,0.0,0.0,0.0,0.0,0.0,0.0,0.0,0.0,0.0,0.0,0.0,0.0,0.0,0.0,0.0,0.0,0.0,0.0,0.0,0.0,0.0,0.0,0.0,0.0,0.0,0.0,0.0,0.0,0.0,0.0,0.0,0.0,0.0,0.0,0.0,0.0,0.0,0.0,0.0,0.0,0.0,0.0,0.0,0.0,0.0,0.0,0.0,0.0,0.0,0.0,0.0,0.0,0.0,0.0,0.0,0.0,0.0,0.0,0.0,0.0,0.0,0.0,0.0,0.0,0.0,0.0,0.0,0.0,0.0,0.0,0.0,0.0,0.0,0.0,0.0,0.0,0.0,0.0,0.0,0.0,0.0,0.0,0.0,0.0,0.0,0.0,0.0,0.0,0.0,0.0,0.0,0.0,0.0,0.0,0.0,0.0,0.0,0.0,0.0,0.0,0.0,0.0,0.0,0.0,0.0,0.0,0.0,0.0,0.0,0.0,0.0,0.0,0.0,0.0,0.0,0.0,0.0,0.0,0.0,0.0,0.0,0.0,0.0,0.0,0.0,0.0,0.0,0.0,0.0,0.0,0.0,0.0,0.0,0.0,0.0,0.0,0.0,0.0,0.0,0.0,0.0,0.0,0.0,0.0,0.0,0.0,0.0,0.0,0.0,0.0,0.0,0.0,0.0,0.0,0.0,0.0,0.0,0.0,0.0,0.0,0.0,0.0,0.0,0.0,0.0,0.0,0.0,0.0,0.0,0.0,0.0,0.0,0.0,0.0,0.0,0.0,0.0,0.0,0.0,0.0,0.0,0.0,0.0,0.0,0.0,0.0,0.0,0.0,0.0,0.0,0.0,0.0,0.0,0.0,0.0,0.0,0.0,0.0,0.0,0.0,0.0,0.0,0.0,0.0,0.0,0.0,0.0,0.0,0.0,0.0,0.0,0.0,0.0,0.0,0.0,0.0,0.0,0.0,0.0,0.0,0.0,0.0,0.0,0.0,0.0,0.0,0.0,0.0,0.0,0.0,0.0,0.0,0.0,0.0,0.0,0.0,0.0,0.0,0.0,0.0,0.0,0.0,0.0,0.0,0.0,0.0,0.0,0.0,0.0,0.0,0.0,0.0,0.0,0.0,0.0,0.0,0.0,0.0,0.0,0.0,0.0,0.0,0.0,0.0,0.0,0.0,0.0,0.0,0.0,0.0,0.0,0.0,0.0,0.0,0.0,0.0,0.0,0.0,0.0,0.0,0.0,0.0,0.0,0.0,0.0,0.0,0.0,0.0,0.0,0.0,0.0,0.0,0.0,0.0,0.0,0.0,0.0,0.0,0.0,0.0,0.0,0.0,0.0,0.0,0.0,0.0,0.0,0.0,0.0,0.0,0.0,0.0,0.0,0.0,0.0,0.0,0.0,0.0,0.0,0.0,0.0,0.0,0.0,0.0,0.0,0.0,0.0,0.0,0.0,0.0,0.0,0.0,0.0,0.0,0.0,0.0,0.0,0.0,0.0,0.0,0.0,0.0,0.0,0.0,0.0,0.0,0.0,0.0,0.0,0.0,0.0,0.0,0.0,0.0,0.0,0.0,0.0,0.0,0.0,0.0,0.0,0.0,0.0,0.0,0.0,0.0,0.0,0.0,0.0,0.0,0.0,0.0,0.0,0.0,0.0,0.0,0.0,0.0,0.0,0.0,0.0,0.0,0.0,0.0,0.0,0.0,0.0,0.0,0.0,0.0,0.0,0.0,0.0,0.0,0.0,0.0,0.0,0.0,0.0,0.0,0.0,0.0,0.0,0.0,0.0,0.0,0.0,0.0,0.0,0.0,0.0,0.0,0.0,0.0,0.0,0.0,0.0,0.0,0.0,0.0,0.0,0.0,0.0,0.0,0.0,0.0,0.0,0.0,0.0,0.0,0.0,0.0,0.0,0.0,0.0,0.0,0.0,0.0,0.0,0.0,0.0,0.0,0.0,0.0,0.0,0.0,0.0,0.0,0.0,0.0,0.0,0.0,0.0,0.0,0.0,0.0,0.0,0.0,0.0,0.0,0.0,0.0,0.0,0.0,0.0,0.0,0.0,0.0,0.0,0.0,0.0,0.0,0.0,0.0,0.0,0.0,0.0,0.0,0.0,0.0,0.0,0.0,0.0,0.0,0.0,0.0,0.0,0.0,0.0,0.0,0.0,0.0,0.0,0.0,0.0,0.0,0.0,0.0,0.0,0.0,0.0,0.0,0.0,0.0,0.0,0.0,0.0,0.0,0.0,0.0,0.0,0.0,0.0,0.0,0.0,0.0,0.0,0.0,0.0,0.0,0.0,0.0,0.0,0.0,0.0,0.0,0.0,0.0,0.0,0.0,0.0,0.0,0.0,0.0,0.0,0.0,0.0,0.0,0.0,0.0,0.0,0.0,0.0,0.0,0.0,0.0,0.0,0.0,0.0,0.0,0.0,0.0,0.0,0.0,0.0,0.0,0.0,0.0,0.0,0.0,0.0,0.0,0.0,0.0,0.0,0.0,0.0,0.0,0.0,0.0,0.0,0.0,0.0,0.0,0.0,0.0,0.0,0.0,0.0,0.0,0.0,0.0,0.0,0.0,0.0,0.0,0.0,0.0,0.0,0.0,0.0,0.0,0.0,0.0,0.0,0.0,0.0,0.0,0.0,0.0,0.0,0.0,0.0,0.0,0.0,0.0,0.0,0.0,0.0,0.0,0.0,0.0,0.0,0.0,0.0,0.0,0.0,0.0,0.0,0.0,0.0,0.0,0.0,0.0,0.0,0.0,0.0,0.0,0.0,0.0,0.0,0.0,0.0,0.0,0.0,0.0,0.0,0.0,0.0,0.0,0.0,0.0,0.0,0.0,0.0,0.0,0.0,0.0,0.0,0.0,0.0,0.0,0.0,0.0,0.0,0.0,0.0,0.0,0.0,0.0,0.0,0.0,0.0,0.0,0.0,0.0,0.0,0.0,0.0,0.0,0.0,0.0,0.0,0.0,0.0,0.0,0.0,0.0,0.0,0.0,0.0,0.0,0.0,0.0,0.0,0.0,0.0,0.0,0.0,0.0,0.0,0.0,0.0,0.0,0.0,0.0,0.0,0.0,0.0,0.0,0.0,0.0,0.0,0.0,0.0,0.0,0.0,0.0,0.0,0.0,0.0,0.0,0.0,0.0,0.0,0.0,0.0,0.0,0.0,0.0,0.0,0.0,0.0,0.0,0.0,0.0,0.0,0.0,0.0,0.0,0.0,0.0,0.0,0.0,0.0,0.0,0.0,0.0,0.0,0.0,0.0,0.0,0.0,0.0,0.0,0.0,0.0,0.0,0.0,0.0,0.0,0.0,0.0,0.0,0.0,0.0,0.0,0.0,0.0,0.0,0.0,0.0,0.0,0.0,0.0,0.0,0.0,0.0,0.0,0.0,0.0,0.0,0.0,0.0,0.0,0.0,0.0,0.0,0.0,0.0,0.0,0.0,0.0,0.0,0.0,0.0,0.0,0.0,0.0,0.0,0.0,0.0,0.0,0.0,0.0,0.0,0.0,0.0,0.0,0.0,0.0,0.0,0.0,0.0,0.0,0.0,0.0,0.0,0.0,0.0,0.0,0.0,0.0,0.0,0.0,0.0,0.0,0.0,0.0,0.0,0.0,0.0,0.0,0.0,0.0,0.0,0.0,0.0,0.0,0.0,0.0,0.0,0.0,0.0,0.0,0.0,0.0,0.0,0.0,0.0,0.0,0.0,0.0,0.0,0.0,0.0,0.0,0.0,0.0,0.0,0.0,0.0,0.0,0.0,0.0,0.0,0.0,0.0,0.0,0.0,0.0,0.0,0.0,0.0,0.0,0.0,0.0,0.0,0.0,0.0,0.0,0.0,0.0,0.0,0.0,0.0,0.0,0.0,0.0,0.0,0.0,0.0,0.0,0.0,0.0,0.0,0.0,0.0,0.0,0.0,0.0,0.0,0.0,0.0,0.0,0.0,0.0,0.0,0.0,-0.0405,0.0745,0.0,0.0,0.0,0.0,0.0,0.0,0.0,0.0,0.0,0.0,0.0,0.0,0.0,0.0,0.0,0.0,0.0,0.0,0.0,0.0,0.0,0.0,0.0,-0.4813,-0.536,-0.5513,-0.4686,-0.2984,-0.0172,0.0,0.0,0.0,0.0,0.0,-0.1664,-0.0584,0.0439,0.1361,0.2214,0.221,0.1342,0.1343,0.1808,0.2566,0.0,0.0,0.0,0.0,0.0,0.0,0.0,0.0,0.0,0.0,0.0,0.0,0.0,0.0,0.0,0.0,0.0,0.0,0.0,0.0,0.0,0.0,0.0,0.0,0.0,0.0,0.0,0.0,0.0,0.0,0.0,0.0,0.0,0.0,0.0,0.0,0.0,0.0,0.0,0.0,0.0,0.0,0.0,0.0,0.0,0.0,0.0,0.0,0.0,0.0,0.0,0.0,0.0,0.0,0.0,0.0,0.0,0.0,0.0,0.0,0.0,0.0,0.0,0.0,0.0,0.0,0.0,0.0,0.0,0.0,-0.5159,-0.4266,0.0,0.0,0.0,0.0,0.0,0.0,0.0,0.0,0.0,0.0,0.0,0.0,0.0,0.0,0.0,0.0,0.0,0.0,0.0,0.0,0.0,-0.4184,-0.3975,-0.4748,-0.5195,-0.4951,-0.497,-0.3813,-0.099,0.0,0.0,0.0,0.0,-0.123,-0.3155,-0.1502,-0.0401,-0.0,-0.0,-0.0,-0.0,-0.0,0.0,0.0,-0.0,0.0,0.0,0.0,0.0,0.0,0.0,0.0,0.0,0.0,0.0,0.0,0.0,0.0,0.0,0.0,0.0,0.0,0.0,0.0,0.0,0.0,0.0,0.0,0.0,0.0,0.0,0.0,0.0,0.0,0.0,0.0,0.0,0.0,0.0,0.0,0.0,0.0,0.0,0.0,0.0,0.0,0.0,0.0,0.0,0.0,0.0,0.0,0.0,0.0,0.0,0.0,0.0,0.0,0.0,0.0,0.0,0.0,0.0,0.0,0.0,0.0,0.0,0.0,-0.827,-0.8302,-0.8735,-0.9358,-0.9572,-0.9471,-0.984,-0.946,-0.8574,-0.8181,0.0,0.0,0.0,0.0,0.0,0.0,0.0,0.0,0.0,0.0,0.0,0.0,0.0,0.0,0.0,0.0,0.0,0.0,0.0,-0.371,-0.3727,-0.4166,-0.4391,-0.425,-0.4507,-0.4474,-0.402,0.0,0.0,0.0,-0.1567,-0.1701,-0.2015,-0.2682,-0.2038,-0.0,-0.0,-0.0,-0.0,0.0,0.0,0.0,-0.0,-0.0239,0.0,0.0,0.0,0.0,0.0,0.0,0.0,0.0,0.0,0.0,0.0,0.0,0.0,0.0,0.0,0.0,0.0,0.0,0.0,0.0,0.0,0.0,0.0,0.0,0.0,0.0,0.0,0.0,0.0,0.0,0.0,0.0,0.0,0.0,0.0,0.0,0.0,0.0,0.0,0.0,0.0,0.0,-0.4862,-0.5102,0.0,0.0,0.0,0.0,0.0,0.0,0.0,0.0,0.0,0.0,0.0,0.0,0.0,-0.7686,-0.8231,-0.8198,-0.8243,-0.829,-0.8539,-0.8612,-0.8447,-0.8804,-0.8943,-0.8961,-1.0153,0.0,-0.9821,-0.9415,0.0,0.0,0.0,0.0,0.0,0.0,0.0,0.0,0.0,0.0,0.0,0.0,0.0,0.0,0.0,0.0,0.0,0.0,0.0,0.0,0.0,-0.4168,-0.4453,-0.4395,-0.4407,-0.4298,0.0,0.0,0.0,-0.2311,-0.2311,-0.2258,-0.214,-0.3036,-0.2343,-0.0,-0.0,-0.0,0.0,0.0,0.0,0.0,0.0,0.0,0.0,0.0,0.0,0.0,0.0,0.0,0.0,0.0,0.0,0.0,0.0,0.0,0.0,0.0,0.0,0.0,0.0,0.0,0.0,0.0,0.0,0.0,0.0,0.0,0.0,0.0,0.0,0.0,0.0,0.0,0.0,0.0,0.0,0.0,0.0,0.0,0.0,0.0,0.0,0.0,0.0,-0.441,-0.4438,-0.4061,-0.4276,-0.4159,0.0,0.0,0.0,0.0,0.0,0.0,0.0,0.0,0.0,-0.5682,-0.6505,-0.708,-0.7319,-0.7478,-0.7695,-0.7935,-0.8111,-0.8364,-0.8624,-0.9148,-0.9562,-0.9961,-1.0965,-1.1486,-1.1636,-1.097,-1.0775,-1.0877,0.0,0.0,0.0,0.0,-1.1342,-1.176,0.0,0.0,0.0,0.0,0.0,0.0,0.0,0.0,0.0,0.0,0.0,0.0,-0.3501,-0.3995,-0.4201,-0.3912,0.0,0.0,0.0,0.0,0.0,-0.271,-0.271,-0.2633,-0.2482,-0.2871,-0.2073,0.0,0.0,0.0,0.0,0.0,0.0,0.0,0.0,0.0,0.0,0.0,0.0,0.0,0.0,0.0,0.0,0.0,0.0,0.0,0.0,0.0,0.0,0.0,0.0,0.0,0.0,0.0,0.0,0.0,0.0,0.0,0.0,0.0,0.0,0.0,0.0,0.0,0.0,0.0,0.0,0.0,0.0,0.0,0.0,0.0,0.0,0.0,0.0,0.0,0.0,-0.4402,-0.4273,-0.3477,-0.4219,-0.4479,0.0,0.0,0.0,0.0,0.0,0.0,-0.5583,-0.5848,-0.6041,-0.6128,-0.6612,-0.6873,-0.6846,-0.7149,-0.7546,-0.8093,-0.8166,-0.8475,-0.9031,-0.9549,-1.0068,-1.058,-1.1447,-1.213,-1.2617,-1.2117,-1.2024,-1.216,-1.1969,-1.2168,-1.2603,-1.2811,-1.3105,-1.3532,0.0,0.0,0.0,0.0,0.0,0.0,0.0,0.0,0.0,0.0,0.0,-0.3149,0.0,0.0,0.0,0.0,0.0,0.0,0.0,0.0,0.0,-0.2702,-0.2702,-0.2702,-0.2681,-0.2168,0.0,0.0,0.0,0.0,0.0,0.0,0.0,0.0,0.0,0.0,0.0,0.0,0.0,0.0,0.0,0.0,0.0,0.0,0.0,0.0,0.0,0.0,0.0,0.0,0.0,0.0,0.0,0.0,0.0,0.0,0.0,0.0,0.0,0.0,0.0,0.0,0.0,0.0,0.0,0.0,0.0,0.0,0.0,0.0,0.0,0.0,0.0,0.0,0.0,0.0,0.0,0.0,0.0,-0.4222,-0.5547,0.0,0.0,0.0,0.0,-0.4441,-0.4104,-0.4168,-0.4738,-0.5765,-0.6654,-0.7199,-0.8184,-0.8659,-0.8672,-0.8963,-0.9101,-0.9108,-0.9449,-0.9639,-0.9639,-0.9697,-0.9748,-0.9863,-1.1288,-1.1892,-1.2007,-1.2585,-1.2869,-1.3013,-1.3565,-1.383,-1.4014,-1.5122,-1.5552,-1.5615,0.0,0.0,0.0,-0.2407,-0.2308,-0.2264,-0.2446,-0.2544,-0.2559,-0.2431,-0.2755,0.0,0.0,0.0,0.0,0.0,0.0,0.0,0.0,0.0,0.0,-0.2302,-0.2263,-0.2317,-0.2503,-0.2411,0.0,0.0,0.0,0.0,0.0,0.0,0.0,0.0,0.0,0.0,0.0,0.0,0.0,0.0,0.0,0.0,0.0,0.0,0.0,0.0,0.0,0.0,0.0,0.0,0.0,0.0,0.0,0.0,0.0,0.0,0.0,0.0,0.0,0.0,0.0,0.0,0.0,0.0,0.0,0.0,0.0,0.0,0.0,0.0,0.0,0.0,0.0,0.0,0.0,0.0,0.0,0.0,0.0,-0.5254,-0.5677,0.0,-0.5343,-0.5392,-0.5637,-0.6237,-0.6569,-0.6932,-0.73,-0.7741,-0.785,-0.7588,-0.8111,-0.8196,-0.7694,-0.7995,-0.8352,-0.8825,-0.8924,-0.9266,-0.9737,-1.0236,-1.0679,-1.1182,-1.2244,-1.2913,-1.3331,-1.359,-1.3942,-1.439,-1.4588,-1.5185,-1.5995,-1.6033,-1.6592,-1.7293,-0.2063,-0.1999,0.0,-0.2292,-0.2185,-0.2129,-0.2308,-0.241,-0.2408,-0.2224,-0.251,0.0,0.0,0.0,0.0,0.0,0.0,0.0,0.0,0.0,-0.2149,-0.2005,-0.2032,-0.2219,-0.248,0.0,0.0,0.0,0.0,0.0,0.0,0.0,0.0,0.0,0.0,0.0,0.0,0.0,0.0,0.0,0.0,0.0,-0.4301,0.0,0.0,0.0,0.0,0.0,0.0,0.0,0.0,0.0,0.0,0.0,0.0,0.0,0.0,0.0,0.0,0.0,0.0,0.0,0.0,0.0,0.0,0.0,0.0,0.0,0.0,0.0,0.0,0.0,0.0,0.0,0.0,0.0,0.0,-0.654,-0.6593,-0.5897,-0.6359,-0.6618,-0.6281,-0.6316,-0.6672,-0.7393,-0.7676,-0.7902,-0.8226,-0.846,-0.839,-0.8037,-0.8433,-0.8468,-0.8006,-0.8251,-0.8622,-0.9104,-0.9483,-0.9947,-1.0436,-1.1239,-1.1871,-1.2331,-1.3138,-1.3709,-1.4164,-1.445,-1.478,-1.5239,-1.5405,-1.6177,-1.712,-1.6936,-1.7448,-1.8157,-0.1792,-0.1795,-0.1808,-0.1797,-0.1812,-0.1895,-0.2154,-0.2197,-0.2195,-0.2194,0.0,0.0,0.0,0.0,0.0,0.0,0.0,0.0,0.0,0.0,-0.2626,-0.1852,-0.207,-0.2398,-0.273,0.0,0.0,0.0,0.0,0.0,0.0,0.0,0.0,0.0,0.0,0.0,0.0,0.0,0.0,0.0,0.0,0.0,-0.4649,0.0,0.0,0.0,0.0,0.0,0.0,0.0,0.0,0.0,0.0,0.0,0.0,0.0,0.0,0.0,0.0,0.0,0.0,0.0,0.0,0.0,0.0,0.0,0.0,0.0,0.0,0.0,0.0,0.0,0.0,0.0,0.0,0.0,-0.6249,-0.6829,-0.7008,-0.617,-0.7672,-0.8365,-0.7454,-0.759,-0.7735,-0.7735,-0.709,-0.6814,-0.7146,-0.7835,-0.8354,-0.8604,-0.9337,-0.9699,-0.9699,-0.9987,-1.0134,-1.0134,-1.1261,-1.1772,-1.1772,-1.2634,-1.3009,-1.307,-1.3906,-1.4273,-1.4332,-1.5108,-1.5468,-1.5496,-1.6029,-1.6673,-1.7375,-1.7991,-1.8254,-1.8254,-0.1613,-0.1697,-0.1829,-0.1921,-0.2016,-0.2111,-0.2188,-0.2202,-0.2122,0.0,0.0,0.0,0.0,0.0,0.0,0.0,0.0,0.0,0.0,0.0,-0.218,-0.2311,-0.2561,0.0,0.0,0.0,0.0,0.0,0.0,0.0,0.0,0.0,0.0,0.0,0.0,0.0,0.0,0.0,0.0,0.0,0.0,0.0,-0.5252,0.0,0.0,0.0,0.0,0.0,0.0,0.0,0.0,0.0,0.0,0.0,0.0,0.0,0.0,0.0,0.0,0.0,0.0,0.0,0.0,0.0,0.0,0.0,0.0,0.0,0.0,0.0,0.0,0.0,0.0,0.0,-0.7503,-0.7691,-0.7812,-0.799,-0.8091,-0.8012,-0.8019,-0.8094,-0.8365,-0.8189,-0.8282,-0.8728,-0.8802,-0.8896,-0.8971,-0.9151,-0.9305,-0.9382,-0.9761,-1.0,-1.0,-1.0294,-1.0441,-1.0441,-1.0766,-1.0926,-1.0989,-1.2397,-1.3009,-1.307,-1.4451,-1.505,-1.5108,-1.5921,-1.6528,-1.6946,-1.6588,-1.6863,-1.7603,-1.8298,-1.8878,-1.9359,-0.165,-0.172,-0.183,-0.19,-0.1979,-0.2023,-0.2039,-0.204,-0.1978,-0.1813,0.0,0.0,0.0,0.0,0.0,0.0,0.0,0.0,-0.2132,-0.2265,-0.2626,0.0,0.0,0.0,0.0,0.0,0.0,0.0,0.0,0.0,0.0,0.0,0.0,0.0,0.0,0.0,0.0,0.0,0.0,0.0,0.0,0.0,-0.5789,-0.5903,-0.6282,-0.6768,-0.7241,-0.74,-0.744,-0.776,0.0,0.0,0.0,0.0,0.0,0.0,0.0,0.0,0.0,0.0,0.0,0.0,0.0,0.0,0.0,0.0,0.0,0.0,0.0,0.0,0.0,0.0,0.0,0.0,-0.8532,-0.8622,-0.8987,-0.879,-0.8617,-0.8784,-0.8427,-0.8366,-0.8924,-0.8747,-0.8839,-0.9362,-0.9586,-0.974,-0.986,-0.9866,-0.992,-1.0047,-1.0214,-1.0301,-1.0301,-1.0474,-1.0624,-1.0624,-1.1296,-1.1608,-1.1663,-1.3243,-1.4034,-1.4085,-1.4991,-1.5742,-1.6232,-1.6452,-1.7097,-1.7935,0.0,0.0,0.0,0.0,-1.9423,-1.9798,-0.182,-0.1804,-0.1785,-0.1783,-0.1787,-0.1789,-0.1804,-0.1803,-0.1803,-0.1806,0.0,0.0,0.0,0.0,0.0,0.0,0.0,0.0,0.0,0.0,0.0,0.0,0.0,0.0,0.0,0.0,0.0,0.0,0.0,0.0,0.0,0.0,0.0,0.0,0.0,0.0,0.0,0.0,0.0,0.0,0.0,0.0,-0.6459,-0.6743,-0.7224,-0.7808,-0.8312,-0.8255,-0.7972,-0.8186,0.0,0.0,0.0,0.0,0.0,0.0,0.0,0.0,0.0,0.0,0.0,0.0,0.0,0.0,0.0,0.0,0.0,0.0,0.0,0.0,0.0,0.0,0.0,0.0,-0.9556,-0.94,-0.9673,-0.9214,-0.8858,-0.8858,-0.8858,-0.8971,-0.921,-0.9263,-0.9452,-0.9713,-0.9766,-0.9893,-1.0154,-1.0167,0.0,0.0,0.0,-1.0624,-1.0624,-1.0624,-1.0624,-1.0744,-1.2151,-1.2887,-1.307,-1.4616,-1.5361,-1.5361,-1.5478,-1.6295,-1.744,-1.6979,-1.7617,-1.8817,-1.8736,-1.915,-1.9798,-1.9798,-1.9798,-1.9798,-0.1921,-0.1879,-0.1771,-0.166,-0.1724,-0.179,-0.1799,-0.1803,-0.1806,-0.1794,-0.1809,0.0,0.0,0.0,0.0,0.0,0.0,0.0,0.0,0.0,0.0,0.0,0.0,0.0,0.0,0.0,0.0,0.0,0.0,0.0,0.0,0.0,0.0,0.0,0.0,0.0,0.0,0.0,0.0,0.0,0.0,0.0,-0.7867,-0.7728,-0.7851,-0.8114,-0.835,-0.8522,-0.8758,-0.9171,-0.9303,-0.9258,-0.8972,0.0,0.0,0.0,0.0,0.0,0.0,0.0,0.0,0.0,0.0,0.0,0.0,0.0,0.0,0.0,0.0,0.0,0.0,0.0,0.0,-0.9571,-0.92,-0.9029,-0.9268,-0.9207,-0.9103,-0.9103,-0.9103,-0.9272,-0.9566,-0.9806,-0.9973,-1.0027,-1.0254,-1.0477,-1.0474,-1.0474,-1.0501,-1.0624,-1.0624,-1.0624,-1.0624,-1.0624,-1.0926,-1.1586,-1.1896,0.0,-1.3078,-1.4364,-1.5007,-1.5026,-1.5999,-1.7,-1.7909,-1.8403,-1.9529,-2.076,-1.9258,-1.915,-1.9798,-1.9798,-1.9798,-1.9901,-0.2032,-0.1937,-0.1775,-0.1717,-0.1755,-0.1803,-0.1803,-0.1803,-0.1806,-0.1791,-0.1806,0.0,0.0,0.0,0.0,0.0,0.0,0.0,0.0,0.0,0.0,0.0,0.0,0.0,0.0,0.0,0.0,0.0,0.0,0.0,0.0,0.0,0.0,0.0,0.0,0.0,0.0,0.0,0.0,0.0,0.0,0.0,-0.9197,-0.8767,-0.8824,-0.9138,-0.899,-0.9086,-0.9287,-0.9507,-0.9775,-0.992,-0.9713,-0.9225,-0.8733,0.0,0.0,0.0,0.0,0.0,0.0,0.0,0.0,0.0,0.0,0.0,0.0,0.0,0.0,-1.0661,-1.0398,0.0,-1.0364,-1.0393,-0.9895,-0.9811,-1.0446,-1.0275,-0.989,-0.9516,-0.9459,-0.9579,-0.9873,-1.0027,-1.018,-1.0327,-1.0899,-1.1045,-1.0624,-1.0989,-1.1045,-1.0624,-1.0624,-1.08,-1.1226,-1.1226,-1.1593,-1.2389,-1.3059,-1.3574,-1.3969,-1.5247,-1.5817,-1.5826,-1.6914,-1.7936,-1.9065,-2.0203,-2.1022,-2.143,-2.0471,-2.0303,-2.0639,-2.0639,-2.0639,-2.0706,-0.2052,-0.1957,-0.1803,-0.1803,-0.1803,-0.1803,-0.1803,-0.1803,-0.1803,-0.1803,-0.1847,-0.1957,-0.2172,-0.2259,-0.2451,0.0,0.0,0.0,0.0,0.0,0.0,0.0,0.0,0.0,0.0,0.0,0.0,0.0,0.0,0.0,0.0,0.0,0.0,0.0,0.0,0.0,0.0,0.0,0.0,0.0,0.0,0.0,-1.0068,-0.9681,-0.983,-1.022,-0.9784,-0.9687,-0.9748,-0.9827,-1.0123,-1.0397,-1.0343,-0.9984,-0.9618,-0.9773,-0.8909,0.0,0.0,0.0,0.0,0.0,0.0,0.0,0.0,-1.1029,-1.1296,-1.1822,-1.1862,-1.1719,-1.1468,-1.1472,-1.1483,-1.1538,-1.1056,-1.095,-1.1904,-1.1567,-1.0977,-1.0186,-1.0027,-1.0168,-1.0646,-1.0384,-1.0362,-1.0787,-1.1288,-1.1288,-1.0618,-1.1409,-1.1626,-1.096,-1.1199,-1.1602,-1.2273,-1.2273,-1.271,-1.3523,-1.4515,-1.5113,-1.5318,-1.6335,-1.6919,-1.71,-1.8279,-1.932,-2.043,-2.1846,-2.2209,-2.1807,-2.1807,-2.1807,-2.1782,-2.1568,-2.1493,-2.1536,-0.1818,-0.1825,-0.1803,-0.1803,-0.1803,-0.1803,-0.1803,-0.1803,-0.1803,-0.1803,-0.2,-0.2172,-0.2193,-0.2459,-0.2846,-0.3359,0.0,0.0,0.0,0.0,0.0,0.0,0.0,0.0,0.0,0.0,0.0,0.0,0.0,0.0,0.0,0.0,0.0,0.0,0.0,0.0,0.0,0.0,0.0,0.0,0.0,0.0,-0.9883,-1.0288,-1.0588,-1.0767,-1.0351,-1.0178,-1.0221,-1.0687,-1.0848,-1.0797,-1.0473,-1.0329,-1.0186,-0.9705,0.0,-0.8932,-1.0935,-1.188,-1.223,-1.2001,-1.2077,-1.254,0.0,-1.3435,-1.2894,-1.3427,-1.3124,-1.2714,-1.2715,-1.251,-1.2346,-1.2384,-1.2089,-1.2049,-1.2472,-1.2472,-1.2169,-1.163,-1.1285,-1.1533,-1.2546,-1.1363,-1.0892,-1.1586,-1.1108,-1.0681,-1.0624,-1.1688,-1.2292,-1.2228,-1.3282,-1.3901,-1.4023,-1.4023,-1.4413,-1.5186,-1.5369,-1.5789,-1.6544,-1.7045,-1.774,-1.849,-2.0557,-2.1537,-2.1732,-2.2664,-2.3012,-2.289,-2.289,-2.289,-2.2836,-2.1845,-2.1493,-2.1703,-0.1792,-0.1803,-0.1803,-0.1803,-0.1803,-0.1803,-0.1803,-0.1935,-0.204,-0.204,-0.2307,-0.2546,-0.2697,-0.2982,-0.3266,-0.3472,-0.378,0.0,0.0,0.0,0.0,0.0,0.0,0.0,0.0,0.0,0.0,0.0,0.0,0.0,0.0,0.0,0.0,0.0,0.0,0.0,0.0,0.0,0.0,0.0,0.0,0.0,-1.0343,-1.0068,-1.0498,-1.1234,-1.0863,-1.0504,0.0,0.0,-1.0959,-1.084,-1.0513,-1.0366,-1.0388,-1.0689,-1.0626,0.0,-1.301,-1.3555,-1.3475,-1.3372,-1.3574,-1.3867,-1.4277,-1.3652,-1.3148,-1.3678,-1.3324,-1.2774,-1.2344,-1.2379,-1.2413,-1.2197,-1.2282,-1.2662,-1.3438,-1.3144,-1.288,-1.2924,-1.2549,-1.211,-1.1648,-1.0989,-1.0744,-1.1108,-1.1896,-1.2127,-1.1703,-1.3276,-1.3988,-1.3534,-1.4007,-1.4541,-1.4997,-1.4997,-1.5395,-1.6192,-1.6503,-1.6766,-1.7129,-1.7549,-1.8512,-1.9854,-2.0756,-2.1678,-2.2628,-2.2944,-2.3078,-2.3078,-2.3078,-2.3078,-2.3075,-2.2623,-2.2447,-2.2506,-0.1803,-0.1803,-0.1803,-0.1803,-0.1803,-0.1847,-0.1997,-0.2189,-0.2341,-0.2428,-0.2735,-0.2998,-0.3196,-0.3457,-0.3605,-0.3605,-0.4273,-0.4857,0.0,0.0,0.0,0.0,0.0,0.0,0.0,0.0,0.0,0.0,0.0,0.0,0.0,0.0,0.0,0.0,0.0,0.0,0.0,0.0,0.0,0.0,0.0,0.0,-1.0308,-0.9698,-1.0188,-1.1084,-1.0846,-1.0526,0.0,0.0,-1.0909,-1.0829,-1.0575,-1.0476,-1.0628,-1.1615,-1.2385,-1.3089,-1.4101,-1.4572,-1.4689,-1.4361,-1.4648,-1.4881,-1.4359,-1.3726,-1.3324,-1.3705,-1.3324,-1.2725,-1.2187,-1.2573,-1.2857,-1.2578,-1.2823,-1.3362,-1.4405,-1.3846,-1.3511,-1.3883,-1.356,-1.2765,-1.1421,-1.1052,-1.1108,-1.1538,-1.2649,-1.31,-1.2724,-1.4625,-1.5417,-1.4827,-1.5138,-1.5587,-1.6188,-1.6188,-1.6468,-1.709,-1.7402,-1.7559,-1.7568,-1.8388,-1.9431,-2.0655,-2.1101,-2.199,-2.3078,-2.3078,-2.3078,-2.3078,-2.3078,-2.3078,-2.3078,-2.3078,-2.3245,-2.3484,-0.1803,-0.1803,-0.1803,-0.1803,-0.1803,-0.1971,-0.25,-0.2581,-0.2714,-0.3039,-0.3298,-0.3479,-0.3485,-0.3731,-0.389,-0.389,-0.4806,-0.5328,-0.5218,-0.619,0.0,0.0,0.0,0.0,0.0,0.0,0.0,0.0,0.0,0.0,0.0,0.0,0.0,0.0,0.0,0.0,0.0,0.0,0.0,0.0,0.0,0.0,-0.9264,-0.9424,-0.9632,-0.9876,-1.0142,0.0,0.0,0.0,-1.0768,-1.0718,-1.0772,-1.0802,0.0,-1.2151,-1.3957,-1.5254,-1.3661,-1.4808,-1.6166,-1.5054,-1.5195,-1.5431,-1.4812,-1.4215,-1.3758,-1.3815,-1.3324,-1.2881,-1.2881,-1.3503,-1.4068,-1.4024,-1.409,-1.4433,-1.5225,-1.4688,-1.4145,-1.4195,-1.4145,-1.3846,-1.3009,-1.2205,-1.2443,-1.3965,-1.3089,-1.2788,-1.3537,-1.5129,-1.6078,-1.6078,-1.7244,-1.7901,-1.7901,-1.7901,-1.7969,-1.7969,-1.7988,-1.7988,-1.8056,-1.9748,-2.0526,-2.0719,-2.231,-2.3065,-2.3078,-2.3078,-2.3078,-2.3078,-2.3078,-2.3078,-2.3078,-2.3078,-2.3603,-2.435,-0.2019,-0.1913,-0.1803,-0.1803,-0.1803,-0.2124,-0.3042,-0.3048,-0.3096,-0.3564,-0.3702,0.0,0.0,0.0,0.0,0.0,-0.4577,-0.5191,-0.564,-0.5912,0.0,0.0,0.0,0.0,0.0,0.0,0.0,0.0,0.0,0.0,0.0,0.0,0.0,0.0,0.0,0.0,0.0,0.0,0.0,0.0,0.0,0.0,-1.041,-0.9571,-0.9736,-1.0432,0.0,0.0,0.0,0.0,0.0,0.0,-0.9988,0.0,0.0,-1.3386,-1.4501,-1.5188,-1.5762,-1.5917,-1.5878,-1.5428,-1.5159,-1.4835,-1.4236,-1.3647,-1.319,-1.319,-1.3065,-1.2881,-1.2881,-1.334,-1.3809,-1.4038,-1.4388,-1.4802,-1.5313,-1.4688,-1.4114,-1.3977,-1.411,-1.4046,-1.3553,-1.298,-1.2818,-1.3373,-1.4067,-1.4603,-1.4868,-1.642,-1.7359,-1.7359,-1.7794,-1.8008,-1.8008,-1.8008,-1.8008,-1.8008,-1.8596,-1.8844,-1.8921,-2.0074,-2.091,-2.1491,-2.2063,-2.2628,-2.3078,-2.3078,-2.3078,-2.3078,-2.3078,-2.3078,-2.3078,-2.3078,-2.359,-2.4292,-0.2302,-0.2066,-0.1825,-0.1935,-0.2015,0.0,0.0,0.0,0.0,0.0,0.0,0.0,0.0,0.0,0.0,0.0,0.0,-0.5313,-0.5616,0.0,0.0,0.0,0.0,0.0,0.0,0.0,0.0,0.0,0.0,0.0,0.0,0.0,0.0,0.0,0.0,0.0,0.0,0.0,0.0,0.0,0.0,0.0,-1.0401,-0.9501,-0.9619,0.0,0.0,0.0,0.0,0.0,0.0,0.0,0.0,0.0,0.0,-1.3516,-1.4451,-1.5259,-1.6181,-1.6055,-1.5695,-1.5644,-1.5141,-1.4514,-1.3956,-1.3324,-1.2881,-1.2881,-1.3065,-1.3238,-1.3238,-1.3541,-1.3982,-1.438,-1.4382,-1.4639,-1.5293,-1.4688,-1.4287,-1.4597,-1.4753,-1.4874,-1.4831,-1.4502,-1.4276,-1.4135,-1.5088,-1.5863,-1.6141,-1.7341,-1.8008,-1.8008,-1.8008,-1.8008,-1.8008,-1.8008,-1.8134,-1.8462,-1.9044,-1.9431,-1.9814,-2.0655,-2.1365,-2.1939,-2.2187,-2.2628,-2.3078,-2.3078,-2.3078,-2.3078,-2.3078,-2.3078,-2.3138,-2.3424,-2.3649,-2.3884,-0.2611,-0.2241,-0.1913,0.0,0.0,0.0,0.0,0.0,0.0,0.0,0.0,0.0,0.0,0.0,0.0,0.0,0.0,0.0,-0.5263,0.0,0.0,0.0,0.0,0.0,0.0,-0.7378,0.0,0.0,0.0,0.0,0.0,0.0,0.0,0.0,0.0,0.0,0.0,0.0,0.0,0.0,0.0,0.0,-0.9358,-0.9236,0.0,0.0,0.0,0.0,0.0,0.0,0.0,0.0,0.0,0.0,-1.379,-1.277,-1.3982,-1.5529,-1.5013,-1.5318,-1.5732,-1.56,-1.5186,-1.456,-1.3956,-1.3372,-1.292,-1.29,-1.3341,-1.3726,-1.3705,-1.4024,-1.4495,-1.4966,-1.4224,-1.4031,-1.5226,-1.4765,-1.4745,-1.5945,-1.6145,-1.626,-1.6626,-1.6748,-1.6592,-1.6223,-1.615,-1.6523,-1.7383,-1.7783,-1.8008,-1.8008,-1.8008,-1.8008,-1.8008,-1.8008,-1.8462,-1.9299,-1.9365,-1.989,-2.0719,-2.1553,-2.1939,-2.2002,-2.2763,-2.3078,-2.3078,-2.3078,-2.3078,-2.3078,-2.3078,-2.3078,-2.3198,-2.3943,-2.3767,-2.3305,0.0,0.0,0.0,0.0,0.0,0.0,0.0,0.0,0.0,0.0,0.0,0.0,0.0,0.0,0.0,0.0,0.0,0.0,0.0,0.0,0.0,0.0,0.0,0.0,0.0,0.0,0.0,0.0,0.0,0.0,0.0,0.0,0.0,0.0,0.0,0.0,0.0,0.0,0.0,0.0,0.0,0.0,-1.0278,0.0,0.0,0.0,0.0,0.0,0.0,0.0,0.0,0.0,0.0,-1.2975,-1.2954,-1.4411,-1.4951,-1.5187,-1.5899,-1.6181,-1.6193,-1.574,-1.5499,-1.5096,-1.405,-1.3684,-1.3318,-1.2545,-1.2827,-1.2979,-1.2292,-1.2812,-1.347,-1.3841,-1.3961,-1.433,-1.5245,-1.5505,-1.5747,-1.6045,-1.6357,-1.6602,-1.6719,-1.7031,-1.7168,-1.7061,-1.7041,-1.7166,-1.7383,-1.7783,-1.8008,-1.8008,-1.8008,-1.8008,-1.8008,-1.8654,-1.911,-1.9299,-2.059,-2.1365,-2.1628,-2.2445,-2.2823,-2.2823,-2.3017,-2.3078,-2.3078,-2.3078,-2.3078,-2.3078,-2.3078,-2.3078,-2.3138,-2.3305,-2.3245,-2.3305,0.0,0.0,0.0,0.0,0.0,0.0,0.0,0.0,0.0,0.0,0.0,0.0,0.0,0.0,0.0,0.0,0.0,0.0,0.0,0.0,0.0,0.0,0.0,0.0,0.0,0.0,0.0,0.0,0.0,0.0,0.0,0.0,0.0,0.0,0.0,0.0,0.0,0.0,0.0,0.0,0.0,0.0,0.0,0.0,0.0,0.0,0.0,0.0,0.0,0.0,0.0,-1.2862,-1.4063,-1.4118,-1.3934,-1.5004,0.0,-1.5703,-1.6303,-1.6653,-1.6798,-1.6463,-1.617,-1.5666,-1.4519,-1.4013,-1.3611,-1.271,-1.3,-1.3226,-1.2446,-1.2902,-1.3464,-1.3626,-1.3876,-1.4379,-1.5293,-1.5781,-1.6262,-1.6664,-1.6865,-1.709,-1.7275,-1.7519,-1.7656,-1.7656,-1.7656,-1.7656,-1.7656,-1.7881,-1.8008,-1.8008,-1.8008,-1.8202,-1.8596,-1.9431,-2.0074,-2.0462,-2.1428,-2.2063,-2.2445,-2.2884,-2.3078,-2.3078,-2.3078,-2.3078,-2.3078,-2.3078,-2.3078,-2.3078,-2.3078,-2.3078,-2.3125,-2.3484,-2.3662,-2.3826,0.0,0.0,0.0,0.0,0.0,0.0,0.0,0.0,0.0,-0.4785,-0.4726,-0.4606,-0.4366,-0.4567,0.0,0.0,0.0,0.0,0.0,0.0,0.0,0.0,0.0,0.0,0.0,0.0,0.0,0.0,0.0,0.0,0.0,0.0,0.0,0.0,0.0,0.0,0.0,0.0,0.0,0.0,0.0,0.0,0.0,0.0,0.0,0.0,0.0,0.0,0.0,0.0,-1.3661,-1.4287,-1.4915,-1.5324,-1.5504,-1.5127,-1.5666,-1.6405,-1.6517,-1.6974,-1.7388,-1.7388,-1.6916,-1.6099,-1.5045,-1.427,-1.3626,-1.2965,-1.3323,-1.3591,-1.2979,-1.3401,-1.3762,-1.3693,-1.3872,-1.4291,-1.5205,-1.5752,-1.6367,-1.7197,-1.7402,-1.7607,-1.7978,-1.8008,-1.8008,-1.8008,-1.8008,-1.8008,-1.8008,-1.8008,-1.8076,-1.8134,-1.8269,-1.8721,-1.9497,-2.0333,-2.1175,-2.1877,-2.2002,-2.2445,-2.3078,-2.3078,-2.3078,-2.3078,-2.3078,-2.3078,-2.3078,-2.3078,-2.3078,-2.3078,-2.3078,-2.3078,-2.3185,-2.3884,-2.4118,-2.4337,0.0,0.0,0.0,0.0,0.0,0.0,0.0,-0.5108,-0.5088,-0.503,-0.4834,-0.4686,-0.4626,-0.4666,0.0,0.0,0.0,0.0,0.0,0.0,0.0,0.0,0.0,0.0,0.0,0.0,0.0,0.0,0.0,0.0,0.0,0.0,0.0,0.0,0.0,0.0,0.0,0.0,0.0,0.0,0.0,0.0,0.0,0.0,0.0,0.0,0.0,0.0,0.0,0.0,-1.3864,-1.4838,-1.5889,-1.5584,-1.5025,-1.5929,-1.5978,-1.5985,-1.6975,-1.733,-1.7388,-1.7388,-1.6916,-1.6099,-1.5045,-1.3941,0.0,-1.2036,-1.2233,-1.2326,-1.1472,-1.2302,-1.3161,-1.3128,-1.338,-1.3916,-1.4775,-1.5566,-1.626,-1.6777,-1.7471,-1.793,-1.8008,-1.8008,-1.8008,-1.8008,-1.8008,-1.8008,-1.8008,-1.8008,-1.8337,-1.9044,-1.9748,-2.0204,-2.0398,-2.1239,-2.1753,-2.1877,-2.2567,-2.2944,-2.3078,-2.3078,-2.3078,-2.3078,-2.3078,-2.3078,-2.3078,-2.3078,-2.3078,-2.3078,-2.3078,-2.3078,-2.3138,-2.3258,-2.3305,-2.3531,0.0,0.0,0.0,0.0,0.0,0.0,0.0,-0.5108,-0.5108,-0.5108,-0.4991,-0.4853,-0.4706,-0.4952,-0.501,0.0,0.0,0.0,0.0,0.0,0.0,0.0,0.0,0.0,0.0,0.0,0.0,0.0,0.0,0.0,0.0,0.0,0.0,0.0,0.0,0.0,0.0,0.0,0.0,0.0,0.0,0.0,0.0,0.0,0.0,0.0,0.0,0.0,0.0,0.0,-1.3105,-1.4261,-1.5624,-1.5644,-1.5276,-1.5864,-1.6051,-1.6262,-1.718,-1.7388,-1.733,-1.6974,-1.6616,-1.6028,-1.4701,0.0,0.0,-1.2154,-1.1979,-1.1832,-1.1398,-1.1844,-1.2334,-1.2614,-1.2966,-1.3564,-1.4639,-1.5527,-1.6309,-1.6992,-1.7627,-1.8008,-1.8008,-1.8008,-1.8202,-1.8664,-1.8654,-1.8654,-1.8654,-1.911,-1.9562,-1.9944,-2.0846,-2.1302,-2.1302,-2.2125,-2.2506,-2.2506,-2.2944,-2.3078,-2.3078,-2.3078,-2.3078,-2.3078,-2.3078,-2.3078,-2.3078,-2.3078,-2.3078,-2.3078,-2.3078,-2.3078,-2.3078,-2.3078,-2.3365,-2.3826,0.0,0.0,0.0,0.0,0.0,0.0,0.0,-0.5108,-0.5108,-0.5108,-0.5108,-0.503,-0.4814,-0.5166,-0.5253,0.0,0.0,0.0,0.0,0.0,0.0,0.0,0.0,0.0,0.0,0.0,0.0,-0.5108,0.0,0.0,0.0,0.0,0.0,0.0,0.0,0.0,0.0,0.0,0.0,0.0,0.0,0.0,0.0,0.0,0.0,0.0,0.0,0.0,0.0,0.0,-1.2103,-1.3006,-1.4559,-1.5243,-1.5489,-1.574,-1.6151,-1.6604,-1.7065,-1.7182,-1.7032,-1.6372,-1.6127,-1.5637,-1.4299,-1.3334,0.0,-1.2291,-1.1727,-1.1344,-1.1479,-1.148,-1.1658,-1.2378,-1.2727,-1.3361,-1.4671,-1.5613,-1.6434,-1.7139,-1.7886,-1.8269,-1.8269,-1.8462,-1.8854,-1.9562,-1.9562,-1.9562,-1.9562,-2.0204,-2.0719,-2.0846,-2.1678,-2.2137,-2.2137,-2.2763,-2.3078,-2.3078,-2.3078,-2.3078,-2.3078,-2.3078,-2.3078,-2.3078,-2.3078,-2.3078,-2.3078,-2.3078,-2.3078,-2.3078,-2.3078,-2.3078,-2.3078,-2.3078,-2.359,-2.435,0.0,0.0,0.0,0.0,0.0,0.0,0.0,-0.5108,-0.5108,-0.5108,-0.5108,-0.5088,-0.5069,-0.5108,-0.5108,0.0,0.0,0.0,0.0,0.0,0.0,0.0,0.0,0.0,0.0,0.0,0.0,-0.5108,-0.5146,0.0,0.0,0.0,0.0,0.0,0.0,-0.6409,0.0,0.0,0.0,0.0,0.0,0.0,0.0,0.0,0.0,0.0,0.0,0.0,0.0,0.0,0.0,-1.1219,-1.2824,-1.4125,-1.5248,-1.6145,0.0,0.0,-1.6505,-1.6512,-1.6326,-1.5713,-1.5185,-1.462,-1.4134,0.0,-1.1575,-1.1659,-1.0964,-1.0411,-1.0718,-1.0903,-1.144,-1.2811,0.0,-1.3463,-1.4893,-1.5825,-1.6453,-1.6743,-1.8202,-1.9177,-1.9177,-1.989,-2.0398,-2.0462,-2.0462,-2.0462,-2.0462,-2.059,-2.0974,-2.1753,-2.2567,-2.3005,-2.3005,-2.3078,-2.3078,-2.3078,-2.3078,-2.3078,-2.3078,-2.3078,-2.3078,-2.3078,-2.3078,-2.3078,-2.3078,-2.3078,-2.3078,-2.3078,-2.3078,-2.3078,-2.3078,-2.3078,-2.359,-2.4408,0.0,0.0,0.0,0.0,0.0,0.0,0.0,-0.5108,-0.5108,-0.5108,-0.5108,-0.5108,-0.5108,-0.5108,-0.5108,0.0,0.0,0.0,0.0,0.0,0.0,0.0,0.0,0.0,0.0,0.0,0.0,-0.5108,-0.5108,0.0,0.0,0.0,0.0,0.0,0.0,-0.6141,-0.6371,0.0,0.0,0.0,0.0,0.0,0.0,0.0,0.0,0.0,0.0,0.0,0.0,0.0,0.0,0.0,-1.181,-1.2805,0.0,0.0,-1.5472,-1.5526,-1.5855,-1.567,-1.521,-1.4613,-1.4281,-1.3982,-1.3499,-1.238,-1.1425,-1.1573,-1.0746,-1.017,-1.0616,-1.0505,-1.0835,0.0,-1.2363,-1.2773,-1.4493,-1.5286,-1.616,-1.7503,-1.8491,-1.9114,-1.9312,-1.9617,-2.0009,-2.059,-2.1101,-2.1616,-2.2051,-2.1678,-2.1741,-2.258,-2.2944,-2.3078,-2.3078,-2.3078,-2.3078,-2.3078,-2.3078,-2.3078,-2.3078,-2.3078,-2.3078,-2.3078,-2.3078,-2.3078,-2.3078,-2.3078,-2.3078,-2.3078,-2.3078,-2.3424,-2.3826,-2.3826,-2.4337,-2.5007,0.0,0.0,0.0,0.0,0.0,0.0,-0.4991,-0.5049,-0.5108,-0.5108,-0.5108,-0.5108,-0.5108,-0.5108,-0.5108,-0.5108,0.0,0.0,0.0,0.0,0.0,0.0,0.0,0.0,0.0,0.0,0.0,0.0,0.0,-0.5108,0.0,0.0,-0.531,-0.5511,0.0,0.0,0.0,0.0,0.0,0.0,0.0,0.0,0.0,0.0,0.0,0.0,0.0,0.0,0.0,0.0,0.0,0.0,0.0,0.0,0.0,0.0,-1.4815,-1.4872,-1.5236,-1.4869,-1.4283,-1.3684,-1.3533,-1.3419,-1.2888,-1.2069,-1.1387,-1.1204,-1.042,-0.9861,-1.0244,-1.0189,-1.0576,0.0,-1.233,-1.2927,-1.4519,-1.5294,-1.6171,-1.7378,-1.8438,-1.9093,-1.9254,-1.9964,-2.0579,-2.0974,-2.1553,-2.2125,-2.2689,-2.2199,-2.2261,-2.3078,-2.3078,-2.3078,-2.3078,-2.3078,-2.3078,-2.3078,-2.3078,-2.3078,-2.3078,-2.3078,-2.3078,-2.3078,-2.3078,-2.3078,-2.3078,-2.3078,-2.3078,-2.3078,-2.3078,-2.3603,-2.4292,-2.4292,-2.4794,-2.5453,0.0,0.0,0.0,0.0,0.0,0.0,0.0,-0.4932,-0.5108,-0.5108,-0.5108,-0.5108,-0.5108,-0.5108,-0.5108,-0.5108,0.0,0.0,0.0,0.0,0.0,0.0,0.0,0.0,0.0,0.0,0.0,0.0,0.0,0.0,0.0,-0.5368,-0.5492,-0.5511,0.0,0.0,0.0,0.0,0.0,0.0,0.0,0.0,0.0,0.0,0.0,0.0,0.0,0.0,0.0,0.0,0.0,0.0,0.0,0.0,0.0,0.0,-1.4853,-1.4787,-1.4711,-1.4283,-1.3637,-1.3065,-1.2953,-1.2889,-1.2305,-1.1839,-1.1251,-1.038,-0.9777,-0.9408,-0.9408,-0.9837,-1.0689,-1.2164,-1.3333,-1.4372,-1.5254,-1.6268,-1.661,-1.5815,-1.7889,-1.9387,-1.9338,-2.1572,-2.275,-2.1939,-2.1877,-2.1877,-2.1877,-2.1877,-2.2261,-2.3078,-2.3078,-2.3078,-2.3078,-2.3078,-2.3078,-2.3078,-2.3078,-2.3078,-2.3078,-2.3078,-2.3078,-2.3078,-2.3078,-2.3078,-2.3078,-2.3078,-2.3078,-2.3078,-2.3078,-2.3603,-2.4292,-2.4292,-2.4794,-2.5508,0.0,0.0,0.0,0.0,0.0,0.0,0.0,-0.4893,-0.4893,-0.5069,-0.5108,-0.5108,-0.5108,-0.5108,-0.5108,-0.5108,0.0,0.0,0.0,0.0,0.0,0.0,0.0,0.0,0.0,0.0,0.0,0.0,0.0,0.0,0.0,0.0,0.0,-0.5233,-0.5501,-0.567,0.0,0.0,0.0,0.0,0.0,0.0,-0.7416,0.0,0.0,0.0,0.0,0.0,0.0,0.0,0.0,0.0,0.0,0.0,0.0,-1.2253,-1.2875,-1.315,-1.3495,-1.3186,-1.2646,-1.2478,-1.2456,-1.241,-1.2321,-1.1873,-1.124,-1.0368,-0.9958,-0.9659,-0.9434,-1.0031,-1.0953,-1.2196,0.0,0.0,-1.5418,-1.6169,-1.7083,-1.8327,-2.0046,-2.1067,-2.1061,-2.181,-2.2187,-2.1939,-2.2384,-2.2689,-2.2689,-2.2689,-2.2823,-2.3078,-2.3078,-2.3078,-2.3078,-2.3078,-2.3078,-2.3078,-2.3078,-2.3078,-2.3078,-2.3078,-2.3078,-2.3078,-2.3078,-2.3078,-2.3078,-2.3078,-2.3078,-2.3078,-2.3078,-2.3603,-2.435,-2.4851,-2.5508,-2.6283,0.0,0.0,0.0,0.0,0.0,0.0,0.0,-0.4971,-0.503,-0.5088,-0.5108,-0.5108,-0.5108,-0.5108,-0.5108,-0.5108,0.0,0.0,0.0,0.0,0.0,0.0,0.0,0.0,0.0,0.0,0.0,0.0,0.0,0.0,0.0,0.0,0.0,0.0,0.0,0.0,0.0,0.0,0.0,0.0,0.0,0.0,-0.6707,0.0,0.0,0.0,0.0,0.0,0.0,0.0,0.0,0.0,0.0,0.0,0.0,0.0,-1.148,-1.1862,0.0,-1.2351,-1.1894,-1.1894,-1.1914,-1.1906,-1.1734,-1.1453,-1.0941,-1.0092,-0.9905,-0.979,-0.9449,-1.0312,-1.1274,-1.1989,-1.3082,-1.4212,-1.5241,-1.6233,-1.7576,-1.956,-2.0775,-2.156,-2.2007,-2.2201,-2.2384,-2.2384,-2.2823,-2.3078,-2.3078,-2.3078,-2.3078,-2.3078,-2.3078,-2.3078,-2.3078,-2.3078,-2.3078,-2.3078,-2.3078,-2.3078,-2.3078,-2.3078,-2.3078,-2.3078,-2.3078,-2.3078,0.0,-2.3078,-2.3078,-2.3078,-2.3078,-2.3767,-2.4794,-2.5231,-2.5837,-2.6616,0.0,0.0,0.0,0.0,0.0,0.0,0.0,0.0,0.0,0.0,-0.5069,-0.5069,-0.5088,-0.5108,-0.5108,0.0,0.0,0.0,0.0,0.0,0.0,0.0,0.0,0.0,0.0,0.0,0.0,0.0,0.0,0.0,0.0,0.0,0.0,0.0,0.0,0.0,0.0,0.0,0.0,0.0,-0.5782,-0.5911,0.0,0.0,0.0,0.0,0.0,0.0,0.0,0.0,0.0,0.0,0.0,0.0,0.0,0.0,0.0,0.0,0.0,-1.1718,-1.1366,-1.1366,-1.1387,-1.1298,-1.0818,-1.0706,0.0,-0.9584,-0.9672,-0.9814,-0.9557,-1.0644,-1.1638,-1.1801,-1.3581,-1.4941,-1.5016,-1.6471,-1.8141,-1.9736,-2.041,-2.1165,-2.2264,-2.2836,-2.3078,-2.3078,-2.3078,-2.3078,-2.3078,-2.3078,-2.3078,-2.3078,-2.3078,-2.3078,-2.3078,-2.3078,-2.3078,-2.3078,-2.3078,-2.3078,-2.3078,-2.3078,-2.3078,-2.3078,-2.3125,-2.3125,-2.3078,-2.3125,-2.3198,-2.3198,-2.3198,-2.4092,-2.5398,-2.5453,-2.5906,-2.6616,0.0,0.0,0.0,0.0,0.0,0.0,0.0,0.0,0.0,0.0,-0.4785,-0.4873,-0.5069,-0.5108,-0.5108,0.0,0.0,0.0,0.0,0.0,0.0,0.0,0.0,0.0,0.0,0.0,0.0,0.0,0.0,0.0,0.0,0.0,0.0,0.0,0.0,0.0,0.0,0.0,0.0,0.0,-0.5715,-0.5911,0.0,0.0,0.0,0.0,-0.6787,-0.715,0.0,0.0,0.0,0.0,0.0,0.0,0.0,0.0,-0.9152,-0.9517,-0.9775,0.0,-1.087,-1.087,-1.0875,-1.0841,0.0,-1.0697,-1.046,-0.9584,0.0,-1.0051,-1.0534,-1.1148,-1.214,-1.3858,-1.4576,-1.5205,-1.6019,-1.7928,-1.9698,-2.0941,-2.1956,-2.2621,-2.2865,-2.3002,-2.3078,-2.3078,-2.3078,-2.3078,-2.3078,-2.3078,-2.3078,-2.3078,-2.3078,-2.3078,-2.3078,-2.3078,-2.3078,-2.3078,-2.3078,-2.3078,-2.3078,-2.3078,-2.3078,-2.3138,-2.3767,-2.3649,-2.3138,-2.3767,-2.4002,-2.4002,-2.4002,-2.4553,-2.5453,-2.6014,-2.6336,-2.6616,0.0,0.0,0.0,0.0,0.0,0.0,0.0,0.0,0.0,0.0,0.0,0.0,0.0,0.0,0.0,0.0,0.0,0.0,0.0,0.0,0.0,0.0,0.0,0.0,0.0,0.0,0.0,0.0,0.0,0.0,0.0,0.0,0.0,0.0,0.0,0.0,0.0,0.0,0.0,0.0,-0.5678,0.0,0.0,0.0,0.0,0.0,-0.6599,-0.6787,0.0,-0.7319,-0.7606,-0.7939,0.0,0.0,0.0,0.0,-0.8499,-0.8776,-0.9037,-0.988,-1.0694,-1.0694,-1.0694,-1.0694,-1.0694,0.0,0.0,0.0,0.0,-1.0403,-1.08,-1.1659,-1.273,-1.3935,-1.4764,-1.5731,-1.7099,-1.897,-2.0514,-2.1393,-2.246,-2.3078,-2.3078,-2.3078,-2.3078,-2.3078,-2.3078,-2.3078,-2.3078,-2.3078,-2.3078,-2.3078,-2.3078,-2.3078,-2.3078,-2.3078,-2.3078,-2.3078,-2.3078,-2.3078,-2.3078,-2.3078,-2.3078,-2.3138,-2.3543,-2.3708,-2.3708,-2.4118,-2.4509,-2.4794,-2.4794,-2.5231,-2.596,-2.6336,-2.6721,-2.7034,0.0,0.0,0.0,0.0,0.0,0.0,0.0,0.0,0.0,0.0,0.0,0.0,0.0,0.0,0.0,0.0,0.0,0.0,0.0,0.0,0.0,0.0,0.0,0.0,0.0,0.0,0.0,0.0,0.0,0.0,0.0,0.0,0.0,0.0,0.0,0.0,0.0,0.0,0.0,-0.5146,-0.5641,0.0,0.0,0.0,0.0,0.0,0.0,0.0,0.0,-0.7119,-0.7281,-0.7356,-0.7876,0.0,0.0,0.0,0.0,0.0,-0.9037,-0.9954,-1.0709,-1.0691,-1.0769,-1.0831,-1.0831,0.0,0.0,0.0,0.0,0.0,-1.1186,-1.2296,-1.3336,-1.3761,-1.5116,-1.6609,-1.8116,-1.9673,-2.092,-2.143,-2.246,-2.3078,-2.3078,-2.3078,-2.3078,-2.3078,-2.3078,-2.3078,-2.3078,-2.3078,-2.3078,-2.3078,-2.3078,-2.3078,-2.3078,-2.3078,-2.3078,-2.3078,-2.3078,-2.3078,-2.3078,-2.3078,-2.3078,-2.3138,-2.3365,-2.3767,-2.435,-2.4509,-2.5007,-2.5563,-2.5563,-2.6014,-2.6669,-2.6669,-2.7034,-2.7625,0.0,0.0,0.0,0.0,0.0,0.0,0.0,0.0,0.0,0.0,0.0,0.0,0.0,0.0,0.0,0.0,0.0,0.0,0.0,0.0,0.0,0.0,0.0,0.0,0.0,0.0,0.0,0.0,0.0,0.0,0.0,0.0,0.0,0.0,0.0,0.0,0.0,0.0,0.0,-0.5127,-0.5444,0.0,0.0,0.0,0.0,0.0,0.0,0.0,0.0,-0.6699,-0.6724,-0.6737,-0.6824,0.0,0.0,0.0,0.0,0.0,-0.9366,-1.0237,-1.0701,-1.0693,-1.1098,-1.1462,-1.1462,0.0,0.0,0.0,0.0,0.0,0.0,-1.337,-1.3962,-1.6371,-1.735,-1.8078,-1.8794,-1.9924,-2.092,-2.143,-2.246,-2.3078,-2.3078,-2.3078,-2.3078,-2.3078,-2.3078,-2.3078,-2.3078,-2.3078,-2.3078,-2.3078,-2.3078,-2.3078,-2.3078,-2.3078,-2.3078,-2.3078,-2.3078,-2.3078,-2.3078,-2.3078,-2.3078,-2.3185,-2.4496,-2.4781,-2.4408,-2.5673,-2.6229,-2.6336,-2.6336,-2.6774,-2.7408,-2.7408,-2.7509,-2.7625,0.0,0.0,0.0,0.0,0.0,0.0,0.0,0.0,0.0,0.0,0.0,0.0,0.0,0.0,0.0,0.0,0.0,0.0,0.0,0.0,0.0,0.0,0.0,0.0,0.0,0.0,0.0,0.0,0.0,0.0,0.0,0.0,0.0,0.0,0.0,0.0,0.0,0.0,0.0,-0.5127,0.0,0.0,0.0,0.0,0.0,0.0,0.0,0.0,0.0,0.0,-0.6483,-0.6582,-0.6436,0.0,0.0,0.0,0.0,0.0,-0.8444,-0.9315,-1.0131,-1.134,-1.2009,-1.2265,-1.1707,0.0,0.0,0.0,0.0,0.0,0.0,-1.4337,-1.5178,-1.7074,-1.8091,-1.8744,-1.8945,-1.9974,-2.0806,-2.1016,-2.1757,-2.2246,-2.2246,-2.2246,-2.2372,-2.2673,-2.2686,-2.2686,-2.2686,-2.2686,-2.2548,-2.2246,-2.2246,-2.2385,-2.2686,-2.2686,-2.2836,-2.3078,-2.3078,-2.3305,-2.3708,-2.3305,-2.3365,-2.3767,-2.4509,-2.4851,-2.4951,-2.6068,-2.6721,-2.7086,-2.7086,-2.7306,-2.7625,-2.7625,-2.7625,-2.7625,0.0,0.0,0.0,0.0,0.0,0.0,0.0,0.0,0.0,0.0,0.0,0.0,0.0,0.0,0.0,0.0,0.0,0.0,0.0,0.0,0.0,0.0,0.0,0.0,0.0,0.0,0.0,0.0,0.0,0.0,0.0,0.0,0.0,0.0,0.0,0.0,0.0,0.0,0.0,-0.5146,0.0,0.0,0.0,0.0,0.0,0.0,0.0,0.0,0.0,0.0,0.0,0.0,0.0,0.0,0.0,-0.6189,-0.6189,-0.651,-0.7966,-0.8704,-0.9625,-1.1851,-1.2659,-1.2815,-1.2261,-1.2344,0.0,0.0,0.0,0.0,-1.4325,-1.5482,-1.6572,-1.7438,-1.8493,-1.9208,-1.9208,-2.0049,-2.0718,-2.0718,-2.1154,-2.1493,-2.1493,-2.1493,-2.1656,-2.2083,-2.2121,-2.2121,-2.2121,-2.2121,-2.192,-2.1506,-2.1493,-2.1694,-2.2121,-2.2121,-2.2397,-2.2877,-2.3015,-2.3361,-2.3806,-2.3301,-2.3543,-2.4292,-2.4452,-2.4951,-2.5728,-2.6443,-2.71,-2.7625,-2.7625,-2.7625,-2.7625,-2.7625,-2.7625,-2.7625,0.0,0.0,0.0,0.0,0.0,0.0,0.0,0.0,0.0,0.0,0.0,0.0,0.0,0.0,0.0,0.0,0.0,0.0,0.0,0.0,0.0,0.0,0.0,0.0,0.0,0.0,0.0,0.0,0.0,0.0,0.0,0.0,0.0,0.0,0.0,0.0,0.0,0.0,0.0,-0.5127,-0.5406,0.0,0.0,0.0,0.0,0.0,0.0,0.0,0.0,0.0,0.0,0.0,0.0,0.0,-0.6189,-0.6189,-0.6189,-0.6715,-0.9094,-0.9391,-0.9568,-1.1926,-1.246,0.0,-1.3638,-1.3412,0.0,-1.3773,0.0,-1.4281,-1.5399,-1.6923,-1.8053,-1.8129,-1.9045,-1.9748,-1.9748,-2.0275,-2.0718,-2.0718,-2.1154,-2.1493,-2.1493,-2.1493,-2.1506,-2.1543,-2.1543,-2.1543,-2.1543,-2.1543,-2.1531,-2.1493,-2.1493,-2.1506,-2.1543,-2.1543,-2.1832,-2.2372,-2.2887,-2.2862,-2.2443,-2.2899,-2.3543,-2.435,-2.5007,-2.5728,-2.6457,-2.7203,-2.756,-2.7625,-2.7625,-2.7625,-2.7625,-2.7625,-2.7625,-2.7625,0.0,0.0,0.0,0.0,0.0,0.0,0.0,0.0,0.0,0.0,0.0,0.0,0.0,0.0,0.0,0.0,0.0,0.0,0.0,0.0,0.0,0.0,0.0,0.0,0.0,0.0,0.0,0.0,0.0,0.0,0.0,0.0,0.0,0.0,0.0,0.0,0.0,0.0,0.0,0.0,-0.5387,-0.5492,0.0,0.0,0.0,0.0,0.0,0.0,0.0,0.0,-0.5936,-0.6111,0.0,-0.5708,-0.5808,-0.5961,-0.6016,-0.6401,-0.8183,-0.9095,-1.0019,-1.1952,-1.2933,0.0,0.0,-1.4099,-1.4725,-1.4927,-1.4974,-1.5247,-1.6031,-1.73,-1.8204,-1.8204,-1.9108,-1.9798,-1.9798,-1.9987,-2.0125,-2.0125,-2.0313,-2.0439,-2.0439,-2.0439,-2.0589,-2.0953,-2.0978,-2.0978,-2.0978,-2.0978,-2.0815,-2.0451,-2.0439,-2.0815,-2.1534,-2.1587,-2.189,-2.2472,-2.2214,-2.2437,-2.3097,-2.2815,-2.3535,-2.5087,-2.5353,-2.5859,-2.6563,-2.7306,-2.7625,-2.7625,-2.7625,-2.7625,-2.7625,-2.7625,-2.7625,-2.7625,0.0,0.0,0.0,0.0,0.0,0.0,0.0,0.0,0.0,0.0,0.0,0.0,0.0,0.0,0.0,0.0,0.0,0.0,0.0,0.0,0.0,0.0,0.0,0.0,0.0,0.0,0.0,0.0,0.0,0.0,0.0,0.0,0.0,0.0,0.0,0.0,0.0,0.0,0.0,0.0,-0.5387,-0.5454,0.0,0.0,0.0,0.0,0.0,0.0,0.0,0.0,-0.567,0.0,0.0,0.0,0.0,0.0,-0.6086,-0.6592,-0.7922,-0.9096,-1.0365,-1.2189,0.0,0.0,-1.4016,-1.4712,-1.5445,-1.5766,-1.6017,-1.6369,-1.6923,-1.7677,-1.8267,-1.8442,-1.9221,-1.9798,-1.9798,-1.9798,-1.9798,-1.9798,-1.9798,-1.9798,-1.9798,-1.9798,-1.9962,-2.0363,-2.0441,-2.0441,-2.0441,-2.0441,-2.0213,-1.9811,-1.9798,-2.0284,-2.1338,-2.1338,-2.168,-2.2311,-2.1824,-2.218,-2.3248,-2.2658,-2.3416,-2.5164,-2.5164,-2.5705,-2.6586,-2.7095,-2.738,-2.7625,-2.7625,-2.7625,-2.7625,-2.7625,-2.7625,-2.7625,0.0,0.0,0.0,0.0,0.0,0.0,0.0,0.0,0.0,0.0,0.0,0.0,0.0,0.0,0.0,0.0,0.0,0.0,0.0,0.0,0.0,0.0,0.0,0.0,0.0,0.0,0.0,0.0,0.0,0.0,0.0,0.0,0.0,0.0,0.0,0.0,0.0,0.0,0.0,0.0,0.0,-0.533,-0.5127,0.0,0.0,0.0,0.0,0.0,0.0,0.0,-0.567,-0.5789,0.0,0.0,0.0,0.0,-0.6525,-0.7484,-0.875,-0.9557,-1.0523,0.0,0.0,0.0,-1.5442,-1.5228,-1.5105,-1.6204,-1.6929,-1.7551,-1.8103,-1.8204,-1.8392,-1.8883,-1.9459,-1.9798,-1.9798,-1.9798,-1.9798,-1.9798,-1.9798,-1.9798,-1.9798,-1.9798,-1.9798,-1.9798,-1.9798,-1.9798,-1.9798,-1.9798,-1.9798,-1.9798,-1.9798,-2.0156,-2.0795,-2.0795,-2.1113,-2.1697,-2.1697,-2.2028,-2.2614,-2.2445,-2.3171,-2.4517,-2.4517,-2.5287,-2.6572,-2.6572,-2.6976,-2.761,-2.761,-2.756,-2.7625,-2.7625,-2.7625,-2.7625,0.0,0.0,0.0,0.0,0.0,0.0,0.0,0.0,0.0,0.0,0.0,0.0,0.0,0.0,0.0,0.0,0.0,0.0,0.0,0.0,0.0,0.0,0.0,0.0,0.0,0.0,0.0,0.0,0.0,0.0,0.0,0.0,0.0,0.0,0.0,0.0,0.0,0.0,0.0,0.0,0.0,-0.501,-0.5108,0.0,0.0,0.0,0.0,0.0,0.0,0.0,0.0,0.0,0.0,0.0,0.0,-0.6075,-0.7012,-0.8382,-0.8932,-1.0102,-1.1443,-1.2839,0.0,0.0,0.0,-1.5869,0.0,0.0,-1.7585,-1.8003,-1.8179,-1.853,-1.8783,-1.8945,-1.9459,-1.9798,-1.9798,-1.9798,-1.9798,-1.9798,-1.9798,-1.9798,-1.9798,-1.9798,-1.9798,-1.9798,-1.9798,-1.9798,-1.9798,-1.9798,-1.9798,-1.9798,-2.0258,-2.0769,-2.1424,-2.188,-2.2452,-2.3024,-2.262,-2.2505,-2.2644,-2.2639,-2.3345,-2.4574,-2.4574,-2.5084,-2.5899,-2.5899,-2.6288,-2.6886,-2.6886,-2.7156,-2.7625,-2.7625,-2.7625,-2.7625,0.0,0.0,0.0,0.0,0.0,0.0,0.0,0.0,0.0,0.0,0.0,0.0,0.0,0.0,0.0,0.0,0.0,0.0,0.0,0.0,0.0,0.0,0.0,0.0,0.0,0.0,0.0,0.0,0.0,0.0,0.0,0.0,0.0,0.0,0.0,0.0,0.0,0.0,0.0,0.0,0.0,-0.4873,-0.5108,0.0,0.0,0.0,0.0,0.0,0.0,0.0,0.0,0.0,0.0,0.0,0.0,-0.6693,-0.7593,-0.8813,-0.9816,-1.1007,0.0,-1.3538,-1.4802,-1.5756,-1.5969,-1.6622,-1.7287,-1.7639,-1.8141,-1.8593,-1.8807,-1.8945,-1.9046,-1.9296,-1.9597,-1.9798,-1.9798,-1.9798,-1.9798,-1.9798,-1.9798,-1.9798,-1.9798,-1.9798,-1.9798,-1.9798,-1.9798,-1.9798,-1.9798,-1.9798,-1.9901,-2.0207,-2.0597,-2.1224,-2.21,-2.2239,-2.2756,-2.3595,-2.2965,-2.283,-2.3054,-2.2785,-2.3228,-2.4238,-2.4462,-2.4852,-2.5241,-2.5495,-2.5839,-2.6228,-2.6497,-2.6841,-2.7215,-2.752,-2.7625,-2.7625,0.0,0.0,-0.2852,-0.3247,0.0,0.0,0.0,0.0,0.0,0.0,0.0,0.0,0.0,0.0,0.0,-0.2676,0.0,0.0,0.0,0.0,0.0,0.0,0.0,0.0,0.0,0.0,0.0,0.0,0.0,0.0,0.0,0.0,0.0,0.0,0.0,-0.3931,0.0,0.0,0.0,0.0,-0.4666,-0.4834,-0.5108,-0.5108,0.0,0.0,0.0,0.0,0.0,0.0,0.0,0.0,-0.5435,0.0,-0.6288,-0.7407,-0.8157,-0.9034,-1.092,-1.1981,-1.2938,-1.4512,-1.5329,-1.5906,-1.6409,-1.735,-1.8129,-1.8129,-1.8568,-1.912,-1.9635,-1.9346,-1.9196,-1.971,-1.9798,-1.9798,-1.9798,-1.9798,-1.9798,-1.9798,-1.9798,-1.9798,-1.9798,-1.9798,-1.9798,-1.9798,-1.9798,-1.9798,-1.9798,-1.9798,-2.0105,-2.0795,-2.0845,-2.1465,-2.2694,-2.21,-2.2409,-2.3595,-2.2965,-2.3024,-2.3595,-2.3009,-2.3054,-2.3625,-2.4253,-2.4492,-2.4537,-2.5181,-2.5465,-2.5585,-2.6183,-2.6452,-2.6572,-2.7171,-2.749,-2.7535,0.0,0.0,-0.3745,-0.415,0.0,0.0,0.0,0.0,0.0,-0.4418,-0.415,-0.38,-0.3323,-0.2977,0.0,-0.2324,-0.2044,0.0,0.0,0.0,0.0,0.0,0.0,0.0,0.0,0.0,0.0,0.0,0.0,0.0,0.0,0.0,0.0,0.0,0.0,0.0,0.0,0.0,0.0,0.0,-0.4466,-0.4666,-0.5108,-0.5108,-0.5108,0.0,0.0,0.0,0.0,0.0,0.0,0.0,-0.5492,-0.6399,-0.7348,-0.6749,-0.828,-1.0222,-1.0255,-1.1622,0.0,-1.4601,-1.5618,-1.6371,-1.6497,-1.7061,-1.7564,-1.7564,-1.8003,-1.8555,-1.9095,-1.9058,-1.9196,-1.971,-1.9798,-1.9798,-1.9798,-1.9798,-1.9798,-1.9798,-1.9798,-1.9798,-1.9798,-1.9798,-1.9798,-1.9798,-1.9798,-1.9798,-1.9798,-1.9798,-2.0105,-2.0795,-2.1245,-2.1866,-2.2694,-2.2558,-2.286,-2.3595,-2.2965,-2.3024,-2.3595,-2.3465,-2.3465,-2.361,-2.3759,-2.3819,-2.3834,-2.3969,-2.4343,-2.4852,-2.494,-2.536,-2.5839,-2.5974,-2.6363,-2.6797,0.0,0.0,0.0,0.0,0.0,0.0,0.0,0.0,0.0,-0.4103,-0.3986,-0.3703,-0.3153,-0.2853,0.0,0.0,-0.1957,-0.1803,0.0,0.0,0.0,0.0,0.0,0.0,0.0,0.0,0.0,0.0,0.0,0.0,0.0,0.0,0.0,0.0,0.0,0.0,0.0,0.0,0.0,-0.4507,-0.4486,-0.4726,-0.5108,-0.5108,-0.5108,-0.5108,-0.5108,0.0,0.0,0.0,0.0,0.0,0.0,0.0,-0.7099,-0.7181,-0.8314,-0.973,-1.0495,0.0,0.0,-1.5254,-1.6095,-1.6522,-1.6522,-1.6748,-1.6974,-1.6974,-1.7626,-1.8292,-1.8581,-1.8631,-1.8807,-1.9346,-1.9434,-1.9522,-1.9761,-1.9798,-1.9798,-1.9798,-1.9798,-1.9798,-1.9798,-1.9798,-1.9798,-1.9798,-1.9798,-1.9798,-1.9798,-2.0105,-2.0584,-2.1197,-2.1866,-2.2483,-2.3098,-2.283,-2.3009,-2.3595,-2.2965,-2.3024,-2.3595,-2.3595,-2.3595,-2.3595,-2.3595,-2.3595,-2.3595,-2.3595,-2.3819,-2.4163,-2.4448,-2.4791,-2.5181,-2.5495,-2.5824,-2.6123,0.0,0.0,0.0,0.0,0.0,0.0,0.0,0.0,0.0,-0.3892,-0.3828,-0.357,-0.3089,-0.2783,-0.2481,0.0,0.0,0.0,-0.1803,0.0,0.0,0.0,0.0,0.0,0.0,0.0,0.0,0.0,0.0,0.0,0.0,0.0,0.0,0.0,0.0,0.0,0.0,0.0,0.0,-0.4333,-0.4587,-0.4834,-0.503,-0.5088,-0.5108,-0.5108,-0.5108,-0.5108,-0.5146,-0.5406,0.0,0.0,0.0,0.0,-0.6439,-0.764,-0.8148,-0.87,-1.0521,0.0,-1.3699,-1.5844,-1.6446,-1.6522,-1.6522,-1.6522,-1.6522,-1.6522,-1.7262,-1.794,-1.8041,-1.8066,-1.8242,-1.8745,-1.8833,-1.9032,-1.9611,-1.975,-1.9813,-1.9813,-1.9889,-1.9952,-1.9798,-1.9798,-1.9798,-1.9798,-1.9901,-1.9952,-1.9952,-2.0597,-2.1259,-2.1852,-2.2406,-2.2965,-2.3595,-2.3009,-2.3009,-2.3595,-2.3098,-2.3113,-2.3595,-2.3595,-2.3595,-2.3595,-2.3595,-2.3595,-2.3595,-2.3595,-2.3595,-2.3655,-2.4223,-2.4448,-2.4462,-2.5061,-2.533,-2.5435,0.0,0.0,0.0,0.0,0.0,0.0,0.0,0.0,0.0,0.0,-0.3576,-0.3089,-0.2783,-0.2459,-0.215,-0.1869,-0.1825,-0.1803,0.0,0.0,0.0,0.0,0.0,0.0,0.0,0.0,0.0,0.0,0.0,0.0,0.0,0.0,0.0,0.0,0.0,0.0,0.0,0.0,0.0,-0.4333,-0.4587,-0.4726,-0.4765,-0.501,-0.5108,-0.5108,-0.5108,-0.5108,-0.5146,-0.5406,-0.5492,0.0,0.0,0.0,-0.6278,-0.6691,-0.7513,-0.8374,-0.8663,0.0,-1.3611,0.0,-1.617,-1.6522,-1.6522,-1.6522,-1.6522,-1.6522,-1.6635,-1.6898,-1.74,-1.7488,-1.7664,-1.8229,-1.8317,-1.8472,-1.9027,-1.9598,-1.9913,-1.9817,-2.0296,-2.0459,-1.985,-1.9798,-1.9798,-1.9798,-2.0359,-2.0646,-2.0646,-2.1245,-2.1852,-2.2558,-2.2649,-2.2965,-2.3595,-2.3009,-2.3009,-2.3595,-2.3508,-2.3508,-2.3595,-2.3595,-2.3595,-2.3595,-2.3595,-2.3595,-2.3595,-2.3595,-2.3595,-2.361,-2.3699,-2.3729,-2.3744,-2.3834,-2.4238,-2.4716,0.0,0.0,0.0,0.0,0.0,0.0,0.0,0.0,0.0,0.0,0.0,-0.3128,-0.2587,-0.2412,-0.2162,-0.1828,-0.1803,0.0,0.0,0.0,0.0,0.0,0.0,0.0,0.0,0.0,0.0,0.0,0.0,0.0,0.0,-0.4215,-0.4302,0.0,0.0,0.0,0.0,0.0,0.0,-0.4527,-0.4646,-0.508,0.0,0.0,-0.5409,-0.5759,-0.5283,-0.5195,-0.5349,-0.5454,-0.5678,-0.5925,-0.6147,0.0,0.0,0.0,-0.7175,-0.8139,-0.9717,-1.1425,-1.3245,0.0,-1.5881,-1.6132,-1.6446,-1.6522,-1.6522,-1.6522,-1.6522,-1.6597,-1.6861,-1.6898,-1.7087,-1.7652,-1.7739,-1.7945,-1.8469,-1.8819,-1.896,-1.8926,-1.9144,-1.9333,-1.9368,-1.909,-1.9139,-1.9772,-1.9785,-1.9926,-2.024,-2.1185,-2.1664,-2.1585,-2.2308,-2.2653,-2.2532,-2.2638,-2.2993,-2.3595,-2.3595,-2.3595,-2.3595,-2.3595,-2.3595,-2.3595,-2.3595,-2.3595,-2.3595,-2.3595,-2.3595,-2.3595,-2.3595,-2.3595,-2.3595,-2.3595,-2.3789,-2.4059,0.0,0.0,0.0,0.0,0.0,0.0,0.0,0.0,0.0,0.0,0.0,-0.2956,-0.2417,0.0,0.0,0.0,-0.1803,0.0,0.0,0.0,0.0,0.0,0.0,0.0,0.0,0.0,0.0,0.0,0.0,0.0,-0.4402,-0.4402,-0.4596,0.0,-0.4719,0.0,0.0,0.0,0.0,-0.4879,-0.4879,-0.5393,-0.6107,-0.5747,-0.6003,-0.6484,0.0,-0.5562,-0.5714,-0.5623,-0.5789,-0.6058,-0.6236,-0.6388,0.0,0.0,0.0,-0.7751,0.0,0.0,-1.2303,-1.4513,-1.5279,-1.563,-1.6183,-1.6421,-1.6522,-1.6522,-1.6522,-1.6522,-1.6522,-1.6522,-1.666,-1.7087,-1.7162,-1.7345,-1.7885,-1.8109,-1.8198,-1.8211,-1.8464,-1.8714,-1.8989,-1.8773,-1.8943,-1.9738,-1.9547,-1.9591,-2.0029,-2.1084,-2.1467,-2.0973,-2.1925,-2.2188,-2.1695,-2.2188,-2.2742,-2.337,-2.337,-2.3445,-2.3595,-2.3595,-2.3595,-2.3595,-2.3595,-2.3595,-2.3595,-2.3595,-2.3595,-2.3595,-2.3595,-2.3595,-2.3595,-2.3595,-2.3595,-2.3595,0.0,0.0,0.0,0.0,0.0,0.0,0.0,0.0,0.0,0.0,0.0,-0.2263,-0.2215,-0.1978,-0.1825,-0.1803,-0.1803,0.0,0.0,0.0,0.0,0.0,0.0,0.0,0.0,0.0,0.0,0.0,0.0,0.0,-0.4402,-0.4402,-0.4709,-0.5275,-0.5312,-0.52,-0.4995,0.0,0.0,-0.536,-0.536,-0.541,-0.5574,-0.6588,-0.7021,-0.7002,-0.6514,-0.6338,-0.6305,-0.5981,-0.5726,-0.5652,-0.636,-0.6418,-0.6271,0.0,0.0,0.0,0.0,-0.9617,0.0,-1.2772,-1.4149,-1.5104,-1.5618,-1.6132,-1.6522,-1.6522,-1.6522,-1.6522,-1.6522,-1.6522,-1.6522,-1.6559,-1.6559,-1.6731,-1.728,-1.7909,-1.8266,-1.8218,-1.9138,-1.9609,-1.9035,-1.9427,-1.9738,-1.9825,-2.0316,-2.064,-2.064,-2.1318,-2.1685,-2.1655,-2.1724,-2.1739,-2.1695,-2.1724,-2.2084,-2.2768,-2.2768,-2.3041,-2.3595,-2.3595,-2.3595,-2.3595,-2.3595,-2.3595,-2.3595,-2.3595,-2.3595,-2.3595,-2.3595,-2.3595,-2.3595,-2.3595,-2.3595,-2.3595,0.0,0.0,0.0,0.0,0.0,0.0,0.0,0.0,0.0,0.0,0.0,0.0,0.0,-0.1857,-0.1791,-0.1803,0.0,0.0,0.0,0.0,0.0,0.0,0.0,0.0,0.0,0.0,0.0,0.0,0.0,-0.3616,-0.4153,-0.4153,-0.4362,-0.4727,-0.4939,-0.5068,-0.5105,-0.4707,0.0,-0.5285,-0.5375,-0.5983,0.0,-0.7053,-0.7607,-0.8232,-0.7481,-0.715,-0.7022,-0.6995,-0.6717,-0.6454,-0.6811,-0.6699,-0.647,-0.6582,-0.6849,-0.7338,-0.8324,0.0,-1.027,-1.1789,-1.3006,-1.4061,-1.4965,-1.5593,-1.6082,-1.6446,-1.6522,-1.6522,-1.6522,-1.6522,-1.6522,-1.6522,-1.6522,-1.6552,-1.6752,-1.7287,-1.7657,-1.7629,-1.8289,-1.8796,-1.8918,-1.881,-1.8999,-1.9662,-1.9609,-1.9686,-2.0062,-2.0682,-2.0857,-2.0423,-2.0827,-2.1066,-2.1066,-2.1066,-2.1605,-2.2724,-2.2724,-2.2996,-2.3595,-2.3595,-2.3595,-2.3595,-2.3595,-2.3595,-2.3595,-2.3595,-2.3595,-2.3595,-2.3595,-2.3595,-2.3595,-2.3595,-2.3595,-2.3595,0.0,0.0,0.0,-0.2676,0.0,-0.2437,-0.2524,-0.2459,0.0,0.0,0.0,0.0,0.0,0.0,0.0,0.0,0.0,0.0,0.0,0.0,0.0,0.0,0.0,0.0,0.0,0.0,0.0,0.0,0.0,0.0,0.0,0.0,-0.4183,-0.4541,-0.4627,-0.4891,0.0,0.0,0.0,-0.5639,-0.5914,-0.663,-0.752,-0.7842,-0.8389,-0.8926,-0.8538,-0.8277,-0.8189,-0.8235,-0.7918,-0.7517,-0.7505,-0.7093,-0.6599,-0.6599,-0.6862,-0.7256,-0.7839,0.0,0.0,-1.0922,-1.1821,-1.278,-1.4299,-1.5067,-1.5567,-1.6132,-1.6384,-1.6522,-1.6522,-1.6522,-1.6522,-1.6522,-1.6522,-1.6552,-1.6752,-1.7076,-1.7394,-1.7544,-1.8027,-1.8496,-1.8855,-1.8574,-1.8727,-1.9639,-1.9207,-1.9132,-1.969,-2.0124,-2.0154,-1.969,-2.0124,-2.0363,-2.0363,-2.0363,-2.0917,-2.2024,-2.2024,-2.2353,-2.2966,-2.3191,-2.3295,-2.3295,-2.3505,-2.3595,-2.3595,-2.3595,-2.3595,-2.3595,-2.3595,-2.3595,-2.3595,-2.3595,-2.3595,-2.3595,-0.2676,-0.2415,-0.228,-0.2611,-0.2198,-0.1891,-0.215,-0.1978,0.0,0.0,0.0,0.0,0.0,0.0,0.0,0.0,0.0,0.0,0.0,0.0,0.0,0.0,0.0,0.0,0.0,0.0,0.0,0.0,0.0,0.0,0.0,0.0,-0.4273,0.0,-0.4543,-0.4779,-0.5424,0.0,-0.6536,-0.6445,-0.7027,-0.7215,-0.7334,-0.895,-0.934,-0.9111,-0.9563,-0.9752,-0.9745,-0.9697,-0.9262,-0.8706,-0.8411,-0.7526,-0.6624,-0.6624,-0.6637,-0.6762,0.0,0.0,0.0,-1.008,-1.0631,-1.1274,-1.3493,-1.4412,-1.4979,-1.5542,-1.6095,-1.6471,-1.6509,-1.6522,-1.6522,-1.6522,-1.6522,-1.671,-1.7229,-1.7353,-1.7544,-1.8066,-1.8612,-1.893,-1.893,-1.8893,-1.9132,-1.9639,-1.9207,-1.9132,-1.969,-1.969,-1.969,-1.969,-1.969,-1.969,-1.969,-1.969,-2.0034,-2.0722,-2.0722,-2.1051,-2.1724,-2.2353,-2.2694,-2.2682,-2.3295,-2.3565,-2.3565,-2.3595,-2.3595,-2.3595,-2.3595,-2.3595,-2.3595,-2.3595,-2.3595,-2.3595,-0.2044,-0.1978,-0.1935,-0.2022,-0.1913,-0.1825,-0.1891,-0.1847,0.0,0.0,0.0,0.0,0.0,0.0,0.0,0.0,0.0,0.0,0.0,0.0,0.0,0.0,0.0,0.0,0.0,0.0,0.0,0.0,0.0,0.0,0.0,0.0,0.0,0.0,-0.4826,-0.5037,-0.4906,-0.5153,0.0,-0.649,-0.659,-0.7367,-0.8535,-0.8994,-0.9492,-0.9997,-1.0458,-1.0714,-1.0809,-1.1037,-1.0786,-1.0185,-0.9193,-0.8098,-0.7169,-0.7169,-0.7488,-0.7696,-0.7012,0.0,0.0,0.0,0.0,0.0,-1.1412,-1.209,-1.3028,-1.4777,-1.5255,-1.5567,-1.6371,-1.6522,-1.6522,-1.6522,-1.6837,-1.7105,-1.7271,-1.7987,-1.8496,-1.865,-1.9169,-1.9479,-1.9479,-1.9132,-1.9132,-1.9639,-1.9207,-1.9132,-1.969,-1.969,-1.969,-1.969,-1.969,-1.969,-1.969,-1.969,-2.0034,-2.0722,-2.0722,-2.1051,-2.171,-2.1874,-2.1964,-2.1994,-2.2652,-2.2936,-2.2966,-2.3415,-2.3595,-2.3595,-2.3595,-2.3595,-2.3595,-2.3595,-2.3595,-2.3595,-0.1803,-0.1803,-0.1803,-0.1803,-0.1803,-0.1803,-0.1803,-0.1891,0.0,0.0,0.0,0.0,0.0,0.0,0.0,0.0,0.0,0.0,0.0,0.0,0.0,0.0,-0.2982,0.0,0.0,0.0,0.0,0.0,0.0,0.0,0.0,0.0,0.0,0.0,-0.4556,-0.4742,-0.4706,-0.4706,-0.5388,-0.6505,-0.7212,-0.7998,-0.8799,-0.9336,-0.9873,-1.0464,-1.1367,-1.1839,-1.2178,-1.283,-1.2375,-1.1339,-0.9891,-0.8989,-0.8365,-0.7914,-0.8198,-0.8437,-0.7558,-0.8261,-0.9115,-0.8577,0.0,0.0,-1.0847,-1.1525,-1.2366,-1.3885,-1.4551,-1.5104,-1.5718,-1.6019,-1.617,-1.617,-1.6796,-1.7394,-1.7585,-1.8185,-1.8727,-1.9169,-1.953,-1.969,-1.969,-1.9006,-1.8893,-1.9639,-1.9006,-1.8893,-1.9639,-1.969,-1.969,-1.969,-1.969,-1.969,-1.969,-1.969,-1.9884,-2.0288,-2.0288,-2.0483,-2.0872,-2.1156,-2.1291,-2.1335,-2.2278,-2.2724,-2.2768,-2.334,-2.3595,-2.3595,-2.3595,-2.3595,-2.3595,-2.3595,-2.3595,-2.3595,0.0,-0.1869,-0.1891,-0.1847,-0.1869,-0.1891,-0.1891,-0.211,-0.2237,0.0,0.0,0.0,0.0,0.0,0.0,0.0,0.0,0.0,0.0,0.0,0.0,-0.3393,-0.3223,-0.3089,0.0,0.0,0.0,0.0,0.0,0.0,0.0,0.0,0.0,0.0,-0.4109,-0.4293,-0.4715,-0.4845,-0.5493,-0.6621,-0.8164,-0.8682,-0.8643,-0.9775,-1.0331,-1.0635,-1.2074,-1.2931,-1.3569,-1.4635,-1.391,-1.2328,-1.0759,-1.0182,-0.988,-0.8876,-0.8901,0.0,-0.8625,-0.8575,0.0,-0.9617,-0.9579,0.0,-1.1039,-1.1776,-1.2379,-1.2897,-1.3835,-1.4576,-1.4702,-1.5141,-1.5517,-1.5517,-1.6406,-1.7315,-1.7933,-1.8106,-1.8535,-1.9479,-1.9639,-1.969,-1.969,-1.8727,-1.8535,-1.9603,-1.8817,-1.8688,-1.9639,-1.969,-1.969,-1.969,-1.969,-1.969,-1.969,-1.969,-1.969,-1.969,-1.969,-1.969,-1.9705,-2.0318,-2.0602,-2.0677,-2.1919,-2.2499,-2.2517,-2.3206,-2.3535,-2.3595,-2.3595,-2.3595,-2.3595,-2.3595,-2.3595,-2.3595,-0.2128,-0.235,-0.2437,-0.2172,-0.235,-0.2524,-0.2524,-0.2567,0.0,0.0,0.0,0.0,0.0,0.0,0.0,0.0,0.0,0.0,0.0,0.0,-0.281,-0.2853,-0.3004,-0.3089,-0.3089,0.0,0.0,0.0,0.0,0.0,0.0,0.0,0.0,0.0,-0.4606,-0.4814,-0.4751,-0.5681,-0.6416,-0.6992,-0.7334,-0.8242,-0.9378,-0.9631,-1.0165,-1.0955,-1.2162,-1.3191,-1.4094,-1.5168,-1.4726,-1.3632,-1.2831,-1.1977,-1.1123,-1.0431,-1.0305,-1.0255,-0.9742,-1.0257,-1.0671,-0.9554,-1.0195,0.0,-0.983,-1.0345,-1.1182,-1.1789,-1.2077,-1.2504,-1.3348,-1.3998,-1.4412,-1.4412,-1.5322,-1.6353,-1.7328,-1.8224,-1.8817,-1.9043,-1.9442,-1.969,-1.969,-1.8727,-1.8535,-1.9603,-1.953,-1.9479,-1.969,-1.969,-1.969,-1.969,-1.969,-1.969,-1.969,-1.969,-1.969,-1.969,-1.969,-1.969,-1.969,-1.9824,-1.9884,-1.9929,-2.0737,-2.1096,-2.1186,-2.2368,-2.3146,-2.3595,-2.3595,-2.3595,-2.3595,-2.3595,-2.3595,-2.3595,-0.2459,-0.2589,-0.2654,-0.2481,-0.2589,-0.2632,-0.2481,-0.2589,0.0,0.0,0.0,0.0,0.0,0.0,0.0,0.0,0.0,0.0,0.0,0.0,-0.2961,-0.3089,-0.3223,-0.3309,-0.3309,-0.3563,0.0,0.0,0.0,0.0,0.0,0.0,0.0,0.0,0.0,-0.4964,-0.5084,-0.5545,-0.6129,-0.6826,-0.7705,-0.8845,-1.0011,-0.9948,-1.0835,-1.2171,-1.2782,-1.3969,-1.5289,-1.5306,-1.4953,-1.4349,-1.3461,-1.3044,-1.2688,-1.1814,-1.1733,-1.177,-1.0973,-1.1161,-1.145,-1.0885,-1.1173,0.0,0.0,-1.096,-1.1387,-1.2241,-1.1977,-1.1927,-1.2998,-1.3458,-1.374,-1.3972,-1.4739,-1.5644,-1.6557,-1.7758,-1.8612,-1.8855,-1.9369,-1.969,-1.969,-1.8968,-1.8727,-1.9244,-1.9566,-1.969,-1.969,-1.969,-1.969,-1.969,-1.969,-1.969,-1.969,-1.969,-1.969,-1.969,-1.969,-1.969,-1.969,-1.969,-1.969,-1.972,-2.0423,-2.0722,-2.0797,-2.1784,-2.2562,-2.3176,-2.3475,-2.3595,-2.3595,-2.3595,-2.3595,-2.3595,-0.2697,-0.274,-0.274,-0.2632,-0.2654,-0.2632,-0.2411,-0.2611,0.0,0.0,0.0,0.0,0.0,0.0,0.0,0.0,0.0,0.0,0.0,-0.3431,-0.3445,-0.3569,-0.3584,-0.3605,-0.3647,-0.3807,0.0,0.0,0.0,0.0,0.0,0.0,0.0,0.0,0.0,0.0,0.0,0.0,-0.5963,-0.7034,-0.8342,-0.9389,-1.0148,-1.0389,-1.1572,-1.3173,-1.3645,-1.4983,-1.6358,-1.5367,-1.5067,-1.4878,-1.3735,-1.3772,-1.4047,-1.3019,-1.3119,-1.3358,-1.2467,-1.226,-1.2253,-1.2379,-1.2316,-1.2203,0.0,0.0,0.0,-1.278,-1.2203,-1.1864,-1.2722,-1.2939,-1.3093,-1.346,-1.4236,-1.4972,-1.5521,-1.6785,-1.7889,-1.8444,-1.9104,-1.9495,-1.9495,-1.8987,-1.8745,-1.8878,-1.9169,-1.942,-1.9675,-1.969,-1.969,-1.969,-1.969,-1.969,-1.969,-1.969,-1.969,-1.969,-1.969,-1.969,-1.969,-1.969,-1.969,-1.972,-2.0273,-2.0513,-2.0572,-2.1231,-2.1814,-2.2383,-2.3131,-2.349,-2.3595,-2.3595,-2.3595,-2.3595,-0.2697,-0.2896,-0.2891,-0.2346,-0.2502,-0.2762,-0.2961,-0.3025,0.0,0.0,0.0,0.0,0.0,-0.4774,-0.5085,-0.6204,-0.5443,-0.4936,-0.4959,-0.4617,-0.4253,-0.3863,-0.3848,-0.3973,-0.4211,-0.4007,-0.3911,0.0,0.0,0.0,0.0,0.0,-0.4892,-0.4807,-0.5399,0.0,0.0,-0.6123,-0.7245,-0.8782,-0.8548,-0.8711,-0.9224,-1.0572,-1.1686,-1.2749,-1.4674,-1.5855,-1.6421,-1.5806,-1.5605,-1.5404,-1.4337,-1.4374,-1.4689,-1.4072,-1.4286,-1.4702,-1.4576,-1.4538,-1.4198,-1.2755,-1.3458,-1.3909,-1.1462,0.0,-1.2772,-1.1952,0.0,-1.1625,-1.1751,0.0,0.0,-1.221,-1.3445,-1.4195,-1.3761,-1.517,-1.6455,-1.7061,-1.8126,-1.8807,-1.8807,-1.8216,-1.8131,-1.8844,-1.8308,-1.8463,-1.963,-1.969,-1.969,-1.969,-1.969,-1.969,-1.969,-1.969,-1.969,-1.969,-1.969,-1.969,-1.969,-1.969,-1.969,-1.969,-1.9765,-1.9794,-1.9854,-2.0543,-2.0872,-2.1051,-2.2293,-2.3116,-2.3595,-2.3595,-2.3595,-2.3595,-0.2719,-0.2789,-0.2783,-0.2546,-0.274,-0.2962,-0.3078,-0.3463,0.0,0.0,0.0,0.0,-0.5565,-0.5431,-0.5752,-0.6781,-0.616,-0.5656,-0.5502,-0.5137,0.0,-0.4547,-0.398,-0.4,-0.4682,-0.4337,-0.4211,0.0,-0.4466,0.0,0.0,0.0,-0.5034,-0.534,-0.565,-0.6087,-0.6543,-0.6445,-0.7072,-0.815,-0.8722,-0.9226,-0.9777,-1.1045,-1.254,-1.4088,-1.5611,-1.6281,-1.6434,-1.5881,-1.548,-1.5191,-1.5053,-1.4765,-1.445,-1.4538,-1.4727,-1.484,-1.4525,-1.4664,-1.4664,-1.3644,-1.3921,-1.4047,-1.2484,-1.2447,-1.2806,-1.3015,0.0,0.0,0.0,0.0,0.0,0.0,-1.3035,-1.3341,-1.3598,-1.4041,-1.4714,-1.567,-1.6522,-1.7146,-1.7503,-1.7279,-1.7439,-1.814,-1.7896,-1.8134,-1.9076,-1.948,-1.969,-1.969,-1.969,-1.969,-1.969,-1.969,-1.969,-1.969,-1.969,-1.969,-1.969,-1.969,-1.969,-1.969,-1.969,-1.969,-1.9705,-1.9989,-2.0348,-2.0767,-2.1321,-2.2158,-2.3101,-2.3475,-2.3595,-2.3595,-0.274,0.0,-0.2783,-0.2719,-0.2853,-0.3045,-0.3192,-0.3867,-0.4388,-0.4488,-0.5186,-0.587,-0.638,-0.6508,-0.6914,-0.7893,-0.7412,-0.6954,-0.6693,-0.611,-0.5689,-0.5485,-0.4634,-0.4514,-0.5209,-0.4808,-0.4639,-0.4706,-0.4706,0.0,0.0,0.0,0.0,-0.5615,-0.5872,-0.6377,-0.708,-0.6865,-0.7337,-0.8309,-0.9283,-1.0412,-1.1593,-1.2351,-1.379,-1.5496,-1.6243,-1.6522,-1.6434,-1.5881,-1.5429,-1.5141,-1.5392,-1.5067,-1.4614,-1.5016,-1.5203,-1.5229,-1.4865,-1.5054,-1.5078,-1.411,-1.4085,-1.4047,-1.3019,-1.2831,-1.3044,-1.3732,-1.3116,0.0,0.0,0.0,-1.2731,-1.3195,0.0,-1.2946,-1.3203,-1.3168,-1.3472,-1.4559,-1.5182,-1.5755,-1.6383,-1.6129,-1.6338,-1.7354,-1.7085,-1.7445,-1.8642,-1.9151,-1.9495,-1.9675,-1.969,-1.969,-1.969,-1.969,-1.969,-1.969,-1.969,-1.969,-1.969,-1.969,-1.969,-1.969,-1.969,-1.969,-1.969,-1.969,-1.9989,-2.0453,-2.0647,-2.141,-2.2488,-2.3116,-2.3445,-2.3595,-0.2697,-0.2918,0.0,-0.274,-0.2697,-0.2885,-0.3406,-0.4221,-0.4897,-0.5212,-0.5792,-0.6608,-0.7706,-0.8277,-0.9114,-1.0374,-0.9862,-0.9379,-0.9105,-0.7923,-0.7053,-0.6665,-0.6189,-0.5866,-0.5769,-0.5498,-0.5144,-0.4706,-0.4706,0.0,0.0,0.0,0.0,0.0,-0.5993,-0.665,-0.7129,-0.7491,-0.8682,-1.0323,-1.047,-1.2283,-1.4844,-1.4807,-1.5489,-1.6454,-1.6466,-1.6522,-1.6434,-1.5881,-1.568,-1.558,-1.5104,-1.5241,-1.5643,-1.5668,-1.6045,-1.6459,-1.6446,-1.6459,-1.5944,-1.3761,-1.4061,-1.4324,-1.2128,-1.2889,-1.3896,-1.3323,-1.396,-1.4454,-1.3994,-1.3963,-1.3869,0.0,-1.3524,0.0,0.0,-1.2403,-1.3077,-1.3755,-1.4438,-1.5081,-1.5769,-1.4648,-1.468,-1.6592,-1.5605,-1.6009,-1.8568,-1.8732,-1.9031,-1.966,-1.969,-1.969,-1.969,-1.969,-1.969,-1.969,-1.969,-1.969,-1.969,-1.969,-1.969,-1.969,-1.969,-1.969,-1.969,-1.969,-1.969,-1.9794,-2.0453,-2.1126,-2.1799,-2.2458,-2.3086,-2.3595,0.0,0.0,0.0,-0.2815,-0.2853,-0.3289,-0.4216,-0.5141,-0.6061,-0.7018,-0.7506,-0.8187,-0.9439,-0.9525,-0.9887,-1.0901,-1.0609,-1.0168,-0.9588,-0.8669,-0.8075,-0.7831,-0.6492,-0.6148,-0.7034,-0.5975,-0.5411,-0.543,-0.5124,-0.4971,0.0,0.0,0.0,0.0,0.0,-0.6816,-0.752,-0.7969,-0.9168,-1.0871,-1.2318,-1.4155,-1.5996,-1.599,-1.6195,-1.6522,-1.6522,-1.6522,-1.6497,-1.6308,-1.5994,-1.5731,-1.5906,-1.5593,-1.5229,-1.5593,-1.5831,-1.5969,-1.5969,-1.6233,-1.6158,-1.4689,-1.4588,-1.4525,-1.3019,-1.343,-1.3934,-1.3311,-1.3998,-1.4554,-1.4007,-1.4007,-1.4041,0.0,0.0,-1.2972,0.0,-1.2291,-1.2224,-1.2448,-1.3062,-1.358,-1.379,-1.3391,-1.378,-1.5336,-1.5037,-1.574,-1.7939,-1.8463,-1.9016,-1.966,-1.969,-1.969,-1.969,-1.969,-1.969,-1.969,-1.969,-1.969,-1.969,-1.969,-1.969,-1.969,-1.969,-1.969,-1.969,-1.969,-1.969,-1.9705,-1.9944,-2.0722,-2.1769,-2.2428,-2.3071,-2.3595,-0.4077,-0.4066,-0.3814,-0.326,-0.347,-0.3987,-0.486,-0.5944,-0.702,-0.796,-0.8296,-0.8949,-1.0242,-1.0318,-1.0588,-1.1352,-1.1334,-1.1048,-1.0403,-0.9762,-0.9251,-0.8842,-0.7669,-0.7404,-0.8178,-0.6893,-0.6237,-0.6288,-0.565,-0.5263,0.0,0.0,0.0,0.0,0.0,-0.6878,-0.7734,-0.8528,-0.9776,-1.1446,-1.3564,-1.5259,-1.6522,-1.6522,-1.6522,-1.6522,-1.6522,-1.6522,-1.6522,-1.6522,-1.6283,-1.6045,-1.6409,-1.6032,-1.553,-1.5881,-1.5982,-1.5982,-1.5982,-1.6245,-1.6258,-1.518,-1.5054,-1.4827,-1.3486,-1.381,-1.426,-1.3868,-1.4267,-1.4777,-1.5011,-1.4617,-1.4269,0.0,0.0,-1.2828,0.0,-1.2059,-1.1805,-1.1805,-1.2179,-1.2546,-1.2786,-1.2381,-1.2837,-1.4648,-1.4375,-1.5037,-1.7219,-1.7999,-1.8657,-1.9316,-1.957,-1.969,-1.969,-1.969,-1.969,-1.969,-1.969,-1.969,-1.969,-1.969,-1.969,-1.969,-1.969,-1.969,-1.969,-1.969,-1.969,-1.969,-1.969,-2.0363,-2.1425,-2.2084,-2.2877,-2.3595,-0.4355,-0.4234,-0.4059,-0.4059,-0.4482,-0.492,-0.5302,-0.6614,-0.7741,-0.816,-0.8413,-0.906,-1.0384,-1.0836,-1.1235,-1.1818,-1.2092,-1.207,-1.1665,-1.1182,-1.0576,-0.9766,-0.9668,-0.9502,-0.9243,-0.8238,-0.7589,-0.7264,-0.6276,-0.5566,0.0,0.0,0.0,0.0,-0.6003,-0.6895,-0.7842,-0.9129,-1.0606,-1.22,-1.424,-1.5654,-1.6522,-1.6522,-1.6522,-1.6522,-1.6522,-1.6522,-1.6522,-1.6522,-1.6522,-1.6522,-1.6522,-1.6522,-1.6522,-1.6522,-1.6522,-1.6522,-1.6522,-1.6522,-1.6271,-1.5216,-1.5369,-1.5318,-1.3709,-1.4235,-1.5005,-1.4884,-1.4862,-1.5302,-1.6761,-1.5679,-1.4628,0.0,0.0,-1.2936,-1.2045,-1.1895,-1.1895,-1.1895,-1.1895,-1.2104,-1.2651,-1.161,-1.1969,-1.4498,-1.3565,-1.3974,-1.6577,-1.7294,-1.7951,-1.8687,-1.9346,-1.969,-1.969,-1.969,-1.969,-1.969,-1.969,-1.969,-1.969,-1.969,-1.969,-1.969,-1.969,-1.969,-1.969,-1.969,-1.969,-1.969,-1.969,-2.0124,-2.0842,-2.15,-2.2532,-2.3595,-0.4436,-0.4696,-0.4973,-0.4973,-0.4883,-0.5053,-0.5853,-0.6907,-0.8063,-0.9264,-1.015,-1.1067,-1.2137,-1.2329,-1.2464,-1.2598,-1.2677,-1.2529,-1.209,-1.1641,-1.1502,-1.1757,-1.0743,-1.0496,-1.1168,-0.9292,-0.8259,-0.815,-0.6569,-0.5744,-0.5605,0.0,0.0,0.0,0.0,-0.7102,-0.8353,-0.9287,-1.116,-1.3673,-1.5416,-1.6255,-1.6522,-1.6522,-1.6522,-1.6522,-1.6522,-1.6522,-1.6522,-1.6522,-1.6522,-1.6522,-1.6522,-1.6522,-1.6522,-1.6522,-1.6522,-1.6522,-1.6522,-1.6522,-1.6446,-1.617,-1.6196,-1.6179,-1.5735,-1.6209,-1.6586,-1.6165,-1.6599,-1.6839,-1.6045,-1.5783,-1.5467,-1.4718,-1.4184,-1.3733,-1.3332,-1.3301,-1.3301,-1.3301,-1.3301,-1.2777,-1.1446,-1.1895,-1.2576,-1.3265,-1.3451,-1.4456,-1.6592,-1.6876,-1.7488,-1.8672,-1.9346,-1.969,-1.969,-1.969,-1.969,-1.969,-1.969,-1.969,-1.969,-1.969,-1.969,-1.969,-1.969,-1.969,-1.969,-1.969,-1.969,-1.969,-1.969,-2.0408,-2.1515,-2.2188,-2.2921,-2.3595,-0.4957,-0.5451,-0.5852,-0.5852,-0.6062,-0.6428,-0.696,-0.7786,-0.8798,-1.0134,-1.1342,-1.2177,-1.254,-1.2773,-1.2881,-1.2881,-1.2881,-1.2695,-1.2209,-1.2433,-1.2559,-1.2499,-1.2171,-1.2168,-1.2498,-1.0867,-0.9691,-0.9078,-0.7464,-0.6363,-0.5793,0.0,0.0,0.0,0.0,-0.705,-0.8301,-1.0426,-1.2513,-1.4575,-1.5944,-1.6522,0.0,-1.6522,-1.6522,-1.6522,-1.6522,-1.6522,-1.6522,-1.6522,-1.6522,-1.6522,-1.6522,-1.6522,-1.6522,-1.6522,-1.6522,-1.6522,-1.6522,-1.668,-1.6837,-1.6837,-1.7021,-1.7139,-1.6883,-1.7081,-1.7297,-1.7199,-1.727,-1.7306,-1.7337,-1.6532,-1.5513,-1.4485,-1.4127,-1.3921,-1.3829,-1.381,-1.369,-1.3391,-1.363,-1.3017,-1.0992,-1.1745,-1.2343,-1.2343,-1.2972,-1.3974,-1.5353,-1.6517,-1.7473,-1.8253,-1.9196,-1.969,-1.969,-1.969,-1.969,-1.969,-1.969,-1.969,-1.969,-1.969,-1.969,-1.969,-1.969,-1.969,-1.969,-1.969,-1.969,-1.9711,-1.9909,-2.0669,-2.1779,-2.2324,-2.2968,-2.3595,-0.5671,-0.6273,-0.668,-0.6607,-0.7469,-0.825,-0.8333,-0.8995,-0.9848,-1.0767,-1.2072,-1.2734,-1.2353,-1.2656,-1.2881,-1.2881,-1.2881,-1.2763,-1.2427,-1.3289,-1.3549,-1.2947,-1.3736,-1.4009,-1.3622,-1.2572,-1.1343,-0.9999,-0.8507,-0.715,0.0,0.0,0.0,0.0,0.0,0.0,-0.8491,-1.2065,-1.4141,-1.5104,-1.6107,-1.6522,-1.6522,-1.6522,-1.6522,-1.6522,-1.6522,-1.6522,-1.6522,-1.6522,-1.6522,-1.6522,-1.6522,-1.6522,-1.6522,-1.6522,-1.6522,-1.6522,-1.6522,-1.6879,-1.7312,-1.7312,-1.7747,-1.8071,-1.7632,-1.7544,-1.7729,-1.8216,-1.7569,-1.7448,-1.9239,-1.747,-1.5398,-1.4499,-1.4231,-1.4135,-1.4277,-1.4169,-1.3855,-1.3265,-1.3705,0.0,-1.1126,-1.1625,-1.1984,-1.1805,-1.2403,-1.3145,-1.3899,-1.6099,-1.7428,-1.7682,-1.8912,-1.96,-1.969,-1.969,-1.969,-1.969,-1.969,-1.969,-1.969,-1.969,-1.969,-1.969,-1.969,-1.969,-1.969,-1.969,-1.969,-1.9747,-2.0158,-2.0874,-2.1734,-2.2141,-2.2863,-2.3595,-0.6095,-0.6787,-0.7204,-0.6673,-0.7788,-0.8936,-0.9505,-1.0233,-1.0821,-1.1223,-1.2254,-1.2852,-1.2773,-1.2832,-1.2881,-1.2881,-1.2881,-1.3074,-1.3476,-1.3679,-1.4196,-1.5008,-1.4803,-1.4893,-1.5284,-1.3496,-1.2059,-1.1054,-0.8856,-0.7283,0.0,0.0,0.0,0.0,0.0,0.0,-1.1319,-1.3668,-1.501,-1.5605,-1.6258,-1.6522,-1.6522,-1.6522,-1.6522,-1.6522,-1.6522,-1.6522,-1.6522,-1.6522,-1.6522,-1.6522,-1.6522,-1.6522,-1.6522,-1.6522,-1.6522,-1.6522,-1.6522,-1.6879,-1.7312,-1.7312,-1.8027,-1.875,-1.8636,-1.8957,-1.9316,-1.9388,-1.9263,-1.9099,-1.8892,-1.7749,-1.657,-1.5854,-1.5715,-1.6001,-1.6889,-1.6099,-1.5409,-1.5289,-1.5379,-1.4423,-1.188,-1.2732,-1.3002,-1.188,-1.2403,-1.334,-1.4558,-1.5052,-1.6039,-1.7637,-1.8463,-1.9136,-1.9675,-1.969,-1.969,-1.969,-1.969,-1.969,-1.969,-1.969,-1.969,-1.969,-1.969,-1.969,-1.969,-1.969,-1.969,-1.9747,-2.0158,-2.0874,-2.1734,-2.2141,-2.2863,-2.3595,-0.6607,-0.6947,-0.7248,-0.7281,-0.839,-0.9518,-1.03,-1.1287,-1.1948,-1.1827,-1.2261,-1.2549,-1.2549,-1.2744,-1.2881,-1.2881,-1.2881,-1.3017,-1.3334,-1.392,-1.4514,-1.5096,-1.5504,-1.5689,-1.5706,-1.4473,-1.3106,-1.1554,-0.9734,-0.8099,0.0,-0.6077,-0.5868,-0.6137,0.0,-0.9827,-1.2418,-1.3888,-1.4968,-1.5743,-1.6296,-1.6522,-1.6522,-1.6522,-1.6522,-1.6522,-1.6522,-1.6522,-1.6522,-1.6522,-1.6522,-1.6522,-1.6522,-1.6522,-1.6522,-1.6522,-1.6522,-1.6522,-1.6522,-1.6879,-1.7394,-1.7666,-1.8302,-1.8968,-1.9244,-1.953,-1.969,-1.969,-1.969,-1.9495,-1.8822,-1.7981,-1.7302,-1.6993,-1.6623,-1.6583,-1.7113,-1.6637,-1.6024,-1.5379,-1.5589,-1.4884,-1.2561,-1.3211,-1.2972,-1.0967,-1.2051,-1.3086,-1.3745,-1.4764,-1.6039,-1.7637,-1.8358,-1.9016,-1.9675,-1.969,-1.969,-1.969,-1.969,-1.969,-1.969,-1.969,-1.969,-1.969,-1.969,-1.969,-1.969,-1.969,-1.9818,-2.0054,-2.0483,-2.1217,-2.2079,-2.2487,-2.3047,-2.3595,-0.7161,-0.7281,-0.752,-0.7972,-0.9046,-1.0059,-1.0615,-1.1968,-1.2754,-1.2412,-1.2363,-1.2363,-1.2363,-1.2809,-1.3065,-1.2929,-1.3104,-1.3248,-1.3152,-1.4247,-1.4971,-1.5062,-1.5976,-1.6308,-1.5881,-1.5329,-1.4125,-1.2147,-1.0904,-0.9289,-0.7419,-0.7011,-0.6874,-0.7103,-0.9272,-1.1281,-1.3045,-1.4029,-1.5008,-1.5906,-1.6346,-1.6522,-1.6522,-1.6522,-1.6522,-1.6522,-1.6522,-1.6522,-1.6522,-1.6522,-1.6522,-1.6522,-1.6522,-1.6522,-1.6522,-1.6522,-1.6522,-1.6522,-1.6522,-1.6879,-1.7422,-1.7987,-1.8496,-1.9043,-1.9566,-1.969,-1.969,-1.969,-1.969,-1.9495,-1.8822,-1.8388,-1.8011,-1.7742,-1.7369,-1.7085,-1.6936,-1.6801,-1.6278,-1.5141,-1.5364,-1.4914,-1.319,-1.3226,-1.2583,-1.0653,-1.1811,-1.2726,-1.3011,-1.4524,-1.6009,-1.7428,-1.8149,-1.8807,-1.9465,-1.9615,-1.969,-1.969,-1.969,-1.969,-1.969,-1.969,-1.969,-1.969,-1.969,-1.969,-1.9726,-1.9782,-2.0,-2.0348,-2.091,-2.1686,-2.2502,-2.2853,-2.3343,-2.3752,-0.7622,-0.8136,-0.8608,-0.8617,-0.978,-1.0524,-1.0056,-1.1648,-1.2871,-1.2832,-1.2822,-1.2822,-1.2822,-1.3351,-1.3515,-1.2978,-1.3884,-1.4376,-1.4014,-1.496,-1.5776,-1.6293,-1.6423,-1.6497,-1.6446,-1.5906,-1.4871,-1.3337,-1.2307,-1.0779,-0.8801,-0.841,-0.8587,-0.9393,-1.1471,-1.2983,-1.4036,-1.5101,-1.589,-1.6446,-1.6497,-1.6522,-1.6522,-1.6522,-1.6522,-1.6522,-1.6522,-1.6522,-1.6522,-1.6522,-1.6522,-1.6522,-1.6522,-1.6522,-1.6522,-1.6522,-1.6522,-1.6522,-1.6522,-1.6879,-1.7422,-1.7987,-1.8496,-1.9043,-1.9566,-1.969,-1.969,-1.969,-1.969,-1.9495,-1.8822,-1.9151,-1.9106,-1.7891,-1.8179,-1.8313,-1.7682,-1.7085,-1.6443,-1.5799,-1.5244,-1.4573,-1.3795,-1.2658,-1.2134,-1.2501,-1.2119,-1.2418,-1.3645,-1.3885,-1.4845,-1.6741,-1.7443,-1.8134,-1.8792,-1.939,-1.969,-1.969,-1.969,-1.969,-1.969,-1.969,-1.969,-1.969,-1.969,-1.969,-1.9726,-2.0089,-2.028,-2.0382,-2.1228,-2.2151,-2.2996,-2.3028,-2.355,-2.4282,-0.8357,-0.9926,-1.1259,-1.1214,-1.1674,-1.1987,-1.1722,-1.2397,-1.2881,-1.2881,-1.2881,-1.2881,-1.2881,-1.3104,-1.3152,-1.2929,-1.3647,-1.4329,-1.4801,-1.532,-1.572,-1.5964,-1.6293,-1.6522,-1.6522,-1.5969,-1.5264,-1.4336,-1.3044,-1.1696,-1.0332,-1.0207,-1.0779,-1.1992,-1.3052,-1.4125,-1.5104,-1.5505,-1.6019,-1.6522,-1.6522,-1.6522,-1.6522,-1.6522,-1.6522,-1.6522,-1.6522,-1.6522,-1.6522,-1.6522,-1.6522,-1.6522,-1.6522,-1.6522,-1.6522,-1.6522,-1.6522,-1.6522,-1.6522,-1.668,-1.7034,-1.7907,-1.8263,-1.865,-1.9479,-1.969,-1.969,-1.969,-1.969,-1.96,-1.9346,-1.9181,-1.9046,-1.8927,-1.8792,-1.8478,-1.7787,-1.7473,-1.6921,-1.5918,-1.5559,-1.5154,-1.4468,-1.3555,-1.3121,-1.3376,-1.2044,-1.179,-1.3121,-1.3585,-1.4528,-1.6114,-1.7176,-1.8011,-1.8687,-1.9346,-1.969,-1.969,-1.969,-1.969,-1.969,-1.969,-1.969,-1.969,-1.969,-1.969,-1.9711,-2.0124,-2.0483,-2.0797,-2.1368,-2.2375,-2.3418,-2.3119,-2.3588,-2.4307,-0.8857,-1.099,-1.2881,-1.2881,-1.2881,-1.2881,-1.2881,-1.2881,-1.2881,-1.2881,-1.2881,-1.2881,-1.2881,-1.2881,-1.2881,-1.2881,-1.36,-1.4422,-1.5266,-1.5511,-1.5676,-1.5864,-1.6281,-1.6522,-1.6522,-1.6132,-1.5668,-1.5155,-1.4088,-1.3055,-1.2046,-1.2087,-1.2698,-1.3692,-1.43,-1.5004,-1.5706,-1.5869,-1.6158,-1.6522,-1.6522,-1.6522,-1.6522,-1.6522,-1.6522,-1.6522,-1.6522,-1.6522,-1.6522,-1.6522,-1.6522,-1.6522,-1.6522,-1.6522,-1.6522,-1.6522,-1.6522,-1.6522,-1.6522,-1.6522,-1.671,-1.7626,-1.7987,-1.8341,-1.9244,-1.9603,-1.969,-1.969,-1.969,-1.969,-1.969,-1.9301,-1.9076,-1.9346,-1.9166,-1.8627,-1.7548,-1.7578,-1.7236,-1.5963,-1.5634,-1.5409,-1.5111,-1.4124,-1.375,-1.4333,-1.2718,-1.2179,-1.334,-1.384,-1.4707,-1.6009,-1.7326,-1.8238,-1.8702,-1.9346,-1.969,-1.969,-1.969,-1.969,-1.969,-1.969,-1.969,-1.969,-1.969,-1.969,-1.9747,-2.0296,-2.0682,-2.1055,-2.1598,-2.2564,-2.3654,-2.3347,-2.3723,-2.4348,-0.9061,-1.099,-1.2881,-1.2881,-1.2881,-1.2881,-1.2881,-1.2881,-1.2881,-1.2881,-1.2881,-1.2881,-1.2881,-1.2881,-1.2881,-1.2881,-1.3978,-1.4846,-1.5266,-1.5511,-1.5864,-1.6466,-1.6522,-1.6522,-1.6522,-1.6509,-1.6233,-1.568,-1.5668,-1.5103,-1.406,-1.406,-1.4072,-1.4135,-1.5191,-1.568,-1.5731,-1.6283,-1.6509,-1.6522,-1.6522,-1.6522,-1.6522,-1.6522,-1.6522,-1.6522,-1.6522,-1.6522,-1.6522,-1.6522,-1.6522,-1.6522,-1.6522,-1.6522,-1.6522,-1.6522,-1.6522,-1.6522,-1.6522,-1.6522,-1.6637,-1.7146,-1.7706,-1.8263,-1.8779,-1.9332,-1.969,-1.969,-1.969,-1.969,-1.969,-1.9675,-1.9465,-1.8822,-1.9256,-1.8986,-1.6995,-1.7279,-1.7236,-1.5963,-1.5229,-1.5052,-1.5724,-1.3985,-1.364,-1.5634,-1.4528,-1.4064,-1.4737,-1.4767,-1.5381,-1.6652,-1.7981,-1.8687,-1.8702,-1.9346,-1.969,-1.969,-1.969,-1.969,-1.969,-1.969,-1.969,-1.969,-1.969,-1.969,-1.9747,-2.0632,-2.0991,-2.1103,-2.1945,-2.2859,-2.372,-2.3671,-2.3971,-2.4389,-1.1701,-1.2314,-1.2881,-1.2881,-1.2881,-1.2881,-1.2881,-1.2881,-1.2881,-1.2881,-1.2881,-1.3525,-1.5152,-1.3884,-1.3104,-1.3647,-1.434,-1.5107,-1.6064,-1.6194,-1.6281,-1.6479,-1.6522,-1.6522,-1.6522,-1.6522,-1.6434,-1.6258,-1.5881,-1.5517,-1.5205,-1.5205,-1.5379,-1.5743,-1.6095,-1.6258,-1.6271,-1.6446,-1.6522,-1.6522,-1.6522,-1.6522,-1.6522,-1.6522,-1.6522,-1.6522,-1.6522,-1.6522,-1.6522,-1.6522,-1.6522,-1.6522,-1.6522,-1.6522,-1.6522,-1.6522,-1.6522,-1.6522,-1.6522,-1.6522,-1.6637,-1.7146,-1.7706,-1.8263,-1.8779,-1.9332,-1.969,-1.969,-1.969,-1.969,-1.969,-1.969,-1.9615,-1.9405,-1.9555,-1.9151,-1.7593,-1.7563,-1.7236,-1.5963,-1.5619,-1.5574,-1.5784,-1.5229,-1.5109,-1.5754,-1.4989,-1.4573,-1.4782,-1.5606,-1.6084,-1.6084,-1.779,-1.8702,-1.8702,-1.9346,-1.969,-1.969,-1.969,-1.969,-1.969,-1.969,-1.969,-1.969,-1.969,-1.969,-1.9747,-2.0296,-2.0715,-2.1103,-2.2172,-2.3276,-2.4242,-2.4381,-2.4661,-2.4894,-1.2881,-1.2881,-1.2881,-1.2881,-1.2881,-1.2881,-1.2881,-1.2881,-1.2881,-1.2881,-1.2881,-1.3847,-1.625,-1.5152,-1.434,-1.4514,-1.4652,-1.5107,-1.6095,-1.6151,-1.6238,-1.6479,-1.6522,-1.6522,-1.6522,-1.6522,-1.6522,-1.6522,-1.617,-1.6007,-1.6007,-1.6007,-1.6183,-1.6522,-1.6522,-1.6522,-1.6522,-1.6522,-1.6522,-1.6522,-1.6522,-1.6522,-1.6522,-1.6522,-1.6522,-1.6522,-1.6522,-1.6522,-1.6522,-1.6522,-1.6522,-1.6522,-1.6522,-1.6522,-1.6522,-1.6522,-1.6522,-1.6522,-1.6522,-1.6522,-1.6595,-1.6909,-1.7544,-1.8302,-1.9043,-1.9442,-1.969,-1.969,-1.969,-1.969,-1.969,-1.969,-1.969,-1.969,-1.948,-1.8942,-1.7832,-1.7473,-1.7025,-1.6234,-1.6144,-1.6234,-1.6488,-1.6503,-1.6608,-1.6878,-1.6488,-1.6263,-1.6263,-1.6532,-1.6756,-1.6908,-1.8298,-1.9076,-1.9076,-1.948,-1.969,-1.969,-1.969,-1.969,-1.969,-1.969,-1.969,-1.969,-1.969,-1.969,-1.9711,-2.0124,-2.0583,-2.1087,-2.2261,-2.3318,-2.4275,-2.488,-2.5017,-2.4855,-1.2881,-1.2881,-1.2881,-1.2881,-1.2881,-1.2881,-1.2881,-1.2881,-1.2881,-1.2881,-1.3065,-1.4025,-1.625,-1.6522,-1.6207,-1.5445,-1.4983,-1.5017,-1.5632,-1.5676,-1.5908,-1.6479,-1.6522,-1.6522,-1.6522,-1.6522,-1.6522,-1.6522,-1.6522,-1.6522,-1.6522,-1.6522,-1.6522,-1.6522,-1.6522,-1.6522,-1.6522,-1.6522,-1.6522,-1.6522,-1.6522,-1.6522,-1.6522,-1.6522,-1.6522,-1.6522,-1.6522,-1.6522,-1.6522,-1.6522,-1.6522,-1.6522,-1.6522,-1.6522,-1.6522,-1.6522,-1.6522,-1.6522,-1.6522,-1.6522,-1.6522,-1.6522,-1.7312,-1.838,-1.9442,-1.969,-1.969,-1.969,-1.969,-1.969,-1.969,-1.969,-1.969,-1.969,-1.9136,-1.8478,-1.7787,-1.716,-1.6756,-1.6712,-1.6756,-1.701,-1.7637,-1.7727,-1.7996,-1.8597,-1.8672,-1.8702,-1.8702,-1.7518,-1.7413,-1.8672,-1.9346,-1.969,-1.969,-1.969,-1.969,-1.969,-1.969,-1.969,-1.969,-1.969,-1.969,-1.969,-1.969,-1.969,-1.9726,-2.0135,-2.0628,-2.1199,-2.236,-2.3243,-2.3984,-2.521,-2.5173,-2.4511,-1.2881,-1.2881,-1.2881,-1.2881,-1.2881,-1.2881,-1.2881,-1.2881,-1.2881,-1.2881,-1.4525,-1.5888,-1.6436,-1.6522,-1.6423,-1.625,-1.5688,-1.5644,-1.6238,-1.6281,-1.6337,-1.6466,-1.6522,-1.6522,-1.6522,-1.6522,-1.6522,-1.6522,-1.6522,-1.6522,-1.6522,-1.6522,-1.6522,-1.6522,-1.6522,-1.6522,-1.6522,-1.6522,-1.6522,-1.6522,-1.6522,-1.6522,-1.6522,-1.6522,-1.6522,-1.6522,-1.6522,-1.6522,-1.6522,-1.6522,-1.6522,-1.6522,-1.6522,-1.6522,-1.6522,-1.6522,-1.6522,-1.6522,-1.6522,-1.6522,-1.6522,-1.6522,-1.7312,-1.838,-1.9442,-1.969,-1.969,-1.969,-1.969,-1.969,-1.969,-1.969,-1.969,-1.969,-1.9136,-1.8478,-1.7787,-1.7548,-1.7279,-1.6771,-1.716,-1.7518,-1.7667,-1.8179,-1.8328,-1.7951,-1.8418,-1.8702,-1.8702,-1.8403,-1.8388,-1.8687,-1.9346,-1.969,-1.969,-1.969,-1.969,-1.969,-1.969,-1.969,-1.969,-1.969,-1.969,-1.969,-1.969,-1.969,-1.9756,-2.0354,-2.1084,-2.1969,-2.3326,-2.4377,-2.5244,-2.6134,-2.5815,-2.5028,-1.2881,-1.2881,-1.3248,-1.434,-1.361,-1.2881,-1.2881,-1.3836,-1.4571,-1.4571,-1.57,-1.6522,-1.6522,-1.6522,-1.6522,-1.6522,-1.6194,-1.6139,-1.6466,-1.6522,-1.6522,-1.6522,-1.6522,-1.6522,-1.6522,-1.6522,-1.6522,-1.6522,-1.6522,-1.6522,-1.6522,-1.6522,-1.6522,-1.6522,-1.6522,-1.6522,-1.6522,-1.6522,-1.6522,-1.6522,-1.6522,-1.6522,-1.6522,-1.6522,-1.6522,-1.6522,-1.6522,-1.6522,-1.6522,-1.6522,-1.6522,-1.6522,-1.6522,-1.6522,-1.6522,-1.6522,-1.6522,-1.6522,-1.6522,-1.6522,-1.6637,-1.7118,-1.7867,-1.8688,-1.953,-1.969,-1.969,-1.969,-1.969,-1.969,-1.969,-1.969,-1.969,-1.969,-1.9136,-1.8583,-1.8223,-1.7876,-1.7667,-1.7608,-1.7921,-1.8283,-1.8583,-1.8942,-1.9001,-1.8642,-1.8957,-1.9151,-1.9151,-1.9151,-1.9151,-1.9151,-1.9495,-1.969,-1.969,-1.969,-1.969,-1.969,-1.969,-1.969,-1.969,-1.969,-1.969,-1.969,-1.969,-1.969,-1.9771,-2.0704,-2.1475,-2.226,-2.3918,-2.4977,-2.5693,-2.642,-2.6052,-2.5221,-1.2881,-1.2881,-1.3658,-1.6064,-1.4789,-1.3344,-1.2978,-1.4926,-1.6522,-1.6522,-1.6522,-1.6522,-1.6522,-1.6522,-1.6522,-1.6522,-1.6522,-1.6522,-1.6522,-1.6522,-1.6522,-1.6522,-1.6522,-1.6522,-1.6522,-1.6522,-1.6522,-1.6522,-1.6522,-1.6522,-1.6522,-1.6522,-1.6522,-1.6522,-1.6522,-1.6522,-1.6522,-1.6609,-1.6647,-1.666,-1.6735,-1.6773,-1.6773,-1.6773,-1.6773,-1.6773,-1.6773,-1.6773,-1.6773,-1.6773,-1.6773,-1.676,-1.6672,-1.6647,-1.6635,-1.6547,-1.6522,-1.6522,-1.6522,-1.6552,-1.6879,-1.7867,-1.8496,-1.9043,-1.9566,-1.969,-1.969,-1.969,-1.969,-1.969,-1.969,-1.969,-1.969,-1.969,-1.9136,-1.8702,-1.8702,-1.8223,-1.8041,-1.8642,-1.8792,-1.9076,-1.963,-1.969,-1.969,-1.969,-1.969,-1.969,-1.969,-1.969,-1.969,-1.969,-1.969,-1.969,-1.969,-1.969,-1.969,-1.969,-1.969,-1.969,-1.969,-1.969,-1.969,-1.969,-1.969,-1.9711,-1.9878,-2.1121,-2.1913,-2.2571,-2.441,-2.5414,-2.5845,-2.6387,-2.6016,-2.5182,-1.2881,-1.2881,-1.3658,-1.6064,-1.6194,-1.5242,-1.32,-1.4926,-1.6522,-1.6522,-1.6522,-1.6522,-1.6522,-1.6522,-1.6522,-1.6522,-1.6522,-1.6522,-1.6522,-1.6522,-1.6522,-1.6522,-1.6522,-1.6522,-1.6522,-1.6522,-1.6522,-1.6522,-1.6522,-1.6522,-1.6522,-1.6522,-1.6522,-1.6522,-1.6522,-1.6522,-1.6547,-1.7036,-1.725,-1.7287,-1.7752,-1.794,-1.794,-1.794,-1.794,-1.794,-1.794,-1.794,-1.794,-1.794,-1.794,-1.7865,-1.7388,-1.725,-1.7149,-1.666,-1.6522,-1.6522,-1.6522,-1.6837,-1.7312,-1.7947,-1.8496,-1.9043,-1.9566,-1.969,-1.969,-1.969,-1.969,-1.969,-1.969,-1.969,-1.969,-1.969,-1.9136,-1.8702,-1.8702,-1.8612,-1.8583,-1.8687,-1.9196,-1.957,-1.9675,-1.969,-1.969,-1.969,-1.969,-1.969,-1.969,-1.969,-1.969,-1.969,-1.969,-1.969,-1.969,-1.969,-1.969,-1.969,-1.969,-1.969,-1.969,-1.969,-1.969,-1.969,-1.969,-1.9909,-2.0304,-2.1678,-2.2802,-2.377,-2.5271,-2.613,-2.6505,-2.6212,-2.5726,-2.5144,-1.2881,-1.2881,-1.3248,-1.4387,-1.5656,-1.6107,-1.5017,-1.5788,-1.6522,-1.6522,-1.6522,-1.6522,-1.6522,-1.7576,-1.8053,-1.7476,-1.7237,-1.72,-1.7413,-1.6861,-1.6522,-1.6522,-1.6823,-1.7124,-1.7426,-1.7137,-1.7137,-1.7426,-1.7426,-1.7426,-1.7426,-1.7124,-1.6986,-1.6986,-1.6986,-1.6986,-1.7024,-1.7589,-1.7827,-1.7852,-1.8103,-1.8204,-1.8204,-1.8204,-1.8204,-1.8204,-1.8204,-1.8204,-1.8204,-1.8204,-1.8204,-1.8166,-1.7903,-1.7827,-1.7777,-1.7501,-1.7206,-1.6909,-1.6909,-1.7544,-1.8224,-1.8458,-1.893,-1.9406,-1.9639,-1.969,-1.969,-1.969,-1.969,-1.969,-1.969,-1.969,-1.969,-1.969,-1.9435,-1.9226,-1.9226,-1.9226,-1.9226,-1.9226,-1.9495,-1.969,-1.969,-1.969,-1.969,-1.969,-1.969,-1.969,-1.969,-1.969,-1.969,-1.969,-1.969,-1.969,-1.969,-1.969,-1.969,-1.969,-1.969,-1.969,-1.969,-1.969,-1.969,-1.969,-1.969,-1.9945,-2.0392,-2.1701,-2.2889,-2.4017,-2.5279,-2.6168,-2.6657,-2.6191,-2.5652,-2.5182,-1.2881,-1.2881,-1.2881,-1.2881,-1.4892,-1.6522,-1.6522,-1.6522,-1.6697,-1.7212,-1.6835,-1.671,-1.7225,-1.8794,-1.9472,-1.8643,-1.8141,-1.7965,-1.8191,-1.7388,-1.6911,-1.6911,-1.7338,-1.7765,-1.8191,-1.779,-1.7777,-1.8204,-1.8204,-1.8204,-1.8191,-1.7765,-1.7576,-1.7576,-1.7576,-1.7576,-1.7614,-1.8166,-1.8392,-1.8405,-1.853,-1.8581,-1.8581,-1.8581,-1.8581,-1.8581,-1.8581,-1.8581,-1.8581,-1.8581,-1.8581,-1.8555,-1.8442,-1.8392,-1.8367,-1.8242,-1.8048,-1.7851,-1.7543,-1.8185,-1.8893,-1.8893,-1.9281,-1.969,-1.969,-1.969,-1.969,-1.969,-1.969,-1.969,-1.969,-1.969,-1.969,-1.969,-1.969,-1.969,-1.969,-1.969,-1.969,-1.969,-1.969,-1.969,-1.969,-1.969,-1.969,-1.969,-1.969,-1.969,-1.969,-1.969,-1.969,-1.969,-1.969,-1.969,-1.969,-1.969,-1.969,-1.969,-1.969,-1.969,-1.969,-1.969,-1.969,-1.969,-1.969,-1.998,-2.0545,-2.166,-2.2867,-2.4131,-2.5176,-2.6048,-2.6657,-2.6191,-2.5652,-2.5182,-1.2881,-1.2881,-1.2881,-1.2881,-1.4892,-1.6522,-1.6522,-1.6522,-1.725,-1.9296,-1.7777,-1.7287,-1.9334,-1.9698,-1.9773,-1.9698,-1.9032,-1.8505,-1.8229,-1.8129,-1.8078,-1.8078,-1.8129,-1.8166,-1.8204,-1.8166,-1.8166,-1.8204,-1.8204,-1.8204,-1.8204,-1.8166,-1.8141,-1.8141,-1.8141,-1.8141,-1.8179,-1.8731,-1.892,-1.8958,-1.9484,-1.9685,-1.9685,-1.9685,-1.9685,-1.9685,-1.9685,-1.9685,-1.9685,-1.9685,-1.9685,-1.9597,-1.912,-1.892,-1.8869,-1.8355,-1.891,-1.9472,-1.8356,-1.8458,-1.8893,-1.8893,-1.9281,-1.969,-1.969,-1.969,-1.969,-1.969,-1.969,-1.969,-1.969,-1.969,-1.969,-1.969,-1.969,-1.969,-1.969,-1.969,-1.969,-1.969,-1.969,-1.969,-1.969,-1.969,-1.969,-1.969,-1.969,-1.969,-1.969,-1.969,-1.969,-1.969,-1.969,-1.969,-1.969,-1.969,-1.969,-1.969,-1.969,-1.969,-1.969,-1.969,-1.969,-1.969,-1.969,-2.0174,-2.1023,-2.176,-2.3014,-2.4529,-2.5321,-2.6048,-2.6657,-2.6191,-2.5652,-2.5144,-1.2881,-1.4118,-1.5107,-1.5107,-1.7011,-1.8555,-1.8555,-1.8555,-1.8857,-1.9698,-1.9083,-1.8882,-1.971,-1.9798,-1.9798,-1.9798,-1.9547,-1.9334,-1.9208,-1.9196,-1.9045,-1.8731,-1.8392,-1.8518,-1.9183,-1.8882,-1.8869,-1.9196,-1.9196,-1.9196,-1.9183,-1.8869,-1.8719,-1.8719,-1.8719,-1.8719,-1.8744,-1.9284,-1.951,-1.9522,-1.9723,-1.9798,-1.9798,-1.9798,-1.9798,-1.9798,-1.9798,-1.9798,-1.9798,-1.9798,-1.9798,-1.9761,-1.9572,-1.951,-1.9547,-1.9732,-2.036,-2.0841,-1.9962,-1.9874,-1.9937,-1.9509,-1.9566,-1.969,-1.969,-1.969,-1.969,-1.969,-1.969,-1.969,-1.969,-1.969,-1.969,-1.969,-1.969,-1.969,-1.969,-1.969,-1.969,-1.969,-1.969,-1.969,-1.969,-1.969,-1.969,-1.969,-1.969,-1.969,-1.969,-1.969,-1.969,-1.969,-1.969,-1.969,-1.969,-1.969,-1.969,-1.969,-1.969,-1.969,-1.969,-1.969,-1.969,-1.9711,-1.9965,-2.0431,-2.1055,-2.1567,-2.2841,-2.454,-2.4797,-2.5642,-2.6657,-2.6191,-2.5888,-2.5615,-1.4782,-1.6397,-1.7551,-1.7551,-1.8794,-1.9798,-1.9798,-1.9798,-1.9798,-1.9798,-1.9798,-1.9798,-1.9798,-1.9798,-1.9798,-1.9798,-1.9798,-1.9798,-1.9798,-1.9798,-1.9648,-1.9284,-1.8907,-1.9058,-1.9786,-1.9447,-1.9447,-1.9798,-1.9798,-1.9798,-1.9798,-1.9434,-1.9271,-1.9271,-1.9271,-1.9271,-1.9296,-1.9648,-1.9798,-1.9798,-1.9798,-1.9798,-1.9798,-1.9798,-1.9798,-1.9798,-1.9798,-1.9798,-1.9798,-1.9798,-1.9798,-1.985,-2.0055,-2.0232,-2.0542,-2.1194,-2.169,-2.1917,-2.1461,-2.1171,-2.0812,-1.9914,-1.969,-1.969,-1.969,-1.969,-1.969,-1.969,-1.969,-1.969,-1.969,-1.969,-1.969,-1.969,-1.969,-1.969,-1.969,-1.969,-1.969,-1.969,-1.969,-1.969,-1.969,-1.969,-1.969,-1.969,-1.969,-1.969,-1.969,-1.969,-1.969,-1.969,-1.969,-1.969,-1.969,-1.969,-1.969,-1.969,-1.969,-1.969,-1.969,-1.969,-1.969,-1.9726,-2.0,-2.0465,-2.1023,-2.1306,-2.264,-2.4506,-2.4506,-2.5308,-2.6436,-2.612,-2.5779,-2.5449,-1.8839,-1.9747,-1.9747,-1.9798,-1.9798,-1.9798,-1.9798,-1.9798,-1.9798,-1.9798,-1.9798,-1.9798,-1.9798,-1.9798,-1.9798,-1.9798,-1.9798,-1.9798,-1.9798,-1.9798,-1.9798,-1.9798,-1.9798,-1.9798,-1.9798,-1.9798,-1.9798,-1.9798,-1.9798,-1.9798,-1.9798,-1.9798,-1.9798,-1.9798,-1.9798,-1.9798,-1.9798,-1.9798,-1.9798,-1.9798,-1.9798,-1.9798,-1.9798,-1.9798,-1.9798,-1.9798,-1.9798,-1.9798,-1.9798,-1.9798,-1.9798,-1.9901,-2.0597,-2.121,-2.1852,-2.2498,-2.2694,-2.27,-2.2721,-2.2203,-2.138,-2.0034,-1.969,-1.969,-1.969,-1.969,-1.969,-1.969,-1.969,-1.969,-1.969,-1.969,-1.969,-1.969,-1.969,-1.969,-1.969,-1.969,-1.969,-1.969,-1.969,-1.969,-1.969,-1.969,-1.969,-1.969,-1.969,-1.969,-1.969,-1.969,-1.969,-1.969,-1.969,-1.969,-1.969,-1.969,-1.969,-1.969,-1.969,-1.969,-1.969,-1.969,-1.969,-1.969,-1.9711,-2.0208,-2.0991,-2.0991,-2.2391,-2.4475,-2.4475,-2.5112,-2.5997,-2.5997,-2.5335,-2.4389,-1.6332,-1.6733,-1.739,-1.9411,-1.9798,-1.9798,-1.9798,-1.9798,-1.9798,-1.9798,-1.9798,-1.9798,-1.9798,-1.9798,-1.9798,-1.9798,-1.9798,-1.9798,-1.9798,-1.9798,-1.9798,-1.9798,-1.9798,-1.9798,-1.9798,-1.9798,-1.9798,-1.9798,-1.9798,-1.9798,-1.9798,-1.9798,-1.9798,-1.9798,-1.9798,-1.9798,-1.9798,-1.9798,-1.9798,-1.9798,-1.9798,-1.9798,-1.9798,-1.9798,-1.9798,-1.9798,-1.9798,-2.0105,-2.0497,-2.0497,-2.0497,-2.056,-2.0759,-2.1561,-2.2452,-2.2649,-2.3009,-2.3244,-2.2805,-2.2532,-2.2069,-2.0737,-2.0049,-1.969,-1.969,-1.969,-1.969,-1.969,-1.969,-1.969,-1.969,-1.969,-1.969,-1.969,-1.969,-1.969,-1.969,-1.969,-1.969,-1.969,-1.969,-1.969,-1.969,-1.969,-1.969,-1.969,-1.969,-1.969,-1.969,-1.969,-1.969,-1.969,-1.969,-1.969,-1.969,-1.969,-1.969,-1.969,-1.969,-1.969,-1.969,-1.969,-1.969,-1.9726,-2.0,-2.0465,-2.0991,-2.0991,-2.2183,-2.3901,-2.362,-2.4311,-2.5449,-2.5449,-2.5259,-2.495,-1.5312,-1.6348,-1.772,-1.9475,-1.9798,-1.9798,-1.9798,-1.9798,-1.9798,-1.9798,-1.9798,-1.9798,-1.9798,-1.9798,-1.9798,-1.9798,-1.9798,-1.9798,-1.9798,-1.9798,-1.9798,-1.9798,-1.9798,-1.9798,-1.9798,-1.9798,-1.9798,-1.9798,-1.9798,-1.9798,-1.9798,-1.9798,-1.9798,-1.9798,-1.9798,-1.9798,-1.9798,-1.9798,-1.9798,-1.9798,-1.9798,-1.9798,-1.9798,-1.9798,-1.9798,-1.9798,-1.9798,-2.0055,-2.0396,-2.0396,-2.0733,-2.1161,-2.1161,-2.2021,-2.3054,-2.3054,-2.3334,-2.352,-2.3146,-2.2862,-2.2529,-2.168,-2.0782,-2.0019,-1.975,-1.969,-1.969,-1.969,-1.969,-1.969,-1.969,-1.969,-1.969,-1.969,-1.969,-1.969,-1.969,-1.969,-1.969,-1.969,-1.969,-1.969,-1.969,-1.969,-1.969,-1.969,-1.969,-1.969,-1.969,-1.969,-1.969,-1.969,-1.969,-1.969,-1.969,-1.969,-1.969,-1.969,-1.969,-1.969,-1.969,-1.969,-1.969,-1.9711,-1.9965,-2.033,-2.0715,-2.0715,-2.1939,-2.3753,-2.35,-2.4256,-2.5486,-2.5297,-2.5067,-2.4855,-1.5738,-1.7938,-1.9798,-1.9798,-1.9798,-1.9798,-1.9798,-1.9798,-1.9798,-1.9798,-1.9798,-1.9798,-1.9798,-1.9798,-1.9798,-1.9798,-1.9798,-1.9798,-1.9798,-1.9798,-1.9798,-1.9798,-1.9798,-1.9798,-1.9798,-1.9798,-1.9798,-1.9798,-1.9798,-1.9798,-1.9798,-1.9798,-1.9798,-1.9798,-1.9798,-1.9798,-1.9798,-1.9798,-1.9798,-1.9798,-1.9798,-1.9798,-1.9798,-1.9798,-1.985,-1.9901,-1.9901,-1.9952,-2.0042,-2.0042,-2.0855,-2.1838,-2.1805,-2.2606,-2.3595,-2.3595,-2.3595,-2.3595,-2.3595,-2.3191,-2.2783,-2.2724,-2.1784,-2.0692,-1.9944,-1.9735,-1.969,-1.969,-1.969,-1.969,-1.969,-1.969,-1.969,-1.969,-1.969,-1.969,-1.969,-1.969,-1.969,-1.969,-1.969,-1.969,-1.969,-1.969,-1.969,-1.969,-1.969,-1.969,-1.969,-1.969,-1.969,-1.969,-1.969,-1.969,-1.969,-1.969,-1.969,-1.969,-1.969,-1.969,-1.969,-1.969,-1.969,-1.969,-1.969,-1.9975,-2.0392,-2.0277,-2.1686,-2.3901,-2.3802,-2.464,-2.5888,-2.5373,-2.491,-2.4389,-1.837,-1.9359,-1.9798,-1.9798,-1.9798,-1.9798,-1.9798,-1.9798,-1.9798,-1.9798,-1.9798,-1.9798,-1.9798,-1.9798,-1.9798,-1.9798,-1.9798,-1.9798,-1.9798,-1.9798,-1.9798,-1.9798,-1.9798,-1.9798,-1.9798,-1.9798,-1.9798,-1.9798,-1.9798,-1.9798,-1.9798,-1.9798,-1.9798,-1.9798,-1.9798,-1.9798,-1.9798,-1.9798,-1.9798,-1.9798,-1.9798,-1.9798,-1.9798,-1.9798,-2.0156,-2.0597,-2.0597,-2.121,-2.2067,-2.2067,-2.2575,-2.3128,-2.2634,-2.3009,-2.3595,-2.3595,-2.3595,-2.3595,-2.3595,-2.3505,-2.3281,-2.2843,-2.2458,-2.1934,-2.0767,-2.0079,-1.969,-1.969,-1.969,-1.969,-1.969,-1.969,-1.969,-1.969,-1.969,-1.969,-1.969,-1.969,-1.969,-1.969,-1.969,-1.969,-1.969,-1.969,-1.969,-1.969,-1.969,-1.969,-1.969,-1.969,-1.969,-1.969,-1.969,-1.969,-1.969,-1.969,-1.969,-1.969,-1.969,-1.969,-1.969,-1.969,-1.969,-1.969,-1.969,-2.0233,-2.1038,-2.0193,-2.1497,-2.3959,-2.3059,-2.3787,-2.5373,-2.5259,-2.5144,-2.5012,-1.8845,-1.9488,-1.9798,-1.9798,-1.9798,-1.9798,-1.9798,-1.9798,-1.9798,-1.9798,-1.9798,-1.9798,-1.9798,-1.9798,-1.9798,-1.9798,-1.9798,-1.9798,-1.9798,-1.9798,-1.9798,-1.9798,-1.9798,-1.9798,-1.9798,-1.9798,-1.9798,-1.9798,-1.9798,-1.9798,-1.9798,-1.9798,-1.9798,-1.9798,-1.9798,-1.9798,-1.9798,-1.9798,-1.9798,-1.9798,-1.9798,-2.0003,-2.0308,-2.0308,-2.0683,-2.1245,-2.1245,-2.1677,-2.2193,-2.2193,-2.2634,-2.3113,-2.2785,-2.3098,-2.3595,-2.3595,-2.3595,-2.3595,-2.3595,-2.3595,-2.352,-2.3191,-2.2892,-2.2413,-2.141,-2.0662,-2.0183,-2.0183,-1.9914,-1.969,-1.969,-1.969,-1.969,-1.969,-1.969,-1.969,-1.969,-1.969,-1.969,-1.969,-1.969,-1.969,-1.969,-1.969,-1.969,-1.969,-1.969,-1.969,-1.969,-1.969,-1.969,-1.969,-1.969,-1.969,-1.969,-1.969,-1.969,-1.969,-1.969,-1.969,-1.969,-1.969,-1.969,-1.969,-1.969,-2.0195,-2.0938,-2.0053,-2.1314,-2.3689,-2.3033,-2.375,-2.5221,-2.5486,-2.5411,-2.5221,-1.8578,-1.9279,-1.9798,-1.9798,-1.9798,-1.9798,-1.9798,-1.9798,-1.9798,-1.9798,-1.9798,-1.9798,-1.9798,-1.9798,-1.9798,-1.9798,-1.9798,-1.9798,-1.9798,-1.9798,-1.9798,-1.9798,-1.9798,-1.9798,-1.9798,-1.9798,-1.9798,-1.9798,-1.9798,-1.9798,-1.9798,-1.9798,-1.9798,-1.9798,-1.9798,-1.9798,-1.9798,-1.9798,-1.9798,-1.9798,-1.9798,-2.0156,-2.0646,-2.0746,-2.1161,-2.171,-2.1852,-2.1946,-2.2025,-2.2025,-2.2377,-2.283,-2.283,-2.3201,-2.3595,-2.3595,-2.3595,-2.3595,-2.3595,-2.3595,-2.3595,-2.3595,-2.3206,-2.2697,-2.2143,-2.144,-2.0887,-2.0887,-2.0348,-1.9854,-1.9854,-1.9765,-1.969,-1.969,-1.969,-1.969,-1.969,-1.969,-1.969,-1.969,-1.969,-1.969,-1.969,-1.969,-1.969,-1.969,-1.969,-1.969,-1.969,-1.969,-1.969,-1.969,-1.969,-1.969,-1.969,-1.9782,-1.9818,-1.9803,-1.9874,-1.9854,-1.969,-1.969,-1.969,-1.969,-1.969,-2.0079,-2.0662,-1.9974,-2.109,-2.3227,-2.3095,-2.3871,-2.5099,-2.5766,-2.5762,-2.5433,-1.9267,-1.9695,-1.9798,-1.9798,-1.9798,-1.9798,-1.9798,-1.9798,-1.9798,-1.9798,-1.9798,-1.9798,-1.9798,-1.9798,-1.9798,-1.9798,-1.9798,-1.9798,-1.9798,-1.9798,-1.9798,-1.9798,-1.9798,-1.9798,-1.9798,-1.9798,-1.9798,-1.9798,-1.9798,-1.9798,-1.9798,-1.9798,-1.9798,-1.9798,-1.9798,-1.9798,-1.9798,-1.9798,-1.9798,-1.9798,-1.9798,-1.985,-2.0003,-2.0597,-2.1161,-2.1805,-2.2346,-2.2905,-2.3363,-2.3363,-2.3406,-2.3465,-2.3465,-2.3551,-2.3595,-2.3595,-2.3595,-2.3595,-2.3595,-2.3595,-2.3595,-2.3595,-2.3535,-2.3445,-2.3355,-2.2413,-2.156,-2.156,-2.1036,-2.0572,-2.0572,-2.0094,-1.969,-1.969,-1.969,-1.969,-1.969,-1.969,-1.969,-1.969,-1.969,-1.969,-1.969,-1.969,-1.969,-1.969,-1.969,-1.969,-1.969,-1.969,-1.969,-1.969,-1.969,-1.969,-1.969,-2.007,-2.0212,-2.0212,-2.0632,-2.0447,-1.969,-1.969,-1.969,-1.969,-1.969,-2.0079,-2.0662,-1.9974,-2.0816,-2.2521,-2.2502,-2.3275,-2.4462,-2.5586,-2.6227,-2.6436,-1.8939,-1.9527,-1.9798,-1.9798,-1.9798,-1.9798,-1.9798,-1.9798,-1.9798,-1.9798,-1.9798,-1.9798,-1.9798,-1.9798,-1.9798,-1.9798,-1.9798,-1.9798,-1.9798,-1.9798,-1.9798,-1.9798,-1.9798,-1.9798,-1.9798,-1.9798,-1.9798,-1.9798,-1.9798,-1.9798,-1.9798,-1.9798,-1.9798,-1.9798,-1.9798,-1.9798,-1.9798,-1.9798,-1.9798,-1.9823,-2.0162,-2.0772,-2.1459,-2.1722,-2.2442,-2.3293,-2.323,-2.3377,-2.3595,-2.3595,-2.3595,-2.3595,-2.3595,-2.3595,-2.3595,-2.3595,-2.3595,-2.3595,-2.3595,-2.3595,-2.3595,-2.3595,-2.3595,-2.3595,-2.3595,-2.3161,-2.2667,-2.2323,-2.1425,-2.0722,-2.0722,-2.0154,-1.969,-1.969,-1.969,-1.969,-1.969,-1.969,-1.969,-1.969,-1.969,-1.969,-1.969,-1.969,-1.969,-1.969,-1.969,-1.969,-1.969,-1.969,-1.9818,-2.0035,-2.0035,-2.0174,-2.0413,-2.0599,-2.0682,-2.0682,-2.0894,-2.0665,-2.0035,-2.0035,-1.9909,-1.969,-1.969,-2.0079,-2.0662,-1.9974,-2.0734,-2.2375,-2.2728,-2.3958,-2.5622,-2.5917,-2.6297,-2.6657]},{"header":{"parameterUnit":"m.s-1","parameterCategory":1,"la1":30.6,"la2":28.766,"lo1":-90.7593,"lo2":-88.6598,"dy":0.0162,"dx":0.0183,"nx":116,"ny":114,"refTime":"2024-06-27T06:00:00:Z","depth":0,"parameterNumber":3,"parameterNumberName":"V-component_of_WINDS"},"data":[0.0,0.0,0.0,0.0,0.0,0.0,0.0,0.0,0.0,0.0,0.0,0.0,0.0,0.0,0.0,0.0,0.0,0.0,0.0,0.0,0.0,0.0,0.0,0.0,0.0,0.0,0.0,0.0,0.0,0.0,0.0,0.0,0.0,0.0,0.0,0.0,0.0,0.0,0.0,0.0,0.0,0.0,0.0,0.0,0.0,0.0,0.0,0.0,0.0,0.0,0.0,0.0,0.0,0.0,0.0,0.0,0.0,0.0,0.0,0.0,0.0,0.0,0.0,0.0,0.0,0.0,0.0,0.0,0.0,0.0,0.0,0.0,0.0,0.0,0.0,0.0,0.0,0.0,0.0,0.0,0.0,0.0,0.0,0.0,0.0,0.0,0.0,0.0,0.0,0.0,0.0,0.0,0.0,0.0,0.0,0.0,0.0,0.0,0.0,0.0,0.0,0.0,0.0,0.0,0.0,0.0,0.0,0.0,0.0,0.0,0.0,0.0,0.0,0.0,0.0,0.0,0.0,0.0,0.0,0.0,0.0,0.0,0.0,0.0,0.0,0.0,0.0,0.0,0.0,0.0,0.0,0.0,0.0,0.0,0.0,0.0,0.0,0.0,0.0,0.0,0.0,0.0,0.0,0.0,0.0,0.0,0.0,0.0,0.0,0.0,0.0,0.0,0.0,0.0,0.0,0.0,0.0,0.0,0.0,0.0,0.0,0.0,0.0,0.0,0.0,0.0,0.0,0.0,0.0,0.0,0.0,0.0,0.0,0.0,0.0,0.0,0.0,0.0,0.0,0.0,0.0,0.0,0.0,0.0,0.0,0.0,0.0,0.0,0.0,0.0,0.0,0.0,0.0,0.0,0.0,0.0,0.0,0.0,0.0,0.0,0.0,0.0,0.0,0.0,0.0,0.0,0.0,0.0,0.0,0.0,0.0,0.0,0.0,0.0,0.0,0.0,0.0,0.0,0.0,0.0,0.0,0.0,0.0,0.0,0.0,0.0,0.0,0.0,0.0,0.0,0.0,0.0,0.0,0.0,0.0,0.0,0.0,0.0,0.0,0.0,0.0,0.0,0.0,0.0,0.0,0.0,0.0,0.0,0.0,0.0,0.0,0.0,0.0,0.0,0.0,0.0,0.0,0.0,0.0,0.0,0.0,0.0,0.0,0.0,0.0,0.0,0.0,0.0,0.0,0.0,0.0,0.0,0.0,0.0,0.0,0.0,0.0,0.0,0.0,0.0,0.0,0.0,0.0,0.0,0.0,0.0,0.0,0.0,0.0,0.0,0.0,0.0,0.0,0.0,0.0,0.0,0.0,0.0,0.0,0.0,0.0,0.0,0.0,0.0,0.0,0.0,0.0,0.0,0.0,0.0,0.0,0.0,0.0,0.0,0.0,0.0,0.0,0.0,0.0,0.0,0.0,0.0,0.0,0.0,0.0,0.0,0.0,0.0,0.0,0.0,0.0,0.0,0.0,0.0,0.0,0.0,0.0,0.0,0.0,0.0,0.0,0.0,0.0,0.0,0.0,0.0,0.0,0.0,0.0,0.0,0.0,0.0,0.0,0.0,0.0,0.0,0.0,0.0,0.0,0.0,0.0,0.0,0.0,0.0,0.0,0.0,0.0,0.0,0.0,0.0,0.0,0.0,0.0,0.0,0.0,0.0,0.0,0.0,0.0,0.0,0.0,0.0,0.0,0.0,0.0,0.0,0.0,0.0,0.0,0.0,0.0,0.0,0.0,0.0,0.0,0.0,0.0,0.0,0.0,0.0,0.0,0.0,0.0,0.0,0.0,0.0,0.0,0.0,0.0,0.0,0.0,0.0,0.0,0.0,0.0,0.0,0.0,0.0,0.0,0.0,0.0,0.0,0.0,0.0,0.0,0.0,0.0,0.0,0.0,0.0,0.0,0.0,0.0,0.0,0.0,0.0,0.0,0.0,0.0,0.0,0.0,0.0,0.0,0.0,0.0,0.0,0.0,0.0,0.0,0.0,0.0,0.0,0.0,0.0,0.0,0.0,0.0,0.0,0.0,0.0,0.0,0.0,0.0,0.0,0.0,0.0,0.0,0.0,0.0,0.0,0.0,0.0,0.0,0.0,0.0,0.0,0.0,0.0,0.0,0.0,0.0,0.0,0.0,0.0,0.0,0.0,0.0,0.0,0.0,0.0,0.0,0.0,0.0,0.0,0.0,0.0,0.0,0.0,0.0,0.0,0.0,0.0,0.0,0.0,0.0,0.0,0.0,0.0,0.0,0.0,0.0,0.0,0.0,0.0,0.0,0.0,0.0,0.0,0.0,0.0,0.0,0.0,0.0,0.0,0.0,0.0,0.0,0.0,0.0,0.0,0.0,0.0,0.0,0.0,0.0,0.0,0.0,0.0,0.0,0.0,0.0,0.0,0.0,0.0,0.0,0.0,0.0,0.0,0.0,0.0,0.0,0.0,0.0,0.0,0.0,0.0,0.0,0.0,0.0,0.0,0.0,0.0,0.0,0.0,0.0,0.0,0.0,0.0,0.0,0.0,0.0,0.0,0.0,0.0,0.0,0.0,0.0,0.0,0.0,0.0,0.0,0.0,0.0,0.0,0.0,0.0,0.0,0.0,0.0,0.0,0.0,0.0,0.0,0.0,0.0,0.0,0.0,0.0,0.0,0.0,0.0,0.0,0.0,0.0,0.0,0.0,0.0,0.0,0.0,0.0,0.0,0.0,0.0,0.0,0.0,0.0,0.0,0.0,0.0,0.0,0.0,0.0,0.0,0.0,0.0,0.0,0.0,0.0,0.0,0.0,0.0,0.0,0.0,0.0,0.0,0.0,0.0,0.0,0.0,0.0,0.0,0.0,0.0,0.0,0.0,0.0,0.0,0.0,0.0,0.0,0.0,0.0,0.0,0.0,0.0,0.0,0.0,0.0,0.0,0.0,0.0,0.0,0.0,0.0,0.0,0.0,0.0,0.0,0.0,0.0,0.0,0.0,0.0,0.0,0.0,0.0,0.0,0.0,0.0,0.0,0.0,0.0,0.0,0.0,0.0,0.0,0.0,0.0,0.0,0.0,0.0,0.0,0.0,0.0,0.0,0.0,0.0,0.0,0.0,0.0,0.0,0.0,0.0,0.0,0.0,0.0,0.0,0.0,0.0,0.0,0.0,0.0,0.0,0.0,0.0,0.0,0.0,0.0,0.0,0.0,0.0,0.0,0.0,0.0,0.0,0.0,0.0,0.0,0.0,0.0,0.0,0.0,0.0,0.0,0.0,0.0,0.0,0.0,0.0,0.0,0.0,0.0,0.0,0.0,0.0,0.0,0.0,0.0,0.0,0.0,0.0,0.0,0.0,0.0,0.0,0.0,0.0,0.0,0.0,0.0,0.0,0.0,0.0,0.0,0.0,0.0,0.0,0.0,0.0,0.0,0.0,0.0,0.0,0.0,0.0,0.0,0.0,0.0,0.0,0.0,0.0,0.0,0.0,0.0,0.0,0.0,0.0,0.0,0.0,0.0,0.0,0.0,0.0,0.0,0.0,0.0,0.0,0.0,0.0,0.0,0.0,0.0,0.0,0.0,0.0,0.0,0.0,0.0,0.0,0.0,0.0,0.0,0.0,0.0,0.0,0.0,0.0,0.0,0.0,0.0,0.0,0.0,0.0,0.0,0.0,0.0,0.0,0.0,0.0,0.0,0.0,0.0,0.0,0.0,0.0,0.0,0.0,0.0,0.0,0.0,0.0,0.0,0.0,0.0,0.0,0.0,0.0,0.0,0.0,0.0,0.0,0.0,0.0,0.0,0.0,0.0,0.0,0.0,0.0,0.0,0.0,0.0,0.0,0.0,0.0,0.0,0.0,0.0,0.0,0.0,0.0,0.0,0.0,0.0,0.0,0.0,0.0,0.0,0.0,0.0,0.0,0.0,0.0,0.0,0.0,0.0,0.0,0.0,0.0,0.0,0.0,0.0,0.0,0.0,0.0,0.0,0.0,0.0,0.0,0.0,0.0,0.0,0.0,0.0,0.0,0.0,0.0,0.0,0.0,0.0,0.0,0.0,0.0,0.0,0.0,0.0,0.0,0.0,0.0,0.0,0.0,0.0,0.0,0.0,0.0,0.0,0.0,0.0,0.0,0.0,0.0,0.0,0.0,0.0,0.0,0.0,0.0,0.0,0.0,0.0,0.0,0.0,0.0,0.0,0.0,0.0,0.0,0.0,0.0,0.0,0.0,0.0,0.0,0.0,0.0,0.0,0.0,0.0,0.0,0.0,0.0,0.0,0.0,0.0,0.0,0.0,0.0,0.0,0.0,0.0,0.0,0.0,0.0,0.0,0.0,0.0,0.0,0.0,0.0,0.0,0.0,0.0,0.0,0.0,0.0,0.0,0.0,0.0,0.0,0.0,0.0,0.0,0.0,0.0,0.0,0.0,0.0,0.0,0.0,0.0,0.0,0.0,0.0,0.0,0.0,0.0,0.0,0.0,0.0,0.0,0.0,0.0,0.0,0.0,0.0,0.0,0.0,0.0,0.0,0.0,0.0,0.0,0.0,0.0,0.0,0.0,0.0,0.0,0.0,0.0,0.0,0.0,0.0,0.0,0.0,0.0,0.0,0.0,0.0,0.0,0.0,0.0,0.0,0.0,0.0,0.0,0.0,0.0,0.0,0.0,0.0,0.0,0.0,0.0,0.0,0.0,0.0,0.0,0.0,0.0,0.0,0.0,0.0,0.0,0.0,0.0,0.0,0.0,0.0,0.0,0.0,0.0,0.0,0.0,0.0,0.0,0.0,0.0,0.0,0.0,0.0,0.0,0.0,0.0,0.0,0.0,0.0,0.0,0.0,0.0,0.0,0.0,0.0,0.0,0.0,0.0,0.0,0.0,0.0,0.0,0.0,0.0,0.0,0.0,0.0,0.0,0.0,0.0,0.0,0.0,0.0,0.0,0.0,0.0,0.0,0.0,0.0,0.0,0.0,0.0,0.0,0.0,0.0,0.0,0.0,0.0,0.0,0.0,0.0,0.0,0.0,0.0,0.0,0.0,0.0,0.0,0.0,0.0,0.0,0.0,0.0,0.0,0.0,0.0,0.0,0.0,0.0,0.0,0.0,0.0,0.0,0.0,0.0,0.0,0.0,0.0,0.0,0.0,0.0,0.0,0.0,0.0,0.0,0.0,0.0,0.0,0.0,0.0,0.0,0.0,0.0,0.0,0.0,0.0,0.0,0.0,0.0,0.0,0.0,0.0,0.0,0.0,0.0,0.0,0.0,0.0,0.0,0.0,0.0,0.0,0.0,0.0,0.0,0.0,0.0,0.0,0.0,0.0,0.0,0.0,0.0,0.0,0.0,0.0,0.0,0.0,0.0,0.0,0.0,0.0,0.0,0.0,0.0,0.0,0.0,0.0,0.0,0.0,0.0,0.0,0.0,0.0,0.0,0.0,0.0,0.0,0.0,0.0,0.0,0.0,0.0,0.0,0.0,0.0,0.0,0.0,0.0,0.0,0.0,0.0,0.0,0.0,0.0,0.0,0.0,0.0,0.0,0.0,0.0,0.0,0.0,0.0,0.0,0.0,0.0,0.0,0.0,0.0,0.0,0.0,0.0,0.0,0.0,0.0,0.0,0.0,0.0,0.0,0.0,0.0,0.0,0.0,0.0,0.0,0.0,0.0,0.0,0.0,0.0,0.0,0.0,0.0,0.0,0.0,0.0,0.0,0.0,0.0,0.0,0.0,0.0,0.0,0.0,0.0,0.0,0.0,0.0,0.0,0.0,0.0,0.0,0.0,0.0,0.0,0.0,0.0,0.0,0.0,0.0,0.0,0.0,0.0,0.0,0.0,0.0,0.0,0.0,0.0,0.0,0.0,0.0,0.0,0.0,0.0,0.0,0.0,0.0,0.0,0.0,0.0,0.0,0.0,0.0,0.0,0.0,0.0,0.0,0.0,0.0,0.0,0.0,0.0,0.0,0.0,0.0,0.0,0.0,0.0,0.0,0.0,0.0,0.0,0.0,0.0,0.0,0.0,0.0,0.0,0.0,0.0,0.0,0.0,0.0,0.0,0.0,0.0,0.0,0.0,0.0,0.0,0.0,0.0,0.0,0.0,0.0,0.0,0.0,0.0,0.0,0.0,-1.5463,-1.3652,0.0,0.0,0.0,0.0,0.0,0.0,0.0,0.0,0.0,0.0,0.0,0.0,0.0,0.0,0.0,0.0,0.0,0.0,0.0,0.0,0.0,0.0,0.0,-0.7447,-0.8373,-0.922,-0.9296,-0.9463,-0.9881,0.0,0.0,0.0,0.0,0.0,-0.8869,-0.8907,-0.915,-0.9532,-0.9591,-1.0073,-1.0933,-1.1347,-1.1104,-1.029,0.0,0.0,0.0,0.0,0.0,0.0,0.0,0.0,0.0,0.0,0.0,0.0,0.0,0.0,0.0,0.0,0.0,0.0,0.0,0.0,0.0,0.0,0.0,0.0,0.0,0.0,0.0,0.0,0.0,0.0,0.0,0.0,0.0,0.0,0.0,0.0,0.0,0.0,0.0,0.0,0.0,0.0,0.0,0.0,0.0,0.0,0.0,0.0,0.0,0.0,0.0,0.0,0.0,0.0,0.0,0.0,0.0,0.0,0.0,0.0,0.0,0.0,0.0,0.0,0.0,0.0,0.0,0.0,0.0,0.0,-1.7558,-1.5923,0.0,0.0,0.0,0.0,0.0,0.0,0.0,0.0,0.0,0.0,0.0,0.0,0.0,0.0,0.0,0.0,0.0,0.0,0.0,0.0,0.0,-0.6505,-0.6884,-0.8061,-0.8953,-0.9312,-0.9347,-0.9497,-0.9833,0.0,0.0,0.0,0.0,-1.02,-1.0084,-1.0203,-1.0207,-1.0098,-1.0391,-1.0977,-1.1836,-1.2559,0.0,0.0,-1.0703,0.0,0.0,0.0,0.0,0.0,0.0,0.0,0.0,0.0,0.0,0.0,0.0,0.0,0.0,0.0,0.0,0.0,0.0,0.0,0.0,0.0,0.0,0.0,0.0,0.0,0.0,0.0,0.0,0.0,0.0,0.0,0.0,0.0,0.0,0.0,0.0,0.0,0.0,0.0,0.0,0.0,0.0,0.0,0.0,0.0,0.0,0.0,0.0,0.0,0.0,0.0,0.0,0.0,0.0,0.0,0.0,0.0,0.0,0.0,0.0,0.0,0.0,0.0,-1.8574,-1.9093,-2.0332,-1.9187,-1.9517,-2.0904,-1.9208,-1.7887,-1.6828,-1.58,0.0,0.0,0.0,0.0,0.0,0.0,0.0,0.0,0.0,0.0,0.0,0.0,0.0,0.0,0.0,0.0,0.0,0.0,0.0,-0.7052,-0.8132,-0.8833,-0.931,-0.9546,-0.9557,-0.9594,-0.9645,0.0,0.0,0.0,-1.0035,-1.0033,-1.0014,-1.0099,-1.0129,-1.0098,-1.0996,-1.1875,-1.2734,0.0,0.0,0.0,-1.2305,-1.2166,0.0,0.0,0.0,0.0,0.0,0.0,0.0,0.0,0.0,0.0,0.0,0.0,0.0,0.0,0.0,0.0,0.0,0.0,0.0,0.0,0.0,0.0,0.0,0.0,0.0,0.0,0.0,0.0,0.0,0.0,0.0,0.0,0.0,0.0,0.0,0.0,0.0,0.0,0.0,0.0,0.0,0.0,-1.0426,-1.1261,0.0,0.0,0.0,0.0,0.0,0.0,0.0,0.0,0.0,0.0,0.0,0.0,0.0,-1.8443,-1.9273,-2.068,-2.1061,-2.0518,-2.2392,-2.3033,-2.2594,-2.3085,-2.345,-2.3652,-2.2803,0.0,-1.8866,-1.8087,0.0,0.0,0.0,0.0,0.0,0.0,0.0,0.0,0.0,0.0,0.0,0.0,0.0,0.0,0.0,0.0,0.0,0.0,0.0,0.0,0.0,-0.8939,-0.9388,-0.948,-0.956,-0.9653,0.0,0.0,0.0,-1.011,-1.011,-1.0082,-1.0068,-1.0589,-1.1143,-1.168,-1.3066,-1.3926,0.0,0.0,0.0,0.0,0.0,0.0,0.0,0.0,0.0,0.0,0.0,0.0,0.0,0.0,0.0,0.0,0.0,0.0,0.0,0.0,0.0,0.0,0.0,0.0,0.0,0.0,0.0,0.0,0.0,0.0,0.0,0.0,0.0,0.0,0.0,0.0,0.0,0.0,0.0,0.0,0.0,0.0,0.0,0.0,0.0,0.0,0.0,-1.0583,-1.156,-1.2049,-1.2161,-1.2077,0.0,0.0,0.0,0.0,0.0,0.0,0.0,0.0,0.0,-1.9339,-2.0168,-2.1007,-2.1874,-2.3015,-2.3334,-2.2882,-2.3895,-2.4118,-2.3694,-2.3832,-2.3816,-2.361,-2.3117,-2.2183,-2.0883,-1.9689,-1.8293,-1.683,0.0,0.0,0.0,0.0,-1.5539,-1.5052,0.0,0.0,0.0,0.0,0.0,0.0,0.0,0.0,0.0,0.0,0.0,0.0,-0.8612,-0.9188,-0.9546,-0.9563,0.0,0.0,0.0,0.0,0.0,-1.0112,-1.0112,-1.0092,-1.0049,-1.12,-1.2386,0.0,0.0,0.0,0.0,0.0,0.0,0.0,0.0,0.0,0.0,0.0,0.0,0.0,0.0,0.0,0.0,0.0,0.0,0.0,0.0,0.0,0.0,0.0,0.0,0.0,0.0,0.0,0.0,0.0,0.0,0.0,0.0,0.0,0.0,0.0,0.0,0.0,0.0,0.0,0.0,0.0,0.0,0.0,0.0,0.0,0.0,0.0,0.0,0.0,0.0,-1.2344,-1.3151,-1.3323,-1.413,-1.4316,0.0,0.0,0.0,0.0,0.0,0.0,-1.9001,-1.9432,-2.0231,-2.1548,-2.2322,-2.3019,-2.3679,-2.4526,-2.4877,-2.4725,-2.4947,-2.4968,-2.4814,-2.4556,-2.4306,-2.4045,-2.3601,-2.3301,-2.2997,-2.1307,-1.9913,-1.8815,-1.817,-1.754,-1.7109,-1.8043,-1.771,-1.7088,0.0,0.0,0.0,0.0,0.0,0.0,0.0,0.0,0.0,0.0,0.0,-0.883,0.0,0.0,0.0,0.0,0.0,0.0,0.0,0.0,0.0,-0.9912,-0.9912,-0.9912,-0.9918,-1.1695,0.0,0.0,0.0,0.0,0.0,0.0,0.0,0.0,0.0,0.0,0.0,0.0,0.0,0.0,0.0,0.0,0.0,0.0,0.0,0.0,0.0,0.0,0.0,0.0,0.0,0.0,0.0,0.0,0.0,0.0,0.0,0.0,0.0,0.0,0.0,0.0,0.0,0.0,0.0,0.0,0.0,0.0,0.0,0.0,0.0,0.0,0.0,0.0,0.0,0.0,0.0,0.0,0.0,-1.5894,-1.7071,0.0,0.0,0.0,0.0,-1.8498,-2.0173,-2.1196,-2.1155,-2.2496,-2.3205,-2.3185,-2.3767,-2.4118,-2.4154,-2.4963,-2.5349,-2.5368,-2.6137,-2.6484,-2.6484,-2.6463,-2.6423,-2.638,-2.5654,-2.5358,-2.5174,-2.3059,-2.1524,-2.0426,-2.0016,-1.9211,-1.8346,-1.8591,-1.8616,-1.8691,0.0,0.0,0.0,-0.5342,-0.5471,-0.5784,-0.6675,-0.7283,-0.7876,-0.8548,-0.9083,0.0,0.0,0.0,0.0,0.0,0.0,0.0,0.0,0.0,0.0,-1.0832,-1.088,-1.1647,-1.3341,-1.4033,0.0,0.0,0.0,0.0,0.0,0.0,0.0,0.0,0.0,0.0,0.0,0.0,0.0,0.0,0.0,0.0,0.0,0.0,0.0,0.0,0.0,0.0,0.0,0.0,0.0,0.0,0.0,0.0,0.0,0.0,0.0,0.0,0.0,0.0,0.0,0.0,0.0,0.0,0.0,0.0,0.0,0.0,0.0,0.0,0.0,0.0,0.0,0.0,0.0,0.0,0.0,0.0,0.0,-1.8324,-1.932,0.0,-1.8481,-1.9442,-2.0327,-2.0722,-2.1826,-2.2675,-2.3154,-2.3648,-2.3982,-2.4066,-2.478,-2.5225,-2.5363,-2.6149,-2.6488,-2.6375,-2.6672,-2.672,-2.6573,-2.6322,-2.6103,-2.587,-2.5385,-2.5073,-2.4809,-2.402,-2.3318,-2.2698,-2.2571,-2.1889,-2.1035,-2.1374,-2.1142,-2.07,-0.4661,-0.471,0.0,-0.5856,-0.6043,-0.6455,-0.7607,-0.8269,-0.8757,-0.9087,-0.9619,0.0,0.0,0.0,0.0,0.0,0.0,0.0,0.0,0.0,-1.0684,-1.0951,-1.1521,-1.2916,-1.5229,0.0,0.0,0.0,0.0,0.0,0.0,0.0,0.0,0.0,0.0,0.0,0.0,0.0,0.0,0.0,0.0,0.0,-1.2317,0.0,0.0,0.0,0.0,0.0,0.0,0.0,0.0,0.0,0.0,0.0,0.0,0.0,0.0,0.0,0.0,0.0,0.0,0.0,0.0,0.0,0.0,0.0,0.0,0.0,0.0,0.0,0.0,0.0,0.0,0.0,0.0,0.0,0.0,-1.8092,-1.9563,-2.0069,-2.1297,-2.1648,-2.0546,-2.1494,-2.2345,-2.2755,-2.3279,-2.3965,-2.4763,-2.4746,-2.4894,-2.5297,-2.5764,-2.6061,-2.6186,-2.6989,-2.7345,-2.7209,-2.7348,-2.7328,-2.7187,-2.6801,-2.6506,-2.6295,-2.5924,-2.5648,-2.5422,-2.5283,-2.5092,-2.4747,-2.395,-2.3103,-2.2412,-2.2577,-2.2232,-2.1734,-0.4793,-0.4834,-0.5141,-0.6068,-0.6267,-0.6832,-0.8481,-0.8732,-0.9054,-0.9896,0.0,0.0,0.0,0.0,0.0,0.0,0.0,0.0,0.0,0.0,-1.0939,-1.0244,-1.1891,-1.3599,-1.5285,0.0,0.0,0.0,0.0,0.0,0.0,0.0,0.0,0.0,0.0,0.0,0.0,0.0,0.0,0.0,0.0,0.0,-1.5571,0.0,0.0,0.0,0.0,0.0,0.0,0.0,0.0,0.0,0.0,0.0,0.0,0.0,0.0,0.0,0.0,0.0,0.0,0.0,0.0,0.0,0.0,0.0,0.0,0.0,0.0,0.0,0.0,0.0,0.0,0.0,0.0,0.0,-1.8278,-2.0411,-2.173,-2.117,-2.293,-2.3621,-2.2117,-2.3533,-2.4532,-2.4532,-2.4726,-2.5209,-2.5988,-2.583,-2.6098,-2.6879,-2.6737,-2.6649,-2.6649,-2.7438,-2.7842,-2.7842,-2.8227,-2.842,-2.842,-2.8047,-2.7897,-2.7869,-2.7439,-2.7272,-2.7241,-2.6841,-2.6657,-2.6438,-2.4102,-2.2844,-2.2339,-2.1922,-2.1754,-2.1754,-0.4856,-0.5383,-0.6078,-0.6926,-0.7588,-0.8391,-0.9477,-0.9634,-0.9772,0.0,0.0,0.0,0.0,0.0,0.0,0.0,0.0,0.0,0.0,0.0,-1.1216,-1.2781,-1.4522,0.0,0.0,0.0,0.0,0.0,0.0,0.0,0.0,0.0,0.0,0.0,0.0,0.0,0.0,0.0,0.0,0.0,0.0,0.0,-1.5584,0.0,0.0,0.0,0.0,0.0,0.0,0.0,0.0,0.0,0.0,0.0,0.0,0.0,0.0,0.0,0.0,0.0,0.0,0.0,0.0,0.0,0.0,0.0,0.0,0.0,0.0,0.0,0.0,0.0,0.0,0.0,-1.8455,-2.0708,-2.062,-2.1805,-2.2848,-2.3269,-2.3967,-2.419,-2.3621,-2.4652,-2.53,-2.517,-2.5744,-2.6207,-2.6429,-2.6388,-2.6458,-2.668,-2.7187,-2.7475,-2.7475,-2.8282,-2.8686,-2.8686,-2.8795,-2.8839,-2.8815,-2.8174,-2.7897,-2.7869,-2.7178,-2.6873,-2.6841,-2.6367,-2.5944,-2.5603,-2.5301,-2.4883,-2.4341,-2.3847,-2.3416,-2.3071,-0.5439,-0.6151,-0.7011,-0.7839,-0.8403,-0.9034,-0.991,-1.0029,-1.0061,-1.0152,0.0,0.0,0.0,0.0,0.0,0.0,0.0,0.0,-1.1503,-1.1259,-1.2221,0.0,0.0,0.0,0.0,0.0,0.0,0.0,0.0,0.0,0.0,0.0,0.0,0.0,0.0,0.0,0.0,0.0,0.0,0.0,0.0,0.0,-1.7176,-1.5684,-1.4711,-1.3953,-1.2734,-1.1728,-1.0978,-1.0779,0.0,0.0,0.0,0.0,0.0,0.0,0.0,0.0,0.0,0.0,0.0,0.0,0.0,0.0,0.0,0.0,0.0,0.0,0.0,0.0,0.0,0.0,0.0,0.0,-2.01,-2.2172,-2.2384,-2.3049,-2.3676,-2.4135,-2.4303,-2.4469,-2.4686,-2.5226,-2.5669,-2.5899,-2.6337,-2.6759,-2.709,-2.7108,-2.7255,-2.7603,-2.8062,-2.8301,-2.8301,-2.8778,-2.8994,-2.8994,-2.8676,-2.8551,-2.8507,-2.7765,-2.7396,-2.7348,-2.6906,-2.6724,-2.6749,-2.6201,-2.5831,-2.5614,0.0,0.0,0.0,0.0,-2.3879,-2.3595,-0.6346,-0.7038,-0.7887,-0.8666,-0.8884,-0.9203,-0.9975,-1.0094,-1.0094,-1.0113,0.0,0.0,0.0,0.0,0.0,0.0,0.0,0.0,0.0,0.0,0.0,0.0,0.0,0.0,0.0,0.0,0.0,0.0,0.0,0.0,0.0,0.0,0.0,0.0,0.0,0.0,0.0,0.0,0.0,0.0,0.0,0.0,-1.9444,-1.7453,-1.6516,-1.6097,-1.4843,-1.3404,-1.2102,-1.1911,0.0,0.0,0.0,0.0,0.0,0.0,0.0,0.0,0.0,0.0,0.0,0.0,0.0,0.0,0.0,0.0,0.0,0.0,0.0,0.0,0.0,0.0,0.0,0.0,-2.1337,-2.2976,-2.3792,-2.4162,-2.4337,-2.4337,-2.4337,-2.4649,-2.5476,-2.5623,-2.597,-2.6686,-2.6833,-2.7181,-2.7897,-2.7934,0.0,0.0,0.0,-2.8994,-2.8994,-2.8994,-2.8994,-2.8929,-2.8281,-2.7954,-2.7869,-2.7201,-2.6877,-2.6877,-2.6945,-2.6985,-2.6984,-2.6397,-2.6118,-2.6018,-2.4864,-2.4074,-2.3595,-2.3595,-2.3595,-2.3595,-0.7169,-0.7905,-0.8609,-0.885,-0.9414,-0.9898,-1.0075,-1.0094,-1.0113,-1.0175,-1.0133,0.0,0.0,0.0,0.0,0.0,0.0,0.0,0.0,0.0,0.0,0.0,0.0,0.0,0.0,0.0,0.0,0.0,0.0,0.0,0.0,0.0,0.0,0.0,0.0,0.0,0.0,0.0,0.0,0.0,0.0,0.0,-1.9971,-1.889,-1.7948,-1.7012,-1.5955,-1.5218,-1.4721,-1.4536,-1.3727,-1.2684,-1.207,0.0,0.0,0.0,0.0,0.0,0.0,0.0,0.0,0.0,0.0,0.0,0.0,0.0,0.0,0.0,0.0,0.0,0.0,0.0,0.0,-2.0643,-2.2488,-2.4149,-2.4955,-2.5124,-2.5182,-2.5182,-2.5182,-2.5474,-2.6282,-2.6943,-2.7402,-2.7548,-2.8172,-2.859,-2.8778,-2.8778,-2.8851,-2.8994,-2.8994,-2.8994,-2.8994,-2.8994,-2.8839,-2.8496,-2.8368,0.0,-2.7886,-2.8039,-2.8077,-2.8111,-2.8423,-2.8293,-2.7843,-2.7284,-2.6513,-2.5637,-2.476,-2.4074,-2.3595,-2.3595,-2.3595,-2.3508,-0.8631,-0.9113,-0.9464,-0.9494,-0.9825,-1.0094,-1.0094,-1.0094,-1.0113,-1.0156,-1.0113,0.0,0.0,0.0,0.0,0.0,0.0,0.0,0.0,0.0,0.0,0.0,0.0,0.0,0.0,0.0,0.0,0.0,0.0,0.0,0.0,0.0,0.0,0.0,0.0,0.0,0.0,0.0,0.0,0.0,0.0,0.0,-2.1026,-1.9807,-1.8923,-1.8228,-1.7361,-1.6647,-1.6086,-1.598,-1.5124,-1.4036,-1.368,-1.2756,-1.159,0.0,0.0,0.0,0.0,0.0,0.0,0.0,0.0,0.0,0.0,0.0,0.0,0.0,0.0,-1.7656,-1.8285,0.0,-2.1608,-2.2544,-2.3743,-2.4747,-2.5375,-2.5592,-2.5765,-2.5968,-2.5988,-2.6319,-2.7126,-2.7548,-2.797,-2.8374,-2.8578,-2.8773,-2.8994,-2.8815,-2.8773,-2.8994,-2.8994,-2.8887,-2.8682,-2.8682,-2.8515,-2.8156,-2.8326,-2.83,-2.8172,-2.8525,-2.8682,-2.8699,-2.8572,-2.8428,-2.8133,-2.7303,-2.6428,-2.554,-2.5167,-2.485,-2.4597,-2.4597,-2.4597,-2.4567,-0.9867,-1.0065,-1.0094,-1.0094,-1.0094,-1.0094,-1.0094,-1.0094,-1.0094,-1.0094,-1.0086,-1.0065,-1.0001,-0.9982,-1.0017,0.0,0.0,0.0,0.0,0.0,0.0,0.0,0.0,0.0,0.0,0.0,0.0,0.0,0.0,0.0,0.0,0.0,0.0,0.0,0.0,0.0,0.0,0.0,0.0,0.0,0.0,0.0,-2.222,-2.0527,-1.9608,-1.912,-1.84,-1.7475,-1.6631,-1.6766,-1.5967,-1.4918,-1.4979,-1.4062,-1.2879,-1.2341,-1.1455,0.0,0.0,0.0,0.0,0.0,0.0,0.0,0.0,-1.5042,-1.5548,-1.6422,-1.8007,-1.9504,-2.0373,-2.1351,-2.2536,-2.4056,-2.4688,-2.5183,-2.5675,-2.5979,-2.6339,-2.6885,-2.6819,-2.7017,-2.7734,-2.7958,-2.8278,-2.885,-2.8658,-2.8658,-2.8975,-2.8778,-2.8775,-2.9119,-2.9174,-2.908,-2.8739,-2.8739,-2.8548,-2.8194,-2.8488,-2.8574,-2.8508,-2.9019,-2.9158,-2.9029,-2.8418,-2.8243,-2.825,-2.722,-2.6467,-2.5989,-2.5989,-2.5989,-2.5959,-2.5704,-2.5615,-2.5553,-0.9933,-1.009,-1.0094,-1.0094,-1.0094,-1.0094,-1.0094,-1.0094,-1.0094,-1.0094,-1.0057,-1.0001,-0.9997,-0.9955,-1.0176,-1.0819,0.0,0.0,0.0,0.0,0.0,0.0,0.0,0.0,0.0,0.0,0.0,0.0,0.0,0.0,0.0,0.0,0.0,0.0,0.0,0.0,0.0,0.0,0.0,0.0,0.0,0.0,-2.3282,-2.1211,-1.9809,-1.8839,-1.811,-1.7194,-1.6437,-1.702,-1.6546,-1.571,-1.5974,-1.5905,-1.5462,-1.3924,0.0,-1.2293,-1.1675,-1.1984,-1.3058,-1.536,-1.5251,-1.5555,0.0,-1.9276,-1.8937,-2.0577,-2.1416,-2.191,-2.2023,-2.2922,-2.3717,-2.3917,-2.4787,-2.5694,-2.6445,-2.6596,-2.7014,-2.8077,-2.7585,-2.7335,-2.7851,-2.8481,-2.8748,-2.8496,-2.8749,-2.8952,-2.8994,-2.9297,-2.9494,-2.9521,-2.9833,-2.9981,-2.9902,-2.9902,-2.9716,-2.9329,-2.9366,-2.9231,-2.8946,-2.9671,-2.9671,-2.9164,-2.8688,-2.8451,-2.845,-2.7739,-2.7425,-2.74,-2.74,-2.74,-2.7215,-2.6033,-2.5615,-2.5411,-1.0037,-1.0094,-1.0094,-1.0094,-1.0094,-1.0094,-1.0094,-1.007,-1.0029,-1.0029,-0.9991,-0.9933,-0.9893,-0.9831,-0.9905,-1.0228,-1.1463,0.0,0.0,0.0,0.0,0.0,0.0,0.0,0.0,0.0,0.0,0.0,0.0,0.0,0.0,0.0,0.0,0.0,0.0,0.0,0.0,0.0,0.0,0.0,0.0,0.0,-2.3231,-2.1467,-2.0275,-1.936,-1.799,-1.6974,0.0,0.0,-1.6636,-1.5846,-1.6112,-1.5811,-1.5114,-1.393,-1.3359,0.0,-1.4013,-1.46,-1.5433,-1.7039,-1.7452,-1.7991,-1.9924,-2.0146,-2.0246,-2.1368,-2.1957,-2.2349,-2.25,-2.3281,-2.4101,-2.4734,-2.5605,-2.6398,-2.6953,-2.725,-2.731,-2.7095,-2.7378,-2.7852,-2.8471,-2.8815,-2.8929,-2.8749,-2.8897,-2.9097,-2.9334,-2.9472,-2.966,-2.987,-3.0039,-2.998,-2.9754,-2.9754,-2.9573,-2.9211,-2.9619,-2.9785,-2.9668,-3.0395,-3.0209,-2.9297,-2.9098,-2.8638,-2.7944,-2.771,-2.7625,-2.7625,-2.7625,-2.7625,-2.75,-2.6961,-2.6752,-2.6703,-1.0094,-1.0094,-1.0094,-1.0094,-1.0094,-1.0086,-1.0038,-0.9977,-0.9943,-0.9922,-0.9862,-0.9806,-0.9764,-0.9695,-0.9641,-0.9641,-1.1059,-1.2571,0.0,0.0,0.0,0.0,0.0,0.0,0.0,0.0,0.0,0.0,0.0,0.0,0.0,0.0,0.0,0.0,0.0,0.0,0.0,0.0,0.0,0.0,0.0,0.0,-2.2883,-2.153,-2.0324,-1.9198,-1.7612,-1.6522,0.0,0.0,-1.5799,-1.5043,-1.5531,-1.5172,-1.4561,-1.4344,-1.431,-1.4601,-1.5661,-1.6471,-1.7275,-1.8299,-1.909,-1.9747,-2.013,-2.0543,-2.1015,-2.1513,-2.1957,-2.2377,-2.2563,-2.3399,-2.4309,-2.509,-2.6146,-2.6947,-2.7092,-2.747,-2.7397,-2.6528,-2.7198,-2.801,-2.8626,-2.8791,-2.8749,-2.8558,-2.8917,-2.9251,-2.9438,-2.9656,-2.9935,-3.0232,-3.0361,-3.0265,-2.997,-2.997,-2.9862,-2.96,-3.0142,-3.0412,-3.0429,-3.0603,-3.0208,-2.9361,-2.9042,-2.84,-2.7625,-2.7625,-2.7625,-2.7625,-2.7625,-2.7625,-2.7625,-2.7625,-2.7458,-2.7255,-1.0094,-1.0094,-1.0094,-1.0094,-1.0094,-1.0023,-0.9844,-0.9803,-0.9787,-0.9711,-0.9647,-0.9625,-0.9706,-0.9593,-0.9508,-0.9508,-1.0795,-1.2038,-1.3079,-1.532,0.0,0.0,0.0,0.0,0.0,0.0,0.0,0.0,0.0,0.0,0.0,0.0,0.0,0.0,0.0,0.0,0.0,0.0,0.0,0.0,0.0,0.0,-2.2504,-2.1417,-1.9749,-1.7817,-1.6714,0.0,0.0,0.0,-1.3721,-1.306,-1.4039,-1.4335,0.0,-1.5836,-1.6487,-1.6646,-1.5995,-1.6811,-1.8112,-1.9096,-1.9803,-2.0385,-2.0862,-2.1274,-2.1595,-2.1582,-2.1957,-2.231,-2.231,-2.3507,-2.4489,-2.4537,-2.6086,-2.7144,-2.6774,-2.7051,-2.7317,-2.7269,-2.7317,-2.747,-2.7897,-2.8237,-2.8112,-2.7409,-2.8721,-2.941,-2.903,-3.0016,-3.056,-3.056,-3.095,-3.1162,-3.1162,-3.1162,-3.1123,-3.1123,-3.1157,-3.1157,-3.1117,-2.9978,-2.9451,-2.9316,-2.8174,-2.761,-2.7625,-2.7625,-2.7625,-2.7625,-2.7625,-2.7625,-2.7625,-2.7625,-2.7152,-2.6457,-1.0033,-1.0074,-1.0094,-1.0094,-1.0094,-0.9992,-0.9649,-0.9668,-0.9673,-0.9531,-0.952,0.0,0.0,0.0,0.0,0.0,-1.0341,-1.1457,-1.2818,-1.4273,0.0,0.0,0.0,0.0,0.0,0.0,0.0,0.0,0.0,0.0,0.0,0.0,0.0,0.0,0.0,0.0,0.0,0.0,0.0,0.0,0.0,0.0,-2.1824,-2.0643,-1.9108,-1.7361,0.0,0.0,0.0,0.0,0.0,0.0,-1.3747,0.0,0.0,-1.5742,-1.6247,-1.6574,-1.7582,-1.815,-1.8673,-1.9746,-2.0393,-2.0894,-2.1306,-2.1735,-2.2061,-2.2061,-2.218,-2.231,-2.231,-2.3105,-2.3917,-2.4438,-2.5431,-2.6296,-2.6657,-2.7051,-2.7113,-2.6567,-2.6961,-2.7126,-2.6742,-2.7522,-2.7964,-2.7725,-2.8842,-2.9449,-2.9338,-3.04,-3.0997,-3.0997,-3.1133,-3.119,-3.119,-3.119,-3.119,-3.119,-3.0797,-3.0601,-3.0576,-2.9761,-2.918,-2.8779,-2.8367,-2.7944,-2.7625,-2.7625,-2.7625,-2.7625,-2.7625,-2.7625,-2.7625,-2.7625,-2.7137,-2.651,-0.9972,-1.0044,-1.009,-1.007,-1.0014,0.0,0.0,0.0,0.0,0.0,0.0,0.0,0.0,0.0,0.0,0.0,0.0,-1.0773,-1.1841,0.0,0.0,0.0,0.0,0.0,0.0,0.0,0.0,0.0,0.0,0.0,0.0,0.0,0.0,0.0,0.0,0.0,0.0,0.0,0.0,0.0,0.0,0.0,-2.0303,-1.916,-1.7624,0.0,0.0,0.0,0.0,0.0,0.0,0.0,0.0,0.0,0.0,-1.5965,-1.6551,-1.7324,-1.8697,-1.8882,-1.8955,-2.0023,-2.0649,-2.1118,-2.1491,-2.1957,-2.231,-2.231,-2.218,-2.2032,-2.2032,-2.2647,-2.3385,-2.4171,-2.5164,-2.6007,-2.6623,-2.7051,-2.7155,-2.6745,-2.7171,-2.7394,-2.7173,-2.7858,-2.8171,-2.7892,-2.9138,-2.9834,-2.9729,-3.0649,-3.119,-3.119,-3.119,-3.119,-3.119,-3.119,-3.1095,-3.0878,-3.0477,-3.0208,-2.9935,-2.9361,-2.8873,-2.8463,-2.8271,-2.7944,-2.7625,-2.7625,-2.7625,-2.7625,-2.7625,-2.7625,-2.7575,-2.7306,-2.7086,-2.6878,-0.9916,-1.0006,-1.0074,0.0,0.0,0.0,0.0,0.0,0.0,0.0,0.0,0.0,0.0,0.0,0.0,0.0,0.0,0.0,-1.0273,0.0,0.0,0.0,0.0,0.0,0.0,-1.6769,0.0,0.0,0.0,0.0,0.0,0.0,0.0,0.0,0.0,0.0,0.0,0.0,0.0,0.0,0.0,0.0,-1.8072,-1.7099,0.0,0.0,0.0,0.0,0.0,0.0,0.0,0.0,0.0,0.0,-1.6729,-1.6567,-1.7578,-1.8838,-1.9302,-1.9086,-1.9,-2.0058,-2.0616,-2.1086,-2.1491,-2.1928,-2.2265,-2.2231,-2.1878,-2.1546,-2.1513,-2.212,-2.2862,-2.372,-2.5142,-2.6251,-2.6639,-2.7053,-2.7442,-2.7758,-2.7823,-2.8163,-2.8943,-2.9008,-2.8738,-2.7958,-2.9591,-3.0432,-3.0108,-3.0801,-3.119,-3.119,-3.119,-3.119,-3.119,-3.119,-3.0878,-3.0293,-3.0251,-2.9908,-2.9316,-2.8732,-2.8463,-2.8415,-2.786,-2.7625,-2.7625,-2.7625,-2.7625,-2.7625,-2.7625,-2.7625,-2.7524,-2.6826,-2.6982,-2.7408,0.0,0.0,0.0,0.0,0.0,0.0,0.0,0.0,0.0,0.0,0.0,0.0,0.0,0.0,0.0,0.0,0.0,0.0,0.0,0.0,0.0,0.0,0.0,0.0,0.0,0.0,0.0,0.0,0.0,0.0,0.0,0.0,0.0,0.0,0.0,0.0,0.0,0.0,0.0,0.0,0.0,0.0,-1.6447,0.0,0.0,0.0,0.0,0.0,0.0,0.0,0.0,0.0,0.0,-1.6607,-1.7748,-1.8036,-1.8629,-1.9265,-1.9546,-1.9542,-1.9557,-2.0147,-2.0382,-2.0682,-2.143,-2.1688,-2.1732,-2.1511,-2.1139,-2.0771,-2.0458,-2.0805,-2.1661,-2.3264,-2.4303,-2.5329,-2.6538,-2.7267,-2.7691,-2.7791,-2.8332,-2.8755,-2.8958,-2.9499,-2.9736,-2.955,-2.9966,-3.0187,-3.0108,-3.0801,-3.119,-3.119,-3.119,-3.119,-3.119,-3.074,-3.0435,-3.0293,-2.9406,-2.8873,-2.8701,-2.8091,-2.781,-2.781,-2.7675,-2.7625,-2.7625,-2.7625,-2.7625,-2.7625,-2.7625,-2.7625,-2.7575,-2.7408,-2.7458,-2.7408,0.0,0.0,0.0,0.0,0.0,0.0,0.0,0.0,0.0,0.0,0.0,0.0,0.0,0.0,0.0,0.0,0.0,0.0,0.0,0.0,0.0,0.0,0.0,0.0,0.0,0.0,0.0,0.0,0.0,0.0,0.0,0.0,0.0,0.0,0.0,0.0,0.0,0.0,0.0,0.0,0.0,0.0,0.0,0.0,0.0,0.0,0.0,0.0,0.0,0.0,0.0,-1.6098,-1.6908,-1.767,-1.8407,-1.8862,0.0,-1.9653,-2.0223,-2.0291,-2.0197,-2.0421,-2.0604,-2.0696,-2.0639,-2.0774,-2.076,-2.034,-1.9923,-1.9609,-1.9536,-1.9963,-2.0832,-2.2345,-2.3675,-2.5031,-2.6488,-2.7334,-2.8026,-2.8718,-2.9211,-2.96,-2.9922,-3.0345,-3.0581,-3.0581,-3.0581,-3.0581,-3.0581,-3.097,-3.119,-3.119,-3.119,-3.1055,-3.0797,-3.0208,-2.9761,-2.9496,-2.8826,-2.8367,-2.8091,-2.776,-2.7625,-2.7625,-2.7625,-2.7625,-2.7625,-2.7625,-2.7625,-2.7625,-2.7625,-2.7625,-2.756,-2.7255,-2.71,-2.693,0.0,0.0,0.0,0.0,0.0,0.0,0.0,0.0,0.0,-0.9047,-0.9078,-0.9139,-0.9257,-0.9159,0.0,0.0,0.0,0.0,0.0,0.0,0.0,0.0,0.0,0.0,0.0,0.0,0.0,0.0,0.0,0.0,0.0,0.0,0.0,0.0,0.0,0.0,0.0,0.0,0.0,0.0,0.0,0.0,0.0,0.0,0.0,0.0,0.0,0.0,0.0,0.0,-1.6353,-1.7179,-1.7775,-1.8425,-1.9061,-1.9362,-1.9607,-1.999,-2.0952,-2.0962,-2.0722,-2.0722,-2.0983,-2.098,-1.9696,-1.9641,-1.9642,-1.8865,-1.8422,-1.82,-1.8451,-1.9228,-2.0213,-2.1289,-2.3087,-2.4879,-2.6336,-2.7283,-2.8349,-2.9786,-3.0142,-3.0497,-3.114,-3.119,-3.119,-3.119,-3.119,-3.119,-3.119,-3.119,-3.1151,-3.1095,-3.1015,-3.0699,-3.0166,-2.9585,-2.9012,-2.8511,-2.8415,-2.8091,-2.7625,-2.7625,-2.7625,-2.7625,-2.7625,-2.7625,-2.7625,-2.7625,-2.7625,-2.7625,-2.7625,-2.7625,-2.7509,-2.6878,-2.6669,-2.6443,0.0,0.0,0.0,0.0,0.0,0.0,0.0,-0.8891,-0.8902,-0.8936,-0.9043,-0.9099,-0.9129,-0.9109,0.0,0.0,0.0,0.0,0.0,0.0,0.0,0.0,0.0,0.0,0.0,0.0,0.0,0.0,0.0,0.0,0.0,0.0,0.0,0.0,0.0,0.0,0.0,0.0,0.0,0.0,0.0,0.0,0.0,0.0,0.0,0.0,0.0,0.0,0.0,0.0,-1.7197,-1.8992,-1.9275,-1.9946,-2.0492,-1.9847,-1.9908,-2.0277,-2.0684,-2.0745,-2.0722,-2.0722,-2.0983,-2.098,-1.9696,-1.9276,0.0,-1.7513,-1.6992,-1.6658,-1.6383,-1.7899,-1.9511,-2.0607,-2.2379,-2.4103,-2.5592,-2.6962,-2.8163,-2.9059,-3.026,-3.1055,-3.119,-3.119,-3.119,-3.119,-3.119,-3.119,-3.119,-3.119,-3.0975,-3.0477,-2.9978,-2.9673,-2.954,-2.8966,-2.8606,-2.8511,-2.7993,-2.771,-2.7625,-2.7625,-2.7625,-2.7625,-2.7625,-2.7625,-2.7625,-2.7625,-2.7625,-2.7625,-2.7625,-2.7625,-2.7575,-2.7473,-2.7408,-2.7188,0.0,0.0,0.0,0.0,0.0,0.0,0.0,-0.8891,-0.8891,-0.8891,-0.8957,-0.9033,-0.9088,-0.8979,-0.8946,0.0,0.0,0.0,0.0,0.0,0.0,0.0,0.0,0.0,0.0,0.0,0.0,0.0,0.0,0.0,0.0,0.0,0.0,0.0,0.0,0.0,0.0,0.0,0.0,0.0,0.0,0.0,0.0,0.0,0.0,0.0,0.0,0.0,0.0,0.0,-1.6329,-1.8501,-1.9642,-2.0296,-2.055,-2.0124,-2.0,-2.0081,-2.0565,-2.0722,-2.0745,-2.0962,-2.1172,-2.0887,-1.9246,0.0,0.0,-1.6129,-1.5402,-1.5145,-1.5474,-1.6837,-1.8373,-1.98,-2.158,-2.3494,-2.5355,-2.6894,-2.8247,-2.9431,-3.0531,-3.119,-3.119,-3.119,-3.1055,-3.0757,-3.074,-3.074,-3.074,-3.0435,-3.0123,-2.9848,-2.9225,-2.8919,-2.8919,-2.8319,-2.8042,-2.8042,-2.771,-2.7625,-2.7625,-2.7625,-2.7625,-2.7625,-2.7625,-2.7625,-2.7625,-2.7625,-2.7625,-2.7625,-2.7625,-2.7625,-2.7625,-2.7625,-2.7357,-2.693,0.0,0.0,0.0,0.0,0.0,0.0,0.0,-0.8891,-0.8891,-0.8891,-0.8891,-0.8936,-0.9054,-0.8858,-0.8829,0.0,0.0,0.0,0.0,0.0,0.0,0.0,0.0,0.0,0.0,0.0,0.0,-0.8891,0.0,0.0,0.0,0.0,0.0,0.0,0.0,0.0,0.0,0.0,0.0,0.0,0.0,0.0,0.0,0.0,0.0,0.0,0.0,0.0,0.0,0.0,-1.508,-1.7027,-1.906,-1.9865,-2.0094,-2.0147,-1.9945,-1.9876,-2.061,-2.0843,-2.094,-2.1337,-2.1499,-2.1036,-1.889,-1.7856,0.0,-1.4977,-1.41,-1.3885,-1.4627,-1.5801,-1.7203,-1.8789,-2.0467,-2.2459,-2.4906,-2.6505,-2.8039,-2.9685,-3.0516,-3.1015,-3.1015,-3.0878,-3.0617,-3.0123,-3.0123,-3.0123,-3.0123,-2.9673,-2.9316,-2.9225,-2.8638,-2.8334,-2.8334,-2.786,-2.7625,-2.7625,-2.7625,-2.7625,-2.7625,-2.7625,-2.7625,-2.7625,-2.7625,-2.7625,-2.7625,-2.7625,-2.7625,-2.7625,-2.7625,-2.7625,-2.7625,-2.7625,-2.7137,-2.6457,0.0,0.0,0.0,0.0,0.0,0.0,0.0,-0.8891,-0.8891,-0.8891,-0.8891,-0.8902,-0.8913,-0.8891,-0.8891,0.0,0.0,0.0,0.0,0.0,0.0,0.0,0.0,0.0,0.0,0.0,0.0,-0.8891,-0.8959,0.0,0.0,0.0,0.0,0.0,0.0,-0.8278,0.0,0.0,0.0,0.0,0.0,0.0,0.0,0.0,0.0,0.0,0.0,0.0,0.0,0.0,0.0,-1.5023,-1.7018,-1.8408,-1.9341,-1.9672,0.0,0.0,-2.0937,-2.1229,-2.1372,-2.1827,-2.2198,-2.1778,-1.9014,0.0,-1.6454,-1.4334,-1.3539,-1.3206,-1.306,-1.4601,-1.6262,-1.7393,0.0,-2.0437,-2.3604,-2.5325,-2.6981,-2.8854,-2.9849,-3.0393,-3.0393,-2.9908,-2.954,-2.9496,-2.9496,-2.9496,-2.9496,-2.9406,-2.9134,-2.8606,-2.7993,-2.766,-2.766,-2.7625,-2.7625,-2.7625,-2.7625,-2.7625,-2.7625,-2.7625,-2.7625,-2.7625,-2.7625,-2.7625,-2.7625,-2.7625,-2.7625,-2.7625,-2.7625,-2.7625,-2.7625,-2.7625,-2.7137,-2.6404,0.0,0.0,0.0,0.0,0.0,0.0,0.0,-0.8891,-0.8891,-0.8891,-0.8891,-0.8891,-0.8891,-0.8891,-0.8891,0.0,0.0,0.0,0.0,0.0,0.0,0.0,0.0,0.0,0.0,0.0,0.0,-0.8891,-0.8891,0.0,0.0,0.0,0.0,0.0,0.0,-0.8187,-0.8009,0.0,0.0,0.0,0.0,0.0,0.0,0.0,0.0,0.0,0.0,0.0,0.0,0.0,0.0,0.0,-1.4914,-1.6243,0.0,0.0,-1.9538,-1.9694,-2.0478,-2.0889,-2.1226,-2.1665,-2.1886,-2.1428,-1.9279,-1.7845,-1.6392,-1.4227,-1.3036,-1.2448,-1.2764,-1.3628,-1.4845,0.0,-1.7332,-1.876,-2.1793,-2.3095,-2.4648,-2.7082,-2.807,-2.9016,-3.0168,-3.0064,-2.9805,-2.9406,-2.9042,-2.8685,-2.8352,-2.8638,-2.8591,-2.8008,-2.771,-2.7625,-2.7625,-2.7625,-2.7625,-2.7625,-2.7625,-2.7625,-2.7625,-2.7625,-2.7625,-2.7625,-2.7625,-2.7625,-2.7625,-2.7625,-2.7625,-2.7625,-2.7625,-2.7306,-2.693,-2.693,-2.6443,-2.5783,0.0,0.0,0.0,0.0,0.0,0.0,-0.8957,-0.8925,-0.8891,-0.8891,-0.8891,-0.8891,-0.8891,-0.8891,-0.8891,-0.8891,0.0,0.0,0.0,0.0,0.0,0.0,0.0,0.0,0.0,0.0,0.0,0.0,0.0,-0.8891,0.0,0.0,-0.8794,-0.8693,0.0,0.0,0.0,0.0,0.0,0.0,0.0,0.0,0.0,0.0,0.0,0.0,0.0,0.0,0.0,0.0,0.0,0.0,0.0,0.0,0.0,0.0,-1.9134,-1.9558,-2.0311,-2.0846,-2.1275,-2.1688,-2.1553,-2.0862,-1.9107,-1.7561,-1.5964,-1.4023,-1.2697,-1.207,-1.2538,-1.2983,-1.3845,0.0,-1.6436,-1.7792,-2.0544,-2.1741,-2.3202,-2.5643,-2.6455,-2.7522,-2.9228,-2.9459,-2.939,-2.9134,-2.8732,-2.8319,-2.7894,-2.8286,-2.8238,-2.7625,-2.7625,-2.7625,-2.7625,-2.7625,-2.7625,-2.7625,-2.7625,-2.7625,-2.7625,-2.7625,-2.7625,-2.7625,-2.7625,-2.7625,-2.7625,-2.7625,-2.7625,-2.7625,-2.7625,-2.7152,-2.651,-2.651,-2.6014,-2.5342,0.0,0.0,0.0,0.0,0.0,0.0,0.0,-0.899,-0.8891,-0.8891,-0.8891,-0.8891,-0.8891,-0.8891,-0.8891,-0.8891,0.0,0.0,0.0,0.0,0.0,0.0,0.0,0.0,0.0,0.0,0.0,0.0,0.0,0.0,0.0,-0.876,-0.8705,-0.8693,0.0,0.0,0.0,0.0,0.0,0.0,0.0,0.0,0.0,0.0,0.0,0.0,0.0,0.0,0.0,0.0,0.0,0.0,0.0,0.0,0.0,0.0,-1.8507,-1.9623,-2.0719,-2.1275,-2.1718,-2.218,-2.1451,-2.0134,-1.8416,-1.6674,-1.4999,-1.3527,-1.2685,-1.2205,-1.2205,-1.2762,-1.3559,-1.4626,-1.5889,-1.759,-2.0151,-2.1686,-2.3179,-2.4824,-2.5313,-2.5962,-2.7111,-2.7487,-2.7845,-2.8463,-2.8511,-2.8511,-2.8511,-2.8511,-2.8238,-2.7625,-2.7625,-2.7625,-2.7625,-2.7625,-2.7625,-2.7625,-2.7625,-2.7625,-2.7625,-2.7625,-2.7625,-2.7625,-2.7625,-2.7625,-2.7625,-2.7625,-2.7625,-2.7625,-2.7625,-2.7152,-2.651,-2.651,-2.6014,-2.5287,0.0,0.0,0.0,0.0,0.0,0.0,0.0,-0.9011,-0.9011,-0.8913,-0.8891,-0.8891,-0.8891,-0.8891,-0.8891,-0.8891,0.0,0.0,0.0,0.0,0.0,0.0,0.0,0.0,0.0,0.0,0.0,0.0,0.0,0.0,0.0,0.0,0.0,-0.884,-0.8677,-0.8567,0.0,0.0,0.0,0.0,0.0,0.0,-0.9449,0.0,0.0,0.0,0.0,0.0,0.0,0.0,0.0,0.0,0.0,0.0,0.0,-1.4603,-1.6113,-1.753,-1.832,-1.8831,-1.9197,-1.9307,-1.9089,-1.8486,-1.7194,-1.6119,-1.4983,-1.3512,-1.2519,-1.1982,-1.2185,-1.261,-1.3346,-1.4599,0.0,0.0,-1.8955,-2.0056,-2.1476,-2.3776,-2.6125,-2.7705,-2.8076,-2.8168,-2.8271,-2.8463,-2.814,-2.7894,-2.7894,-2.7894,-2.781,-2.7625,-2.7625,-2.7625,-2.7625,-2.7625,-2.7625,-2.7625,-2.7625,-2.7625,-2.7625,-2.7625,-2.7625,-2.7625,-2.7625,-2.7625,-2.7625,-2.7625,-2.7625,-2.7625,-2.7625,-2.7152,-2.6457,-2.596,-2.5287,-2.4509,0.0,0.0,0.0,0.0,0.0,0.0,0.0,-0.8968,-0.8936,-0.8902,-0.8891,-0.8891,-0.8891,-0.8891,-0.8891,-0.8891,0.0,0.0,0.0,0.0,0.0,0.0,0.0,0.0,0.0,0.0,0.0,0.0,0.0,0.0,0.0,0.0,0.0,0.0,0.0,0.0,0.0,0.0,0.0,0.0,0.0,0.0,-0.8861,0.0,0.0,0.0,0.0,0.0,0.0,0.0,0.0,0.0,0.0,0.0,0.0,0.0,-1.4177,-1.532,0.0,-1.7316,-1.7633,-1.7633,-1.7336,-1.6769,-1.5857,-1.4993,-1.413,-1.3034,-1.2286,-1.1876,-1.2149,-1.2735,-1.3436,-1.4288,-1.559,-1.6937,-1.8164,-1.9346,-2.0946,-2.331,-2.6001,-2.772,-2.7791,-2.8036,-2.814,-2.814,-2.781,-2.7625,-2.7625,-2.7625,-2.7625,-2.7625,-2.7625,-2.7625,-2.7625,-2.7625,-2.7625,-2.7625,-2.7625,-2.7625,-2.7625,-2.7625,-2.7625,-2.7625,-2.7625,-2.7625,0.0,-2.7625,-2.7625,-2.7625,-2.7625,-2.6982,-2.6014,-2.5563,-2.4951,-2.4176,0.0,0.0,0.0,0.0,0.0,0.0,0.0,0.0,0.0,0.0,-0.8913,-0.8913,-0.8902,-0.8891,-0.8891,0.0,0.0,0.0,0.0,0.0,0.0,0.0,0.0,0.0,0.0,0.0,0.0,0.0,0.0,0.0,0.0,0.0,0.0,0.0,0.0,0.0,0.0,0.0,0.0,0.0,-0.8492,-0.8403,0.0,0.0,0.0,0.0,0.0,0.0,0.0,0.0,0.0,0.0,0.0,0.0,0.0,0.0,0.0,0.0,0.0,-1.6352,-1.6693,-1.6693,-1.5964,-1.5061,-1.4421,-1.352,0.0,-1.2266,-1.1997,-1.1906,-1.2287,-1.3145,-1.387,-1.4064,-1.6114,-1.7727,-1.7817,-1.963,-2.162,-2.352,-2.5317,-2.6489,-2.6651,-2.7215,-2.7625,-2.7625,-2.7625,-2.7625,-2.7625,-2.7625,-2.7625,-2.7625,-2.7625,-2.7625,-2.7625,-2.7625,-2.7625,-2.7625,-2.7625,-2.7625,-2.7625,-2.7625,-2.7625,-2.7625,-2.756,-2.756,-2.7625,-2.756,-2.7524,-2.7524,-2.7524,-2.664,-2.5398,-2.5342,-2.4908,-2.4176,0.0,0.0,0.0,0.0,0.0,0.0,0.0,0.0,0.0,0.0,-0.9047,-0.9022,-0.8913,-0.8891,-0.8891,0.0,0.0,0.0,0.0,0.0,0.0,0.0,0.0,0.0,0.0,0.0,0.0,0.0,0.0,0.0,0.0,0.0,0.0,0.0,0.0,0.0,0.0,0.0,0.0,0.0,-0.8513,-0.8403,0.0,0.0,0.0,0.0,-0.8124,-0.8559,0.0,0.0,0.0,0.0,0.0,0.0,0.0,0.0,-1.0907,-1.1392,-1.1964,0.0,-1.3789,-1.3789,-1.3611,-1.3388,0.0,-1.2976,-1.269,-1.2266,0.0,-1.2192,-1.3482,-1.3767,-1.4468,-1.6443,-1.7294,-1.8041,-1.9091,-2.1365,-2.3475,-2.4956,-2.6399,-2.7319,-2.737,-2.7535,-2.7625,-2.7625,-2.7625,-2.7625,-2.7625,-2.7625,-2.7625,-2.7625,-2.7625,-2.7625,-2.7625,-2.7625,-2.7625,-2.7625,-2.7625,-2.7625,-2.7625,-2.7625,-2.7625,-2.7575,-2.6982,-2.7086,-2.7575,-2.6982,-2.6774,-2.6774,-2.6774,-2.6215,-2.5342,-2.4794,-2.4452,-2.4176,0.0,0.0,0.0,0.0,0.0,0.0,0.0,0.0,0.0,0.0,0.0,0.0,0.0,0.0,0.0,0.0,0.0,0.0,0.0,0.0,0.0,0.0,0.0,0.0,0.0,0.0,0.0,0.0,0.0,0.0,0.0,0.0,0.0,0.0,0.0,0.0,0.0,0.0,0.0,0.0,-0.8538,0.0,0.0,0.0,0.0,0.0,-0.7899,-0.8124,0.0,-0.88,-0.9145,-0.9503,0.0,0.0,0.0,0.0,-1.0129,-1.0458,-1.0723,-1.1775,-1.2801,-1.2801,-1.2801,-1.2801,-1.2801,0.0,0.0,0.0,0.0,-1.2509,-1.3396,-1.4207,-1.5171,-1.6608,-1.7595,-1.8747,-2.0378,-2.2607,-2.4448,-2.5495,-2.6767,-2.7625,-2.7625,-2.7625,-2.7625,-2.7625,-2.7625,-2.7625,-2.7625,-2.7625,-2.7625,-2.7625,-2.7625,-2.7625,-2.7625,-2.7625,-2.7625,-2.7625,-2.7625,-2.7625,-2.7625,-2.7625,-2.7625,-2.7575,-2.7203,-2.7034,-2.7034,-2.6669,-2.6283,-2.6014,-2.6014,-2.5563,-2.4851,-2.4452,-2.406,-2.3708,0.0,0.0,0.0,0.0,0.0,0.0,0.0,0.0,0.0,0.0,0.0,0.0,0.0,0.0,0.0,0.0,0.0,0.0,0.0,0.0,0.0,0.0,0.0,0.0,0.0,0.0,0.0,0.0,0.0,0.0,0.0,0.0,0.0,0.0,0.0,0.0,0.0,0.0,0.0,-0.8869,-0.8563,0.0,0.0,0.0,0.0,0.0,0.0,0.0,0.0,-0.8559,-0.8755,-0.8845,-0.9428,0.0,0.0,0.0,0.0,0.0,-1.0723,-1.1968,-1.2991,-1.2854,-1.2891,-1.2966,-1.2966,0.0,0.0,0.0,0.0,0.0,-1.3331,-1.4719,-1.5963,-1.6473,-1.8014,-1.9794,-2.159,-2.3445,-2.4821,-2.554,-2.6767,-2.7625,-2.7625,-2.7625,-2.7625,-2.7625,-2.7625,-2.7625,-2.7625,-2.7625,-2.7625,-2.7625,-2.7625,-2.7625,-2.7625,-2.7625,-2.7625,-2.7625,-2.7625,-2.7625,-2.7625,-2.7625,-2.7625,-2.7575,-2.7357,-2.6982,-2.6457,-2.6283,-2.5783,-2.5231,-2.5231,-2.4794,-2.4118,-2.4118,-2.3708,-2.3078,0.0,0.0,0.0,0.0,0.0,0.0,0.0,0.0,0.0,0.0,0.0,0.0,0.0,0.0,0.0,0.0,0.0,0.0,0.0,0.0,0.0,0.0,0.0,0.0,0.0,0.0,0.0,0.0,0.0,0.0,0.0,0.0,0.0,0.0,0.0,0.0,0.0,0.0,0.0,-0.888,-0.8712,0.0,0.0,0.0,0.0,0.0,0.0,0.0,0.0,-0.8019,-0.8049,-0.8064,-0.8169,0.0,0.0,0.0,0.0,0.0,-1.1161,-1.287,-1.3946,-1.3029,-1.3226,-1.366,-1.366,0.0,0.0,0.0,0.0,0.0,0.0,-1.5934,-1.6713,-1.951,-2.0677,-2.1545,-2.2398,-2.3744,-2.4821,-2.554,-2.6767,-2.7625,-2.7625,-2.7625,-2.7625,-2.7625,-2.7625,-2.7625,-2.7625,-2.7625,-2.7625,-2.7625,-2.7625,-2.7625,-2.7625,-2.7625,-2.7625,-2.7625,-2.7625,-2.7625,-2.7625,-2.7625,-2.7625,-2.7509,-2.6269,-2.6,-2.6404,-2.5119,-2.4567,-2.4452,-2.4452,-2.4002,-2.3305,-2.3305,-2.3185,-2.3078,0.0,0.0,0.0,0.0,0.0,0.0,0.0,0.0,0.0,0.0,0.0,0.0,0.0,0.0,0.0,0.0,0.0,0.0,0.0,0.0,0.0,0.0,0.0,0.0,0.0,0.0,0.0,0.0,0.0,0.0,0.0,0.0,0.0,0.0,0.0,0.0,0.0,0.0,0.0,-0.888,0.0,0.0,0.0,0.0,0.0,0.0,0.0,0.0,0.0,0.0,-0.797,-0.7914,-0.7983,0.0,0.0,0.0,0.0,0.0,-1.0428,-1.1658,-1.268,-1.3635,-1.4829,-1.5699,-1.5536,0.0,0.0,0.0,0.0,0.0,0.0,-1.7086,-1.8089,-2.0348,-2.156,-2.2338,-2.2679,-2.3804,-2.4686,-2.5046,-2.5929,-2.6512,-2.6512,-2.6512,-2.6662,-2.7021,-2.7036,-2.7036,-2.7036,-2.7036,-2.6871,-2.6512,-2.6512,-2.6677,-2.7036,-2.7036,-2.7215,-2.7625,-2.7625,-2.7408,-2.7034,-2.7408,-2.7357,-2.6982,-2.6283,-2.596,-2.5837,-2.4738,-2.406,-2.3649,-2.3649,-2.3424,-2.3078,-2.3078,-2.3078,-2.3078,0.0,0.0,0.0,0.0,0.0,0.0,0.0,0.0,0.0,0.0,0.0,0.0,0.0,0.0,0.0,0.0,0.0,0.0,0.0,0.0,0.0,0.0,0.0,0.0,0.0,0.0,0.0,0.0,0.0,0.0,0.0,0.0,0.0,0.0,0.0,0.0,0.0,0.0,0.0,-0.8869,0.0,0.0,0.0,0.0,0.0,0.0,0.0,0.0,0.0,0.0,0.0,0.0,0.0,0.0,0.0,-0.8102,-0.8102,-0.8446,-1.006,-1.0845,-1.1834,-1.4505,-1.5985,-1.6853,-1.7189,-1.6912,0.0,0.0,0.0,0.0,-1.7224,-1.8369,-1.975,-2.0782,-2.2039,-2.2892,-2.2892,-2.3894,-2.4582,-2.4582,-2.5211,-2.5615,-2.5615,-2.5615,-2.5809,-2.6318,-2.6363,-2.6363,-2.6363,-2.6363,-2.6123,-2.563,-2.5615,-2.5854,-2.6363,-2.6363,-2.6692,-2.7385,-2.755,-2.7232,-2.6556,-2.7282,-2.7203,-2.651,-2.6336,-2.5837,-2.5063,-2.4337,-2.3662,-2.3078,-2.3078,-2.3078,-2.3078,-2.3078,-2.3078,-2.3078,0.0,0.0,0.0,0.0,0.0,0.0,0.0,0.0,0.0,0.0,0.0,0.0,0.0,0.0,0.0,0.0,0.0,0.0,0.0,0.0,0.0,0.0,0.0,0.0,0.0,0.0,0.0,0.0,0.0,0.0,0.0,0.0,0.0,0.0,0.0,0.0,0.0,0.0,0.0,-0.888,-0.8736,0.0,0.0,0.0,0.0,0.0,0.0,0.0,0.0,0.0,0.0,0.0,0.0,0.0,-0.8102,-0.8102,-0.8102,-0.8634,-1.1032,-1.202,-1.2989,-1.5542,-1.5594,0.0,-1.7773,-1.7798,0.0,-1.8112,0.0,-1.8362,-1.8515,-2.0168,-2.1515,-2.1605,-2.2697,-2.3535,-2.3535,-2.4163,-2.4582,-2.4582,-2.5211,-2.5615,-2.5615,-2.5615,-2.563,-2.5674,-2.5674,-2.5674,-2.5674,-2.5674,-2.5659,-2.5615,-2.5615,-2.563,-2.5674,-2.5674,-2.6019,-2.6662,-2.7275,-2.7245,-2.6628,-2.729,-2.7203,-2.6457,-2.5783,-2.5063,-2.435,-2.3543,-2.3125,-2.3078,-2.3078,-2.3078,-2.3078,-2.3078,-2.3078,-2.3078,0.0,0.0,0.0,0.0,0.0,0.0,0.0,0.0,0.0,0.0,0.0,0.0,0.0,0.0,0.0,0.0,0.0,0.0,0.0,0.0,0.0,0.0,0.0,0.0,0.0,0.0,0.0,0.0,0.0,0.0,0.0,0.0,0.0,0.0,0.0,0.0,0.0,0.0,0.0,0.0,-0.8748,-0.8705,0.0,0.0,0.0,0.0,0.0,0.0,0.0,0.0,-0.8361,-0.8258,0.0,-0.8542,-0.845,-0.8319,-0.828,-0.8651,-1.0287,-1.1383,-1.2595,-1.4825,-1.5689,0.0,0.0,-1.8967,-1.9277,-1.9541,-1.9603,-1.9516,-1.9361,-2.0617,-2.1695,-2.1695,-2.2772,-2.3595,-2.3595,-2.3819,-2.3984,-2.3984,-2.4208,-2.4358,-2.4358,-2.4358,-2.4537,-2.4971,-2.5001,-2.5001,-2.5001,-2.5001,-2.4807,-2.4373,-2.4358,-2.4372,-2.4447,-2.44,-2.4312,-2.4204,-2.5667,-2.581,-2.4769,-2.545,-2.5349,-2.4546,-2.427,-2.4219,-2.4234,-2.3424,-2.3078,-2.3078,-2.3078,-2.3078,-2.3078,-2.3078,-2.3078,-2.3078,0.0,0.0,0.0,0.0,0.0,0.0,0.0,0.0,0.0,0.0,0.0,0.0,0.0,0.0,0.0,0.0,0.0,0.0,0.0,0.0,0.0,0.0,0.0,0.0,0.0,0.0,0.0,0.0,0.0,0.0,0.0,0.0,0.0,0.0,0.0,0.0,0.0,0.0,0.0,0.0,-0.8748,-0.8729,0.0,0.0,0.0,0.0,0.0,0.0,0.0,0.0,-0.8567,0.0,0.0,0.0,0.0,0.0,-0.8733,-0.9284,-1.0094,-1.1282,-1.2743,-1.4656,0.0,0.0,-1.8516,-1.9435,-2.0128,-2.0547,-2.0501,-2.0396,-2.0347,-2.1066,-2.1769,-2.1979,-2.2906,-2.3595,-2.3595,-2.3595,-2.3595,-2.3595,-2.3595,-2.3595,-2.3595,-2.3595,-2.3789,-2.4268,-2.4253,-2.4253,-2.4253,-2.4253,-2.4088,-2.361,-2.3595,-2.3541,-2.3389,-2.3389,-2.3046,-2.2408,-2.3712,-2.3995,-2.3349,-2.4297,-2.4142,-2.316,-2.316,-2.3349,-2.3625,-2.3039,-2.2975,-2.3078,-2.3078,-2.3078,-2.3078,-2.3078,-2.3078,-2.3078,0.0,0.0,0.0,0.0,0.0,0.0,0.0,0.0,0.0,0.0,0.0,0.0,0.0,0.0,0.0,0.0,0.0,0.0,0.0,0.0,0.0,0.0,0.0,0.0,0.0,0.0,0.0,0.0,0.0,0.0,0.0,0.0,0.0,0.0,0.0,0.0,0.0,0.0,0.0,0.0,0.0,-0.8783,-0.888,0.0,0.0,0.0,0.0,0.0,0.0,0.0,-0.8567,-0.8463,0.0,0.0,0.0,0.0,-0.945,-1.0639,-1.0758,-1.2014,-1.3713,0.0,0.0,0.0,-1.8403,-1.9058,-1.9774,-2.1023,-2.0999,-2.0917,-2.1575,-2.1695,-2.1919,-2.2604,-2.3191,-2.3595,-2.3595,-2.3595,-2.3595,-2.3595,-2.3595,-2.3595,-2.3595,-2.3595,-2.3595,-2.3595,-2.3595,-2.3595,-2.3595,-2.3595,-2.3595,-2.3595,-2.3595,-2.329,-2.2694,-2.2694,-2.2346,-2.1697,-2.1697,-2.2028,-2.2713,-2.4069,-2.389,-2.2564,-2.2564,-2.247,-2.2297,-2.2297,-2.2636,-2.3065,-2.3065,-2.3125,-2.3078,-2.3078,-2.3078,-2.3078,0.0,0.0,0.0,0.0,0.0,0.0,0.0,0.0,0.0,0.0,0.0,0.0,0.0,0.0,0.0,0.0,0.0,0.0,0.0,0.0,0.0,0.0,0.0,0.0,0.0,0.0,0.0,0.0,0.0,0.0,0.0,0.0,0.0,0.0,0.0,0.0,0.0,0.0,0.0,0.0,0.0,-0.8946,-0.8891,0.0,0.0,0.0,0.0,0.0,0.0,0.0,0.0,0.0,0.0,0.0,0.0,-0.8717,-0.9608,-1.0924,-1.0836,-1.22,-1.4006,-1.5437,0.0,0.0,0.0,-1.9166,0.0,0.0,-2.1143,-2.1455,-2.1665,-2.2084,-2.2484,-2.2679,-2.3191,-2.3595,-2.3595,-2.3595,-2.3595,-2.3595,-2.3595,-2.3595,-2.3595,-2.3595,-2.3595,-2.3595,-2.3595,-2.3595,-2.3595,-2.3595,-2.3595,-2.3595,-2.3201,-2.2665,-2.1993,-2.1595,-2.1028,-2.037,-2.0818,-2.1171,-2.1394,-2.1767,-2.1674,-2.1268,-2.1268,-2.1424,-2.1732,-2.1732,-2.2058,-2.256,-2.256,-2.2786,-2.3078,-2.3078,-2.3078,-2.3078,0.0,0.0,0.0,0.0,0.0,0.0,0.0,0.0,0.0,0.0,0.0,0.0,0.0,0.0,0.0,0.0,0.0,0.0,0.0,0.0,0.0,0.0,0.0,0.0,0.0,0.0,0.0,0.0,0.0,0.0,0.0,0.0,0.0,0.0,0.0,0.0,0.0,0.0,0.0,0.0,0.0,-0.9022,-0.8891,0.0,0.0,0.0,0.0,0.0,0.0,0.0,0.0,0.0,0.0,0.0,0.0,-0.9212,-1.0077,-1.1331,-1.1854,-1.3353,0.0,-1.6278,-1.764,-1.8777,-1.9031,-1.9809,-2.0602,-2.1021,-2.162,-2.2158,-2.2413,-2.2577,-2.2798,-2.2996,-2.3355,-2.3595,-2.3595,-2.3595,-2.3595,-2.3595,-2.3595,-2.3595,-2.3595,-2.3595,-2.3595,-2.3595,-2.3595,-2.3595,-2.3595,-2.3595,-2.3508,-2.3246,-2.2875,-2.2267,-2.1342,-2.1197,-2.067,-1.9798,-2.0497,-2.0646,-2.0396,-2.0696,-2.0641,-2.0338,-2.0618,-2.0853,-2.1179,-2.1393,-2.1681,-2.2008,-2.2234,-2.2523,-2.2836,-2.299,-2.3078,-2.3078,0.0,0.0,-0.4939,-0.5681,0.0,0.0,0.0,0.0,0.0,0.0,0.0,0.0,0.0,0.0,0.0,-0.9899,0.0,0.0,0.0,0.0,0.0,0.0,0.0,0.0,0.0,0.0,0.0,0.0,0.0,0.0,0.0,0.0,0.0,0.0,0.0,-0.9491,0.0,0.0,0.0,0.0,-0.9109,-0.9043,-0.8891,-0.8891,0.0,0.0,0.0,0.0,0.0,0.0,0.0,0.0,-0.8741,0.0,-0.8734,-0.9653,-1.0678,-1.1827,-1.3247,-1.4927,-1.6486,-1.7449,-1.8268,-1.8957,-1.9555,-2.0677,-2.1605,-2.1605,-2.2128,-2.2787,-2.34,-2.3056,-2.2877,-2.349,-2.3595,-2.3595,-2.3595,-2.3595,-2.3595,-2.3595,-2.3595,-2.3595,-2.3595,-2.3595,-2.3595,-2.3595,-2.3595,-2.3595,-2.3595,-2.3595,-2.3334,-2.2694,-2.2649,-2.2035,-2.0795,-2.1342,-2.0988,-1.9798,-2.0497,-2.0459,-1.9798,-2.0446,-2.0396,-1.9823,-2.0351,-2.0643,-2.068,-2.1129,-2.1368,-2.1468,-2.197,-2.2196,-2.2297,-2.2799,-2.2965,-2.3002,0.0,0.0,-0.6453,-0.7189,0.0,0.0,0.0,0.0,0.0,-0.921,-0.9376,-0.9524,-0.9721,-0.9812,0.0,-0.9967,-1.0048,0.0,0.0,0.0,0.0,0.0,0.0,0.0,0.0,0.0,0.0,0.0,0.0,0.0,0.0,0.0,0.0,0.0,0.0,0.0,0.0,0.0,0.0,0.0,-0.9208,-0.9109,-0.8891,-0.8891,-0.8891,0.0,0.0,0.0,0.0,0.0,0.0,0.0,-0.8705,-0.9181,-0.9576,-0.8756,-1.0409,-1.2456,-1.2276,-1.4036,0.0,-1.7401,-1.8612,-1.951,-1.966,-2.0333,-2.0932,-2.0932,-2.1455,-2.2113,-2.2757,-2.2813,-2.2877,-2.349,-2.3595,-2.3595,-2.3595,-2.3595,-2.3595,-2.3595,-2.3595,-2.3595,-2.3595,-2.3595,-2.3595,-2.3595,-2.3595,-2.3595,-2.3595,-2.3595,-2.3334,-2.2694,-2.2193,-2.1582,-2.0795,-2.0944,-2.0584,-1.9798,-2.0497,-2.0459,-1.9798,-1.9952,-1.9952,-1.9811,-1.9936,-1.9987,-1.9999,-2.0112,-2.0426,-2.0853,-2.102,-2.128,-2.1681,-2.1794,-2.2121,-2.2485,0.0,0.0,0.0,0.0,0.0,0.0,0.0,0.0,0.0,-0.9269,-0.9447,-0.9583,-0.9777,-0.9869,0.0,0.0,-1.0065,-1.0094,0.0,0.0,0.0,0.0,0.0,0.0,0.0,0.0,0.0,0.0,0.0,0.0,0.0,0.0,0.0,0.0,0.0,0.0,0.0,0.0,0.0,-0.9189,-0.9199,-0.9078,-0.8891,-0.8891,-0.8891,-0.8891,-0.8891,0.0,0.0,0.0,0.0,0.0,0.0,0.0,-0.9127,-0.8987,-1.0131,-1.1595,-1.2508,0.0,0.0,-1.8179,-1.9181,-1.969,-1.969,-1.9959,-2.0228,-2.0228,-2.1006,-2.1799,-2.2143,-2.2203,-2.2413,-2.3056,-2.3161,-2.3266,-2.355,-2.3595,-2.3595,-2.3595,-2.3595,-2.3595,-2.3595,-2.3595,-2.3595,-2.3595,-2.3595,-2.3595,-2.3595,-2.3334,-2.286,-2.2239,-2.1582,-2.0966,-2.0346,-2.0646,-2.0446,-1.9798,-2.0497,-2.0459,-1.9798,-1.9798,-1.9798,-1.9798,-1.9798,-1.9798,-1.9798,-1.9798,-1.9987,-2.0275,-2.0605,-2.0894,-2.1129,-2.1393,-2.1669,-2.192,0.0,0.0,0.0,0.0,0.0,0.0,0.0,0.0,0.0,-0.9339,-0.9534,-0.9612,-0.9798,-0.9869,-0.9949,0.0,0.0,0.0,-1.0094,0.0,0.0,0.0,0.0,0.0,0.0,0.0,0.0,0.0,0.0,0.0,0.0,0.0,0.0,0.0,0.0,0.0,0.0,0.0,0.0,-0.9293,-0.9149,-0.9043,-0.8936,-0.8902,-0.8891,-0.8891,-0.8891,-0.8891,-0.8869,-0.8736,0.0,0.0,0.0,0.0,-0.8279,-0.9269,-0.971,-1.0369,-1.2538,0.0,-1.6398,-1.8882,-1.96,-1.969,-1.969,-1.969,-1.969,-1.969,-2.0572,-2.138,-2.15,-2.153,-2.1739,-2.2439,-2.2544,-2.2682,-2.3063,-2.3227,-2.3301,-2.3301,-2.339,-2.3465,-2.3595,-2.3595,-2.3595,-2.3595,-2.3508,-2.3465,-2.3465,-2.2875,-2.2207,-2.1568,-2.1077,-2.0497,-1.9798,-2.0446,-2.0446,-1.9798,-2.0346,-2.0359,-1.9798,-1.9798,-1.9798,-1.9798,-1.9798,-1.9798,-1.9798,-1.9798,-1.9798,-1.9849,-2.0326,-2.0514,-2.0618,-2.1029,-2.1255,-2.1343,0.0,0.0,0.0,0.0,0.0,0.0,0.0,0.0,0.0,0.0,-0.9693,-0.9798,-0.9869,-0.9955,-1.0006,-1.0082,-1.009,-1.0094,0.0,0.0,0.0,0.0,0.0,0.0,0.0,0.0,0.0,0.0,0.0,0.0,0.0,0.0,0.0,0.0,0.0,0.0,0.0,0.0,0.0,-0.9293,-0.9149,-0.9078,-0.9057,-0.8946,-0.8891,-0.8891,-0.8891,-0.8891,-0.8869,-0.8736,-0.8705,0.0,0.0,0.0,-0.8108,-0.8153,-0.8993,-0.998,-1.0324,0.0,-1.6293,0.0,-1.9271,-1.969,-1.969,-1.969,-1.969,-1.969,-1.9824,-2.0139,-2.0737,-2.0842,-2.1051,-2.1724,-2.1829,-2.1724,-2.1318,-2.1671,-2.2019,-2.2105,-2.2541,-2.3024,-2.3551,-2.3595,-2.3595,-2.3595,-2.3113,-2.283,-2.283,-2.2193,-2.1568,-2.0944,-2.0845,-2.0497,-1.9798,-2.0446,-2.0446,-1.9798,-1.9901,-1.9901,-1.9798,-1.9798,-1.9798,-1.9798,-1.9798,-1.9798,-1.9798,-1.9798,-1.9798,-1.9811,-1.9886,-1.9911,-1.9924,-1.9999,-2.0338,-2.0832,0.0,0.0,0.0,0.0,0.0,0.0,0.0,0.0,0.0,0.0,0.0,-0.9847,-1.0003,-1.0047,-1.0063,-1.0109,-1.0094,0.0,0.0,0.0,0.0,0.0,0.0,0.0,0.0,0.0,0.0,0.0,0.0,0.0,0.0,-1.1581,-1.182,0.0,0.0,0.0,0.0,0.0,0.0,-0.9179,-0.9119,-0.9554,0.0,0.0,-0.9416,-1.0026,-0.9196,-0.8863,-0.8771,-0.8729,-0.8538,-0.8345,-0.8158,0.0,0.0,0.0,-0.8589,-0.9743,-1.158,-1.3615,-1.5785,0.0,-1.8927,-1.9226,-1.96,-1.969,-1.969,-1.969,-1.969,-1.9779,-2.0094,-2.0139,-2.0363,-2.1036,-2.1141,-2.1198,-2.134,-2.1554,-2.1715,-2.1772,-2.2022,-2.2142,-2.2085,-2.2352,-2.231,-2.1672,-2.1686,-2.1556,-2.1235,-2.0909,-2.0469,-1.9866,-1.9824,-1.9519,-1.8907,-1.9506,-1.9812,-1.9798,-1.9798,-1.9798,-1.9798,-1.9798,-1.9798,-1.9798,-1.9798,-1.9798,-1.9798,-1.9798,-1.9798,-1.9798,-1.9798,-1.9798,-1.9798,-1.9798,-1.9962,-2.0188,0.0,0.0,0.0,0.0,0.0,0.0,0.0,0.0,0.0,0.0,0.0,-0.99,-1.0066,0.0,0.0,0.0,-1.0094,0.0,0.0,0.0,0.0,0.0,0.0,0.0,0.0,0.0,0.0,0.0,0.0,0.0,-1.2095,-1.2095,-1.2627,0.0,-1.2707,0.0,0.0,0.0,0.0,-0.9372,-0.9372,-0.9984,-1.0794,-1.0055,-1.0449,-1.1231,0.0,-0.9395,-0.9234,-0.8784,-0.8463,-0.8224,-0.809,-0.7996,0.0,0.0,0.0,-0.9278,0.0,0.0,-1.4663,-1.7296,-1.8208,-1.8627,-1.9286,-1.957,-1.969,-1.969,-1.969,-1.969,-1.969,-1.969,-1.9854,-2.0363,-2.0453,-2.058,-2.0941,-2.1109,-2.1213,-2.1228,-2.1241,-2.1152,-2.0905,-2.1126,-2.0947,-2.0173,-2.033,-2.0288,-1.9855,-1.9661,-1.9329,-1.8885,-1.8808,-1.8618,-1.8204,-1.8618,-1.9083,-1.961,-1.961,-1.9673,-1.9798,-1.9798,-1.9798,-1.9798,-1.9798,-1.9798,-1.9798,-1.9798,-1.9798,-1.9798,-1.9798,-1.9798,-1.9798,-1.9798,-1.9798,-1.9798,0.0,0.0,0.0,0.0,0.0,0.0,0.0,0.0,0.0,0.0,0.0,-1.0001,-0.9992,-1.0061,-1.009,-1.0094,-1.0094,0.0,0.0,0.0,0.0,0.0,0.0,0.0,0.0,0.0,0.0,0.0,0.0,0.0,-1.2095,-1.2095,-1.2939,-1.4396,-1.34,-1.203,-1.0471,0.0,0.0,-1.0135,-1.0135,-1.0175,-1.0375,-1.1644,-1.2162,-1.2128,-1.1282,-1.0978,-1.0703,-0.8994,-0.853,-0.8579,-0.8068,-0.7997,-0.8063,0.0,0.0,0.0,0.0,-1.1461,0.0,-1.5289,-1.6862,-1.7921,-1.8612,-1.9226,-1.969,-1.969,-1.969,-1.969,-1.969,-1.969,-1.969,-1.9735,-1.9735,-1.9589,-1.9107,-1.9458,-1.9846,-1.9969,-1.9992,-2.0217,-2.0864,-2.0472,-2.0173,-2.0087,-1.9534,-1.9163,-1.9163,-1.8613,-1.8276,-1.8251,-1.8229,-1.8242,-1.8204,-1.8229,-1.853,-1.9021,-1.9021,-1.9334,-1.9798,-1.9798,-1.9798,-1.9798,-1.9798,-1.9798,-1.9798,-1.9798,-1.9798,-1.9798,-1.9798,-1.9798,-1.9798,-1.9798,-1.9798,-1.9798,0.0,0.0,0.0,0.0,0.0,0.0,0.0,0.0,0.0,0.0,0.0,0.0,0.0,-1.0144,-1.0156,-1.0094,0.0,0.0,0.0,0.0,0.0,0.0,0.0,0.0,0.0,0.0,0.0,0.0,0.0,-1.0281,-1.1333,-1.1333,-1.1589,-1.2077,-1.2224,-1.2234,-1.2028,-1.039,0.0,-1.0262,-1.0215,-1.102,0.0,-1.2278,-1.3176,-1.4259,-1.3024,-1.22,-1.1571,-1.0874,-0.9958,-0.9047,-0.8757,-0.8347,-0.7955,-0.7914,-0.8199,-0.8784,-0.992,0.0,-1.2239,-1.4049,-1.55,-1.6757,-1.7834,-1.8583,-1.9166,-1.96,-1.969,-1.969,-1.969,-1.969,-1.969,-1.969,-1.969,-1.9639,-1.9442,-1.9284,-1.9185,-1.9238,-1.8939,-1.8714,-1.859,-1.8728,-1.8508,-1.786,-1.7889,-1.7804,-1.7439,-1.7586,-1.7501,-1.7137,-1.7476,-1.7677,-1.7677,-1.7677,-1.8129,-1.8983,-1.8983,-1.9296,-1.9798,-1.9798,-1.9798,-1.9798,-1.9798,-1.9798,-1.9798,-1.9798,-1.9798,-1.9798,-1.9798,-1.9798,-1.9798,-1.9798,-1.9798,-1.9798,0.0,0.0,0.0,-0.9899,0.0,-0.996,-0.9938,-0.9955,0.0,0.0,0.0,0.0,0.0,0.0,0.0,0.0,0.0,0.0,0.0,0.0,0.0,0.0,0.0,0.0,0.0,0.0,0.0,0.0,0.0,0.0,0.0,0.0,-1.0968,-1.1099,-1.1381,-1.1736,0.0,0.0,0.0,-1.0606,-1.1123,-1.2023,-1.3091,-1.3582,-1.453,-1.546,-1.4351,-1.3574,-1.2916,-1.2209,-1.105,-0.984,-0.9478,-0.8682,-0.7899,-0.7899,-0.8214,-0.8725,-0.9383,0.0,0.0,-1.3017,-1.415,-1.5231,-1.6965,-1.7876,-1.8553,-1.9226,-1.9525,-1.969,-1.969,-1.969,-1.969,-1.969,-1.969,-1.9639,-1.9442,-1.9132,-1.8817,-1.865,-1.8185,-1.7706,-1.7353,-1.7626,-1.7463,-1.6552,-1.6993,-1.7076,-1.6522,-1.6886,-1.6911,-1.6522,-1.6886,-1.7087,-1.7087,-1.7087,-1.7551,-1.848,-1.848,-1.8756,-1.9271,-1.9459,-1.9547,-1.9547,-1.9723,-1.9798,-1.9798,-1.9798,-1.9798,-1.9798,-1.9798,-1.9798,-1.9798,-1.9798,-1.9798,-1.9798,-0.9899,-0.9965,-0.9977,-0.9916,-1.0016,-1.0078,-1.0006,-1.0061,0.0,0.0,0.0,0.0,0.0,0.0,0.0,0.0,0.0,0.0,0.0,0.0,0.0,0.0,0.0,0.0,0.0,0.0,0.0,0.0,0.0,0.0,0.0,0.0,-1.1205,0.0,-1.1035,-1.0486,-1.0255,0.0,-1.1852,-1.1276,-1.2875,-1.3084,-1.2703,-1.5581,-1.6258,-1.5623,-1.5305,-1.5162,-1.4864,-1.2869,-1.1749,-1.1043,-1.0203,-0.9008,-0.7929,-0.7929,-0.7944,-0.8094,0.0,0.0,0.0,-1.2066,-1.2726,-1.3436,-1.601,-1.71,-1.7772,-1.8523,-1.9181,-1.963,-1.9675,-1.969,-1.969,-1.969,-1.969,-1.9479,-1.8968,-1.8855,-1.865,-1.8145,-1.7585,-1.7271,-1.7271,-1.7312,-1.7076,-1.6552,-1.6993,-1.7076,-1.6522,-1.6522,-1.6522,-1.6522,-1.6522,-1.6522,-1.6522,-1.6522,-1.681,-1.7388,-1.7388,-1.7664,-1.8229,-1.8756,-1.8958,-1.9032,-1.9547,-1.9773,-1.9773,-1.9798,-1.9798,-1.9798,-1.9798,-1.9798,-1.9798,-1.9798,-1.9798,-1.9798,-1.0048,-1.0061,-1.007,-1.0052,-1.0074,-1.009,-1.0078,-1.0086,0.0,0.0,0.0,0.0,0.0,0.0,0.0,0.0,0.0,0.0,0.0,0.0,0.0,0.0,0.0,0.0,0.0,0.0,0.0,0.0,0.0,0.0,0.0,0.0,0.0,0.0,-1.0292,-0.9994,-0.9424,-0.9846,0.0,-1.2078,-1.1889,-1.2954,-1.4783,-1.5578,-1.6441,-1.7142,-1.6818,-1.6656,-1.6408,-1.4915,-1.393,-1.3036,-1.1152,-0.965,-0.8619,-0.8619,-0.8963,-0.9172,-0.8394,0.0,0.0,0.0,0.0,0.0,-1.36,-1.4408,-1.5457,-1.7533,-1.81,-1.8553,-1.951,-1.969,-1.969,-1.969,-1.9369,-1.908,-1.893,-1.8224,-1.7706,-1.7544,-1.7034,-1.671,-1.671,-1.7076,-1.7076,-1.6552,-1.6993,-1.7076,-1.6522,-1.6522,-1.6522,-1.6522,-1.6522,-1.6522,-1.6522,-1.6522,-1.681,-1.7388,-1.7388,-1.7664,-1.8216,-1.8355,-1.843,-1.8455,-1.9007,-1.9246,-1.9271,-1.9648,-1.9798,-1.9798,-1.9798,-1.9798,-1.9798,-1.9798,-1.9798,-1.9798,-1.0094,-1.0094,-1.0094,-1.0094,-1.0094,-1.0094,-1.0094,-1.0078,0.0,0.0,0.0,0.0,0.0,0.0,0.0,0.0,0.0,0.0,0.0,0.0,0.0,0.0,-0.9831,0.0,0.0,0.0,0.0,0.0,0.0,0.0,0.0,0.0,0.0,0.0,-0.9771,-0.9617,-0.9088,-0.9088,-1.0186,-1.1981,-1.2683,-1.3853,-1.524,-1.617,-1.6761,-1.7159,-1.742,-1.7387,-1.7152,-1.6496,-1.5488,-1.4065,-1.1893,-1.0713,-1.0013,-0.9473,-0.977,-1.0054,-0.9007,-0.9845,-1.0862,-1.0268,0.0,0.0,-1.2927,-1.3735,-1.4737,-1.6548,-1.7341,-1.7921,-1.8732,-1.9091,-1.9271,-1.9271,-1.9068,-1.8817,-1.8612,-1.8027,-1.7463,-1.7034,-1.668,-1.6522,-1.6522,-1.7188,-1.7312,-1.6552,-1.7188,-1.7312,-1.6552,-1.6522,-1.6522,-1.6522,-1.6522,-1.6522,-1.6522,-1.6522,-1.6685,-1.7024,-1.7024,-1.7187,-1.7513,-1.7752,-1.7865,-1.7903,-1.8694,-1.8983,-1.9021,-1.9585,-1.9798,-1.9798,-1.9798,-1.9798,-1.9798,-1.9798,-1.9798,-1.9798,0.0,-1.0082,-1.0078,-1.0086,-1.0082,-1.0078,-1.0078,-1.0034,-0.9987,0.0,0.0,0.0,0.0,0.0,0.0,0.0,0.0,0.0,0.0,0.0,0.0,-0.9717,-0.9775,-0.9798,0.0,0.0,0.0,0.0,0.0,0.0,0.0,0.0,0.0,0.0,-0.9394,-0.9312,-0.9106,-0.9258,-1.0064,-1.1468,-1.4141,-1.5037,-1.4969,-1.6931,-1.7194,-1.6614,-1.7486,-1.7716,-1.7604,-1.7753,-1.6578,-1.4692,-1.2822,-1.2134,-1.1775,-1.0578,-1.0608,0.0,-1.0279,-1.0219,0.0,-1.1461,-1.1416,0.0,-1.3097,-1.4034,-1.4752,-1.5439,-1.6488,-1.7294,-1.7443,-1.8044,-1.8493,-1.8493,-1.8708,-1.8731,-1.8249,-1.8106,-1.7666,-1.671,-1.6552,-1.6522,-1.6522,-1.7463,-1.7666,-1.6595,-1.7394,-1.7504,-1.6552,-1.6522,-1.6522,-1.6522,-1.6522,-1.6522,-1.6522,-1.6522,-1.6522,-1.6522,-1.6522,-1.6522,-1.6534,-1.7049,-1.7287,-1.735,-1.8392,-1.8795,-1.8894,-1.9472,-1.9748,-1.9798,-1.9798,-1.9798,-1.9798,-1.9798,-1.9798,-1.9798,-1.0011,-0.9981,-0.996,-1.0001,-0.9981,-0.9938,-0.9938,-0.9927,0.0,0.0,0.0,0.0,0.0,0.0,0.0,0.0,0.0,0.0,0.0,0.0,-0.9882,-0.9869,-0.9825,-0.9798,-0.9798,0.0,0.0,0.0,0.0,0.0,0.0,0.0,0.0,0.0,-0.9139,-0.9054,-0.9175,-1.0249,-1.1226,-1.2111,-1.2703,-1.4276,-1.6326,-1.6766,-1.7518,-1.8322,-1.7947,-1.8492,-1.931,-1.873,-1.755,-1.6174,-1.5291,-1.4274,-1.3256,-1.2486,-1.2336,-1.2276,-1.161,-1.2224,-1.2718,-1.1335,-1.2097,0.0,-1.1664,-1.2328,-1.3385,-1.4049,-1.4393,-1.4902,-1.5978,-1.6682,-1.71,-1.71,-1.8019,-1.8729,-1.8745,-1.7987,-1.7394,-1.7146,-1.6752,-1.6522,-1.6522,-1.7463,-1.7666,-1.6595,-1.668,-1.671,-1.6522,-1.6522,-1.6522,-1.6522,-1.6522,-1.6522,-1.6522,-1.6522,-1.6522,-1.6522,-1.6522,-1.6522,-1.6522,-1.6635,-1.6685,-1.6722,-1.74,-1.7702,-1.7777,-1.8769,-1.9422,-1.9798,-1.9798,-1.9798,-1.9798,-1.9798,-1.9798,-1.9798,-0.9955,-0.9922,-0.9904,-0.9949,-0.9922,-0.991,-0.9949,-0.9922,0.0,0.0,0.0,0.0,0.0,0.0,0.0,0.0,0.0,0.0,0.0,0.0,-0.9838,-0.9798,-0.9775,-0.9747,-0.9747,-0.9657,0.0,0.0,0.0,0.0,0.0,0.0,0.0,0.0,0.0,-0.9239,-0.9662,-0.9901,-1.067,-1.1823,-1.3346,-1.4941,-1.6497,-1.7057,-1.7595,-1.8129,-1.8255,-1.8965,-1.9657,-1.8567,-1.7742,-1.7025,-1.6113,-1.5545,-1.5054,-1.4079,-1.4045,-1.409,-1.3077,-1.3301,-1.3645,-1.2972,-1.3316,0.0,0.0,-1.3062,-1.357,-1.4588,-1.4274,-1.4214,-1.5559,-1.6039,-1.6159,-1.5933,-1.7181,-1.8076,-1.7755,-1.768,-1.7585,-1.7353,-1.6837,-1.6522,-1.6522,-1.7229,-1.7463,-1.6951,-1.6637,-1.6522,-1.6522,-1.6522,-1.6522,-1.6522,-1.6522,-1.6522,-1.6522,-1.6522,-1.6522,-1.6522,-1.6522,-1.6522,-1.6522,-1.6522,-1.6522,-1.6547,-1.7137,-1.7388,-1.7451,-1.8279,-1.8932,-1.9447,-1.9698,-1.9798,-1.9798,-1.9798,-1.9798,-1.9798,-0.9893,-0.9881,-0.9881,-0.991,-0.9904,-0.991,-0.9946,-0.9916,0.0,0.0,0.0,0.0,0.0,0.0,0.0,0.0,0.0,0.0,0.0,-1.0035,-0.9865,-0.9675,-0.9649,-0.9641,-0.9625,-0.9542,0.0,0.0,0.0,0.0,0.0,0.0,0.0,0.0,0.0,0.0,0.0,0.0,-1.0224,-1.1883,-1.4376,-1.5549,-1.5929,-1.7204,-1.7566,-1.7561,-1.8695,-1.935,-1.9495,-1.8313,-1.7876,-1.7652,-1.6368,-1.6413,-1.6667,-1.5515,-1.5635,-1.5919,-1.4857,-1.4546,-1.4603,-1.4752,-1.4677,-1.4543,0.0,0.0,0.0,-1.5231,-1.4543,-1.4139,-1.5229,-1.5353,-1.5196,-1.4819,-1.6091,-1.6848,-1.6073,-1.6858,-1.7351,-1.705,-1.6606,-1.6358,-1.6358,-1.6651,-1.6952,-1.7299,-1.659,-1.6296,-1.6509,-1.6522,-1.6522,-1.6522,-1.6522,-1.6522,-1.6522,-1.6522,-1.6522,-1.6522,-1.6522,-1.6522,-1.6522,-1.6522,-1.6522,-1.6547,-1.7011,-1.7212,-1.7262,-1.7815,-1.8304,-1.8781,-1.9409,-1.971,-1.9798,-1.9798,-1.9798,-1.9798,-0.9893,-0.9857,-0.9838,-0.9962,-0.9944,-0.9875,-0.9838,-0.9818,0.0,0.0,0.0,0.0,0.0,-1.4693,-1.4361,-1.4617,-1.2669,-1.142,-1.1474,-1.0877,-1.0204,-0.9562,-0.9525,-0.9474,-0.9349,-0.9439,-0.95,0.0,0.0,0.0,0.0,0.0,-0.9056,-0.9234,-0.9691,0.0,0.0,-1.0605,-1.1939,-1.3719,-1.4368,-1.4498,-1.4549,-1.6515,-1.749,-1.8039,-1.9561,-1.9932,-1.957,-1.8837,-1.8597,-1.8358,-1.701,-1.7055,-1.7428,-1.6697,-1.695,-1.7443,-1.7294,-1.7249,-1.6846,-1.5201,-1.6039,-1.6502,-1.366,0.0,-1.5289,-1.4244,0.0,-1.3855,-1.4004,0.0,0.0,-1.3501,-1.4355,-1.4828,-1.4188,-1.4713,-1.5345,-1.5841,-1.5826,-1.5781,-1.5781,-1.5421,-1.5761,-1.7192,-1.5915,-1.5492,-1.6471,-1.6522,-1.6522,-1.6522,-1.6522,-1.6522,-1.6522,-1.6522,-1.6522,-1.6522,-1.6522,-1.6522,-1.6522,-1.6522,-1.6522,-1.6522,-1.6584,-1.6609,-1.666,-1.7237,-1.7513,-1.7664,-1.8706,-1.9397,-1.9798,-1.9798,-1.9798,-1.9798,-0.9887,-0.9888,-0.9869,-0.9933,-0.9881,-1.0,-1.0475,-1.1787,0.0,0.0,0.0,0.0,-1.7126,-1.5998,-1.5386,-1.5878,-1.4168,-1.2854,-1.2431,-1.1674,0.0,-1.0843,-1.0041,-0.9717,-0.9928,-0.9571,-0.9349,0.0,-0.9208,0.0,0.0,0.0,-0.9223,-0.9634,-0.9886,-1.0491,-1.1333,-1.1164,-1.1769,-1.2917,-1.3757,-1.3873,-1.3898,-1.6767,-1.8161,-1.878,-1.9626,-1.9839,-1.9585,-1.8927,-1.8448,-1.8104,-1.7939,-1.7518,-1.7145,-1.7249,-1.7473,-1.7608,-1.7234,-1.7399,-1.7399,-1.6189,-1.6517,-1.6667,-1.4944,-1.4899,-1.5261,-1.5442,0.0,0.0,0.0,0.0,0.0,0.0,-1.3149,-1.3341,-1.2625,-1.2979,-1.3661,-1.4612,-1.4426,-1.4387,-1.4752,-1.4563,-1.4828,-1.5839,-1.5285,-1.5216,-1.6007,-1.6346,-1.6522,-1.6522,-1.6522,-1.6522,-1.6522,-1.6522,-1.6522,-1.6522,-1.6522,-1.6522,-1.6522,-1.6522,-1.6522,-1.6522,-1.6522,-1.6522,-1.6534,-1.6773,-1.7074,-1.7426,-1.789,-1.8593,-1.9384,-1.9698,-1.9798,-1.9798,-0.9881,0.0,-0.9869,-0.9887,-0.9869,-1.0118,-1.0951,-1.2951,-1.4466,-1.4681,-1.6079,-1.7416,-1.8398,-1.7292,-1.6796,-1.7523,-1.5896,-1.4579,-1.4032,-1.2882,-1.2131,-1.1967,-1.0785,-1.0198,-1.0279,-0.9803,-0.9407,-0.9088,-0.9088,0.0,0.0,0.0,0.0,-0.9726,-1.0119,-1.1045,-1.2263,-1.1891,-1.2271,-1.3233,-1.4092,-1.4597,-1.5108,-1.7316,-1.8636,-1.9394,-1.9617,-1.969,-1.9585,-1.8927,-1.8388,-1.8044,-1.8343,-1.7876,-1.7339,-1.7817,-1.8119,-1.8149,-1.7637,-1.7861,-1.7969,-1.6741,-1.6712,-1.6667,-1.5515,-1.5291,-1.5545,-1.6293,-1.5357,0.0,0.0,0.0,-1.2955,-1.2197,0.0,-1.2178,-1.1277,-1.1497,-1.2184,-1.3224,-1.3139,-1.322,-1.3808,-1.3594,-1.377,-1.4626,-1.44,-1.4638,-1.5643,-1.607,-1.6358,-1.6509,-1.6522,-1.6522,-1.6522,-1.6522,-1.6522,-1.6522,-1.6522,-1.6522,-1.6522,-1.6522,-1.6522,-1.6522,-1.6522,-1.6522,-1.6522,-1.6522,-1.6773,-1.7162,-1.7325,-1.7965,-1.8869,-1.9397,-1.9673,-1.9798,-0.9893,-0.985,0.0,-0.9881,-0.9893,-1.0145,-1.0886,-1.2345,-1.364,-1.4419,-1.5912,-1.7442,-1.8836,-1.8699,-1.9001,-2.0251,-1.807,-1.6663,-1.677,-1.4745,-1.3194,-1.2405,-1.164,-1.0861,-1.0043,-1.0127,-0.9829,-0.9088,-0.9088,0.0,0.0,0.0,0.0,0.0,-1.0432,-1.1519,-1.2348,-1.3041,-1.4379,-1.6049,-1.6046,-1.722,-1.8914,-1.8042,-1.8542,-1.9696,-1.9711,-1.969,-1.9585,-1.8927,-1.8687,-1.8568,-1.7921,-1.8164,-1.8642,-1.8672,-1.9121,-1.9615,-1.96,-1.9615,-1.9001,-1.6473,-1.6757,-1.6995,-1.4453,-1.5293,-1.6488,-1.5948,-1.5918,-1.5843,-1.5205,-1.3963,-1.282,0.0,-1.186,0.0,0.0,-1.0408,-1.0973,-1.1593,-1.2115,-1.2655,-1.3173,-1.2291,-1.2373,-1.3984,-1.3094,-1.3433,-1.558,-1.5718,-1.5969,-1.6497,-1.6522,-1.6522,-1.6522,-1.6522,-1.6522,-1.6522,-1.6522,-1.6522,-1.6522,-1.6522,-1.6522,-1.6522,-1.6522,-1.6522,-1.6522,-1.6522,-1.6522,-1.6609,-1.7162,-1.7727,-1.8292,-1.8844,-1.9371,-1.9798,0.0,0.0,0.0,-0.9982,-0.9869,-1.0431,-1.2244,-1.432,-1.6104,-1.7261,-1.8348,-1.9525,-2.0832,-2.0427,-2.0385,-2.1166,-1.9952,-1.8726,-1.7752,-1.605,-1.4951,-1.4727,-1.2606,-1.1685,-1.2245,-1.0891,-1.0019,-0.9696,-0.9196,-0.8968,0.0,0.0,0.0,0.0,0.0,-1.1806,-1.3091,-1.3802,-1.4815,-1.5967,-1.6347,-1.7715,-1.9491,-1.9141,-1.9301,-1.969,-1.969,-1.969,-1.966,-1.9435,-1.9061,-1.8747,-1.8957,-1.8583,-1.8149,-1.8583,-1.8867,-1.9031,-1.9031,-1.9346,-1.9256,-1.7505,-1.7386,-1.7234,-1.5515,-1.5935,-1.6532,-1.5933,-1.5962,-1.5883,-1.5219,-1.3946,-1.2922,0.0,0.0,-1.0885,0.0,-1.0268,-1.0257,-1.0445,-1.096,-1.1345,-1.152,-1.1236,-1.1563,-1.2868,-1.2617,-1.3207,-1.5053,-1.5492,-1.5957,-1.6497,-1.6522,-1.6522,-1.6522,-1.6522,-1.6522,-1.6522,-1.6522,-1.6522,-1.6522,-1.6522,-1.6522,-1.6522,-1.6522,-1.6522,-1.6522,-1.6522,-1.6522,-1.6534,-1.6735,-1.7388,-1.8267,-1.8819,-1.9359,-1.9798,-1.1278,-1.1095,-1.077,-1.0338,-1.0681,-1.1661,-1.3445,-1.5689,-1.7597,-1.8752,-1.9309,-2.0217,-2.1839,-2.1392,-2.1237,-2.1923,-2.1204,-2.0137,-1.8865,-1.7612,-1.6689,-1.6201,-1.4348,-1.3426,-1.3611,-1.2122,-1.0968,-1.0211,-0.9592,-0.9162,0.0,0.0,0.0,0.0,0.0,-1.1974,-1.3464,-1.4335,-1.5494,-1.6733,-1.7361,-1.8428,-1.969,-1.969,-1.969,-1.969,-1.969,-1.969,-1.969,-1.969,-1.9405,-1.9121,-1.9555,-1.9106,-1.8508,-1.8927,-1.9046,-1.9046,-1.9046,-1.9361,-1.9375,-1.8011,-1.7861,-1.767,-1.6143,-1.6458,-1.6845,-1.6024,-1.5985,-1.5916,-1.5343,-1.4301,-1.3365,0.0,0.0,-1.1054,0.0,-1.0119,-0.9905,-0.9905,-1.0219,-1.0481,-1.0681,-1.0343,-1.0772,-1.2291,-1.2008,-1.2617,-1.4513,-1.5103,-1.5655,-1.6208,-1.6421,-1.6522,-1.6522,-1.6522,-1.6522,-1.6522,-1.6522,-1.6522,-1.6522,-1.6522,-1.6522,-1.6522,-1.6522,-1.6522,-1.6522,-1.6522,-1.6522,-1.6522,-1.6522,-1.7087,-1.7978,-1.853,-1.9196,-1.9798,-1.1966,-1.1553,-1.1077,-1.1077,-1.2315,-1.3611,-1.4469,-1.6371,-1.8017,-1.8878,-1.8895,-1.9653,-2.1771,-2.1616,-2.1697,-2.2583,-2.1814,-2.0906,-2.0103,-1.9367,-1.8318,-1.6915,-1.6745,-1.5892,-1.4165,-1.3643,-1.2506,-1.072,-1.0242,-0.9641,0.0,0.0,0.0,0.0,-1.0449,-1.1942,-1.3447,-1.4609,-1.6331,-1.8345,-1.8983,-1.9417,-1.969,-1.969,-1.969,-1.969,-1.969,-1.969,-1.969,-1.969,-1.969,-1.969,-1.969,-1.969,-1.969,-1.969,-1.969,-1.969,-1.969,-1.969,-1.939,-1.8134,-1.8235,-1.8175,-1.6338,-1.6815,-1.7338,-1.6243,-1.6078,-1.5985,-1.5561,-1.4944,-1.4065,0.0,0.0,-1.1699,-1.0197,-0.9981,-0.9981,-0.9981,-0.9981,-1.0157,-1.0568,-0.9742,-1.0044,-1.2165,-1.1332,-1.1726,-1.3972,-1.4576,-1.513,-1.568,-1.6233,-1.6522,-1.6522,-1.6522,-1.6522,-1.6522,-1.6522,-1.6522,-1.6522,-1.6522,-1.6522,-1.6522,-1.6522,-1.6522,-1.6522,-1.6522,-1.6522,-1.6522,-1.6522,-1.6886,-1.7488,-1.8041,-1.8907,-1.9798,-1.2187,-1.2902,-1.3571,-1.3571,-1.3416,-1.3978,-1.5973,-1.7095,-1.8324,-2.0096,-2.0582,-2.1146,-2.2124,-2.2129,-2.2143,-2.2381,-2.218,-2.1701,-2.094,-2.0162,-1.9429,-1.8724,-1.7193,-1.6239,-1.6023,-1.4039,-1.2778,-1.2313,-1.0772,-0.9899,-0.9709,0.0,0.0,0.0,0.0,-1.182,-1.3112,-1.4508,-1.6314,-1.831,-1.9208,-1.9632,-1.969,-1.969,-1.969,-1.969,-1.969,-1.969,-1.969,-1.969,-1.969,-1.969,-1.969,-1.969,-1.969,-1.969,-1.969,-1.969,-1.969,-1.969,-1.96,-1.9271,-1.8632,-1.7969,-1.7475,-1.7306,-1.7026,-1.6235,-1.6241,-1.619,-1.5494,-1.4977,-1.4486,-1.4028,-1.3285,-1.2419,-1.1336,-1.1161,-1.1161,-1.1161,-1.1161,-1.0721,-0.9604,-0.9981,-1.0506,-1.1082,-1.1286,-1.2184,-1.3984,-1.4223,-1.4739,-1.5668,-1.6233,-1.6522,-1.6522,-1.6522,-1.6522,-1.6522,-1.6522,-1.6522,-1.6522,-1.6522,-1.6522,-1.6522,-1.6522,-1.6522,-1.6522,-1.6522,-1.6522,-1.6522,-1.6522,-1.7124,-1.8053,-1.8618,-1.9233,-1.9798,-1.3618,-1.4976,-1.6078,-1.6078,-1.5895,-1.6214,-1.7557,-1.8231,-1.9085,-2.0438,-2.1332,-2.1856,-2.183,-2.2124,-2.231,-2.231,-2.231,-2.1989,-2.1254,-2.0898,-2.0295,-1.9433,-1.8388,-1.754,-1.6968,-1.5376,-1.41,-1.3147,-1.1548,-1.0486,-0.9984,0.0,0.0,0.0,0.0,-1.185,-1.3284,-1.5678,-1.7223,-1.8079,-1.9256,-1.969,0.0,-1.969,-1.969,-1.969,-1.969,-1.969,-1.969,-1.969,-1.969,-1.969,-1.969,-1.969,-1.969,-1.969,-1.969,-1.969,-1.969,-1.953,-1.9369,-1.9369,-1.8656,-1.7904,-1.7636,-1.7306,-1.6924,-1.6321,-1.6246,-1.6209,-1.5887,-1.5349,-1.4722,-1.3988,-1.3002,-1.2208,-1.1656,-1.1588,-1.1487,-1.1236,-1.1437,-1.0922,-0.9264,-0.9855,-1.0357,-1.0357,-1.0885,-1.1726,-1.2939,-1.3921,-1.4727,-1.5316,-1.6107,-1.6522,-1.6522,-1.6522,-1.6522,-1.6522,-1.6522,-1.6522,-1.6522,-1.6522,-1.6522,-1.6522,-1.6522,-1.6522,-1.6522,-1.6522,-1.6522,-1.6466,-1.6194,-1.6963,-1.8194,-1.824,-1.8933,-1.9798,-1.5582,-1.7234,-1.8353,-1.8151,-1.8721,-1.9201,-1.9165,-1.9511,-1.9969,-2.0465,-2.1557,-2.2057,-2.1397,-2.1921,-2.231,-2.231,-2.231,-2.1995,-2.1309,-2.1475,-2.0964,-1.956,-1.9709,-1.9106,-1.7514,-1.6913,-1.5684,-1.3763,-1.2378,-1.1169,0.0,0.0,0.0,0.0,0.0,0.0,-1.3855,-1.7231,-1.8346,-1.7921,-1.9196,-1.969,-1.969,-1.969,-1.969,-1.969,-1.969,-1.969,-1.969,-1.969,-1.969,-1.969,-1.969,-1.969,-1.969,-1.969,-1.969,-1.969,-1.969,-1.9332,-1.8893,-1.8893,-1.8458,-1.7836,-1.7252,-1.709,-1.6898,-1.6402,-1.6241,-1.6199,-1.6359,-1.5799,-1.487,-1.3462,-1.2535,-1.2019,-1.2033,-1.1889,-1.1625,-1.1082,-1.15,0.0,-0.9377,-0.9755,-1.0056,-0.9905,-1.0408,-1.0982,-1.1663,-1.3509,-1.4689,-1.4903,-1.5869,-1.6446,-1.6522,-1.6522,-1.6522,-1.6522,-1.6522,-1.6522,-1.6522,-1.6522,-1.6522,-1.6522,-1.6522,-1.6522,-1.6522,-1.6522,-1.6522,-1.6423,-1.582,-1.6678,-1.8157,-1.7533,-1.835,-1.9798,-1.6633,-1.8522,-1.9659,-1.8335,-1.9645,-2.0798,-2.0501,-2.0301,-2.0459,-2.1219,-2.1881,-2.226,-2.2124,-2.2226,-2.231,-2.231,-2.231,-2.2084,-2.1566,-2.1576,-2.1146,-2.0189,-1.9733,-1.9148,-1.8459,-1.6967,-1.5858,-1.5145,-1.2825,-1.1432,0.0,0.0,0.0,0.0,0.0,0.0,-1.5021,-1.7029,-1.8128,-1.8597,-1.9375,-1.969,-1.969,-1.969,-1.969,-1.969,-1.969,-1.969,-1.969,-1.969,-1.969,-1.969,-1.969,-1.969,-1.969,-1.969,-1.969,-1.969,-1.969,-1.9332,-1.8893,-1.8893,-1.8185,-1.7409,-1.7302,-1.692,-1.657,-1.6486,-1.6452,-1.6312,-1.5923,-1.5634,-1.525,-1.4528,-1.4275,-1.4219,-1.4298,-1.3509,-1.2872,-1.2772,-1.2847,-1.2102,-0.9968,-1.0684,-1.091,-0.9968,-1.0408,-1.1144,-1.2215,-1.263,-1.3458,-1.4865,-1.5492,-1.6057,-1.6509,-1.6522,-1.6522,-1.6522,-1.6522,-1.6522,-1.6522,-1.6522,-1.6522,-1.6522,-1.6522,-1.6522,-1.6522,-1.6522,-1.6522,-1.6423,-1.582,-1.6678,-1.8157,-1.7533,-1.835,-1.9798,-1.8151,-1.9087,-1.9913,-2.0005,-2.0898,-2.1503,-2.1118,-2.1229,-2.1335,-2.1336,-2.1562,-2.1735,-2.1735,-2.2073,-2.231,-2.231,-2.231,-2.2209,-2.1974,-2.1538,-2.1118,-2.0682,-1.9934,-1.9288,-1.8717,-1.7557,-1.6403,-1.5333,-1.3521,-1.2065,0.0,-1.0316,-0.9963,-0.9869,0.0,-1.3526,-1.5752,-1.7304,-1.8238,-1.8762,-1.942,-1.969,-1.969,-1.969,-1.969,-1.969,-1.969,-1.969,-1.969,-1.969,-1.969,-1.969,-1.969,-1.969,-1.969,-1.969,-1.969,-1.969,-1.969,-1.9332,-1.8817,-1.8535,-1.7907,-1.7229,-1.6951,-1.668,-1.6522,-1.6522,-1.6522,-1.6358,-1.5793,-1.5426,-1.5107,-1.4837,-1.4578,-1.4415,-1.4487,-1.4022,-1.3446,-1.2847,-1.3023,-1.2434,-1.0493,-1.1086,-1.0885,-0.9202,-1.0067,-1.0931,-1.1482,-1.2334,-1.3458,-1.4865,-1.5404,-1.5957,-1.6509,-1.6522,-1.6522,-1.6522,-1.6522,-1.6522,-1.6522,-1.6522,-1.6522,-1.6522,-1.6522,-1.6522,-1.6522,-1.6522,-1.6337,-1.5952,-1.5365,-1.6207,-1.7642,-1.7022,-1.8087,-1.9798,-1.9675,-2.0005,-2.0521,-2.104,-2.1706,-2.1945,-2.129,-2.1815,-2.209,-2.1498,-2.1414,-2.1414,-2.1414,-2.1855,-2.218,-2.2282,-2.2135,-2.2049,-2.2106,-2.1323,-2.0797,-2.0731,-2.0085,-1.9435,-1.8927,-1.8268,-1.7135,-1.5617,-1.4405,-1.2903,-1.1157,-1.1165,-1.0789,-1.0238,-1.2939,-1.4903,-1.6327,-1.7716,-1.8533,-1.8957,-1.948,-1.969,-1.969,-1.969,-1.969,-1.969,-1.969,-1.969,-1.969,-1.969,-1.969,-1.969,-1.969,-1.969,-1.969,-1.969,-1.969,-1.969,-1.969,-1.9332,-1.8765,-1.8224,-1.7706,-1.7146,-1.6637,-1.6522,-1.6522,-1.6522,-1.6522,-1.6358,-1.5793,-1.5429,-1.518,-1.4953,-1.4639,-1.44,-1.4274,-1.416,-1.372,-1.2705,-1.2835,-1.2459,-1.1019,-1.1098,-1.0558,-0.8939,-0.9867,-1.0631,-1.0869,-1.2134,-1.3433,-1.4689,-1.5229,-1.5781,-1.6333,-1.6459,-1.6522,-1.6522,-1.6522,-1.6522,-1.6522,-1.6522,-1.6522,-1.6522,-1.6522,-1.6522,-1.6479,-1.638,-1.6051,-1.5543,-1.4778,-1.554,-1.7034,-1.6528,-1.767,-1.9579,-2.0941,-2.2354,-2.2721,-1.9467,-2.1214,-2.2569,-2.1084,-2.1678,-2.2293,-2.2226,-2.2209,-2.2209,-2.2209,-2.1895,-2.184,-2.2254,-2.1584,-2.1213,-2.1477,-2.0781,-2.0193,-1.9854,-1.9747,-1.966,-1.96,-1.8957,-1.804,-1.6918,-1.5541,-1.3984,-1.2339,-1.1682,-1.1552,-1.1969,-1.4683,-1.6176,-1.6727,-1.8077,-1.9021,-1.96,-1.966,-1.969,-1.969,-1.969,-1.969,-1.969,-1.969,-1.969,-1.969,-1.969,-1.969,-1.969,-1.969,-1.969,-1.969,-1.969,-1.969,-1.969,-1.969,-1.9332,-1.8765,-1.8224,-1.7706,-1.7146,-1.6637,-1.6522,-1.6522,-1.6522,-1.6522,-1.6358,-1.5793,-1.607,-1.6032,-1.5079,-1.5254,-1.5367,-1.4903,-1.44,-1.3858,-1.3198,-1.2735,-1.2228,-1.1575,-1.0621,-1.0182,-1.0443,-1.0169,-1.042,-1.145,-1.165,-1.2512,-1.411,-1.4702,-1.5216,-1.5768,-1.6271,-1.6522,-1.6522,-1.6522,-1.6522,-1.6522,-1.6522,-1.6522,-1.6522,-1.6522,-1.6522,-1.6479,-1.5908,-1.5632,-1.5499,-1.4318,-1.4871,-1.6327,-1.635,-1.7426,-1.8886,-2.296,-2.2966,-2.2583,-2.1091,-2.1841,-2.2427,-2.1816,-2.2024,-2.231,-2.231,-2.231,-2.231,-2.231,-2.2135,-2.2106,-2.2282,-2.1735,-2.1244,-2.0942,-2.0516,-2.0212,-2.007,-1.9854,-1.969,-1.969,-1.9031,-1.8272,-1.7468,-1.6253,-1.4904,-1.3465,-1.3731,-1.4304,-1.5143,-1.6046,-1.6984,-1.7921,-1.8478,-1.9091,-1.969,-1.969,-1.969,-1.969,-1.969,-1.969,-1.969,-1.969,-1.969,-1.969,-1.969,-1.969,-1.969,-1.969,-1.969,-1.969,-1.969,-1.969,-1.969,-1.969,-1.953,-1.9169,-1.8302,-1.7947,-1.7544,-1.671,-1.6522,-1.6522,-1.6522,-1.6522,-1.6446,-1.6233,-1.6095,-1.5982,-1.5881,-1.5768,-1.5505,-1.4991,-1.4727,-1.4261,-1.3298,-1.2998,-1.2659,-1.214,-1.1374,-1.101,-1.1224,-1.0106,-0.9893,-1.101,-1.1399,-1.219,-1.3521,-1.4412,-1.518,-1.568,-1.6233,-1.6522,-1.6522,-1.6522,-1.6522,-1.6522,-1.6522,-1.6522,-1.6522,-1.6522,-1.6522,-1.6466,-1.5864,-1.5365,-1.4971,-1.4143,-1.4531,-1.5647,-1.6188,-1.7375,-1.8821,-2.417,-2.317,-2.231,-2.231,-2.231,-2.231,-2.231,-2.231,-2.231,-2.231,-2.231,-2.231,-2.231,-2.231,-2.231,-2.231,-2.1764,-2.1181,-2.063,-2.0398,-2.0246,-2.0124,-1.9839,-1.969,-1.969,-1.9226,-1.8672,-1.7981,-1.7242,-1.6194,-1.4875,-1.554,-1.6253,-1.6984,-1.7194,-1.7802,-1.8717,-1.8912,-1.9256,-1.969,-1.969,-1.969,-1.969,-1.969,-1.969,-1.969,-1.969,-1.969,-1.969,-1.969,-1.969,-1.969,-1.969,-1.969,-1.969,-1.969,-1.969,-1.969,-1.969,-1.969,-1.9479,-1.8574,-1.8224,-1.7867,-1.6951,-1.6595,-1.6522,-1.6522,-1.6522,-1.6522,-1.6522,-1.6195,-1.6007,-1.6233,-1.6082,-1.563,-1.479,-1.4815,-1.4463,-1.3336,-1.306,-1.2872,-1.268,-1.1851,-1.1538,-1.2027,-1.0671,-1.0219,-1.1144,-1.1613,-1.2341,-1.3433,-1.4538,-1.5304,-1.5693,-1.6233,-1.6522,-1.6522,-1.6522,-1.6522,-1.6522,-1.6522,-1.6522,-1.6522,-1.6522,-1.6522,-1.6423,-1.5644,-1.5096,-1.4606,-1.3826,-1.4237,-1.5288,-1.5822,-1.7157,-1.8768,-2.4074,-2.317,-2.231,-2.231,-2.231,-2.231,-2.231,-2.231,-2.231,-2.231,-2.231,-2.231,-2.231,-2.231,-2.231,-2.231,-2.1524,-2.091,-2.063,-2.0398,-2.0124,-1.9711,-1.969,-1.969,-1.969,-1.9675,-1.9346,-1.8687,-1.8672,-1.7999,-1.6682,-1.6682,-1.6697,-1.6771,-1.8104,-1.8687,-1.8747,-1.9405,-1.9675,-1.969,-1.969,-1.969,-1.969,-1.969,-1.969,-1.969,-1.969,-1.969,-1.969,-1.969,-1.969,-1.969,-1.969,-1.969,-1.969,-1.969,-1.969,-1.969,-1.969,-1.969,-1.9566,-1.9043,-1.8496,-1.7947,-1.7435,-1.6879,-1.6522,-1.6522,-1.6522,-1.6522,-1.6522,-1.6509,-1.6333,-1.5793,-1.6158,-1.5932,-1.4324,-1.4563,-1.4463,-1.3336,-1.2722,-1.263,-1.3135,-1.1683,-1.1395,-1.306,-1.219,-1.1801,-1.2366,-1.2391,-1.2906,-1.4035,-1.5155,-1.568,-1.5693,-1.6233,-1.6522,-1.6522,-1.6522,-1.6522,-1.6522,-1.6522,-1.6522,-1.6522,-1.6522,-1.6522,-1.6423,-1.5197,-1.4698,-1.4571,-1.3382,-1.3871,-1.5184,-1.5225,-1.6707,-1.8715,-2.2841,-2.2561,-2.231,-2.231,-2.231,-2.231,-2.231,-2.231,-2.231,-2.231,-2.231,-2.1857,-2.0665,-2.1584,-2.2135,-2.1735,-2.126,-2.0698,-2.0015,-1.9909,-1.9839,-1.9726,-1.969,-1.969,-1.969,-1.969,-1.9585,-1.9375,-1.8927,-1.8493,-1.8041,-1.8041,-1.8328,-1.8762,-1.9181,-1.9375,-1.939,-1.96,-1.969,-1.969,-1.969,-1.969,-1.969,-1.969,-1.969,-1.969,-1.969,-1.969,-1.969,-1.969,-1.969,-1.969,-1.969,-1.969,-1.969,-1.969,-1.969,-1.969,-1.969,-1.969,-1.9566,-1.9043,-1.8496,-1.7947,-1.7435,-1.6879,-1.6522,-1.6522,-1.6522,-1.6522,-1.6522,-1.6522,-1.6459,-1.6283,-1.6409,-1.607,-1.4828,-1.4802,-1.4463,-1.3336,-1.3048,-1.301,-1.3185,-1.2722,-1.2622,-1.316,-1.2522,-1.2228,-1.2404,-1.3153,-1.3556,-1.3496,-1.4927,-1.5693,-1.5693,-1.6233,-1.6522,-1.6522,-1.6522,-1.6522,-1.6522,-1.6522,-1.6522,-1.6522,-1.6522,-1.6522,-1.6423,-1.5644,-1.505,-1.464,-1.4125,-1.4124,-1.4566,-1.5383,-1.6634,-1.8004,-2.231,-2.231,-2.231,-2.231,-2.231,-2.231,-2.231,-2.231,-2.231,-2.231,-2.231,-2.1631,-1.9889,-2.0665,-2.126,-2.1118,-2.1023,-2.0698,-1.9965,-1.9945,-1.9874,-1.9726,-1.969,-1.969,-1.969,-1.969,-1.969,-1.969,-1.9271,-1.9076,-1.9076,-1.9076,-1.9286,-1.969,-1.969,-1.969,-1.969,-1.969,-1.969,-1.969,-1.969,-1.969,-1.969,-1.969,-1.969,-1.969,-1.969,-1.969,-1.969,-1.969,-1.969,-1.969,-1.969,-1.969,-1.969,-1.969,-1.969,-1.969,-1.969,-1.969,-1.9603,-1.9281,-1.865,-1.7907,-1.7146,-1.6752,-1.6522,-1.6522,-1.6522,-1.6522,-1.6522,-1.6522,-1.6522,-1.6522,-1.6346,-1.5894,-1.5029,-1.4727,-1.4349,-1.3622,-1.3546,-1.3622,-1.3835,-1.3848,-1.3935,-1.4099,-1.3835,-1.3647,-1.3647,-1.3934,-1.4123,-1.4125,-1.5354,-1.6007,-1.6007,-1.6346,-1.6522,-1.6522,-1.6522,-1.6522,-1.6522,-1.6522,-1.6522,-1.6522,-1.6522,-1.6522,-1.6466,-1.5864,-1.5231,-1.4697,-1.4456,-1.443,-1.4586,-1.5246,-1.6558,-1.8058,-2.231,-2.231,-2.231,-2.231,-2.231,-2.231,-2.231,-2.231,-2.231,-2.231,-2.218,-2.1493,-1.9889,-1.969,-1.9925,-2.0496,-2.0812,-2.0764,-2.028,-2.0246,-2.0089,-1.9726,-1.969,-1.969,-1.969,-1.969,-1.969,-1.969,-1.969,-1.969,-1.969,-1.969,-1.969,-1.969,-1.969,-1.969,-1.969,-1.969,-1.969,-1.969,-1.969,-1.969,-1.969,-1.969,-1.969,-1.969,-1.969,-1.969,-1.969,-1.969,-1.969,-1.969,-1.969,-1.969,-1.969,-1.969,-1.969,-1.969,-1.969,-1.969,-1.969,-1.969,-1.8893,-1.7827,-1.6752,-1.6522,-1.6522,-1.6522,-1.6522,-1.6522,-1.6522,-1.6522,-1.6522,-1.6522,-1.6057,-1.5505,-1.4991,-1.4462,-1.4123,-1.4085,-1.4123,-1.4337,-1.4865,-1.4941,-1.5167,-1.5605,-1.5668,-1.5693,-1.5693,-1.4765,-1.4676,-1.5668,-1.6233,-1.6522,-1.6522,-1.6522,-1.6522,-1.6522,-1.6522,-1.6522,-1.6522,-1.6522,-1.6522,-1.6522,-1.6522,-1.6522,-1.6479,-1.5944,-1.5334,-1.4706,-1.459,-1.4807,-1.5133,-1.4924,-1.6426,-1.8555,-2.231,-2.231,-2.231,-2.231,-2.231,-2.231,-2.231,-2.231,-2.231,-2.231,-2.1134,-2.0154,-1.9762,-1.969,-1.9747,-1.9889,-2.0261,-2.0296,-1.9874,-1.9839,-1.9818,-1.9711,-1.969,-1.969,-1.969,-1.969,-1.969,-1.969,-1.969,-1.969,-1.969,-1.969,-1.969,-1.969,-1.969,-1.969,-1.969,-1.969,-1.969,-1.969,-1.969,-1.969,-1.969,-1.969,-1.969,-1.969,-1.969,-1.969,-1.969,-1.969,-1.969,-1.969,-1.969,-1.969,-1.969,-1.969,-1.969,-1.969,-1.969,-1.969,-1.969,-1.969,-1.8893,-1.7827,-1.6752,-1.6522,-1.6522,-1.6522,-1.6522,-1.6522,-1.6522,-1.6522,-1.6522,-1.6522,-1.6057,-1.5505,-1.4991,-1.479,-1.4563,-1.4135,-1.4462,-1.4765,-1.489,-1.5254,-1.5379,-1.513,-1.5454,-1.5693,-1.5693,-1.5442,-1.5429,-1.568,-1.6233,-1.6522,-1.6522,-1.6522,-1.6522,-1.6522,-1.6522,-1.6522,-1.6522,-1.6522,-1.6522,-1.6522,-1.6522,-1.6522,-1.6504,-1.6853,-1.6252,-1.5241,-1.5957,-1.568,-1.4944,-1.5164,-1.6367,-1.7852,-2.231,-2.231,-2.2049,-2.126,-2.1781,-2.231,-2.231,-2.1615,-2.1103,-2.1103,-2.0277,-1.969,-1.969,-1.969,-1.969,-1.969,-1.9909,-1.9929,-1.9711,-1.969,-1.969,-1.969,-1.969,-1.969,-1.969,-1.969,-1.969,-1.969,-1.969,-1.969,-1.969,-1.969,-1.969,-1.969,-1.969,-1.969,-1.969,-1.969,-1.969,-1.969,-1.969,-1.969,-1.969,-1.969,-1.969,-1.969,-1.969,-1.969,-1.969,-1.969,-1.969,-1.969,-1.969,-1.969,-1.969,-1.969,-1.969,-1.969,-1.969,-1.969,-1.9566,-1.9095,-1.8341,-1.7504,-1.668,-1.6522,-1.6522,-1.6522,-1.6522,-1.6522,-1.6522,-1.6522,-1.6522,-1.6522,-1.6057,-1.5593,-1.5291,-1.5067,-1.489,-1.484,-1.5104,-1.5341,-1.5593,-1.5894,-1.5944,-1.5643,-1.5906,-1.607,-1.607,-1.607,-1.607,-1.607,-1.6358,-1.6522,-1.6522,-1.6522,-1.6522,-1.6522,-1.6522,-1.6522,-1.6522,-1.6522,-1.6522,-1.6522,-1.6522,-1.6522,-1.6516,-1.6765,-1.6256,-1.537,-1.6057,-1.5683,-1.4834,-1.5254,-1.6358,-1.7578,-2.231,-2.231,-2.1751,-2.0015,-2.0926,-2.1991,-2.2254,-2.0829,-1.969,-1.969,-1.969,-1.969,-1.969,-1.969,-1.969,-1.969,-1.969,-1.969,-1.969,-1.969,-1.969,-1.969,-1.969,-1.969,-1.969,-1.969,-1.969,-1.969,-1.969,-1.969,-1.969,-1.969,-1.969,-1.969,-1.969,-1.969,-1.969,-1.9794,-1.9839,-1.9854,-1.9944,-1.9989,-1.9989,-1.9989,-1.9989,-1.9989,-1.9989,-1.9989,-1.9989,-1.9989,-1.9989,-1.9974,-1.9869,-1.9839,-1.9824,-1.972,-1.969,-1.969,-1.969,-1.9639,-1.9332,-1.8341,-1.7706,-1.7146,-1.6637,-1.6522,-1.6522,-1.6522,-1.6522,-1.6522,-1.6522,-1.6522,-1.6522,-1.6522,-1.6057,-1.5693,-1.5693,-1.5291,-1.5205,-1.5643,-1.5768,-1.6007,-1.6471,-1.6522,-1.6522,-1.6522,-1.6522,-1.6522,-1.6522,-1.6522,-1.6522,-1.6522,-1.6522,-1.6522,-1.6522,-1.6522,-1.6522,-1.6522,-1.6522,-1.6522,-1.6522,-1.6522,-1.6522,-1.6522,-1.6522,-1.6466,-1.6386,-1.6428,-1.5994,-1.5296,-1.5701,-1.5421,-1.4922,-1.5389,-1.6415,-1.7633,-2.231,-2.231,-2.1751,-2.0015,-1.9909,-2.0599,-2.2077,-2.0829,-1.969,-1.969,-1.969,-1.969,-1.969,-1.969,-1.969,-1.969,-1.969,-1.969,-1.969,-1.969,-1.969,-1.969,-1.969,-1.969,-1.969,-1.969,-1.969,-1.969,-1.969,-1.969,-1.969,-1.969,-1.969,-1.969,-1.969,-1.969,-1.972,-2.0303,-2.0557,-2.0602,-2.1156,-2.138,-2.138,-2.138,-2.138,-2.138,-2.138,-2.138,-2.138,-2.138,-2.138,-2.1291,-2.0722,-2.0557,-2.0438,-1.9854,-1.969,-1.969,-1.969,-1.9369,-1.8893,-1.8263,-1.7706,-1.7146,-1.6637,-1.6522,-1.6522,-1.6522,-1.6522,-1.6522,-1.6522,-1.6522,-1.6522,-1.6522,-1.6057,-1.5693,-1.5693,-1.5618,-1.5593,-1.568,-1.6107,-1.6421,-1.6509,-1.6522,-1.6522,-1.6522,-1.6522,-1.6522,-1.6522,-1.6522,-1.6522,-1.6522,-1.6522,-1.6522,-1.6522,-1.6522,-1.6522,-1.6522,-1.6522,-1.6522,-1.6522,-1.6522,-1.6522,-1.6522,-1.6522,-1.6194,-1.5792,-1.6634,-1.6264,-1.5216,-1.6022,-1.5934,-1.538,-1.6063,-1.6866,-1.7688,-2.231,-2.231,-2.2049,-2.1229,-2.0311,-1.998,-2.0764,-2.0208,-1.969,-1.969,-1.969,-1.969,-1.969,-2.0946,-2.1515,-2.0827,-2.0543,-2.0498,-2.0752,-2.0094,-1.969,-1.969,-2.0049,-2.0408,-2.0767,-2.0423,-2.0423,-2.0767,-2.0767,-2.0767,-2.0767,-2.0408,-2.0243,-2.0243,-2.0243,-2.0243,-2.0288,-2.0961,-2.1246,-2.1276,-2.1575,-2.1695,-2.1695,-2.1695,-2.1695,-2.1695,-2.1695,-2.1695,-2.1695,-2.1695,-2.1695,-2.165,-2.1335,-2.1246,-2.1186,-2.0857,-2.0057,-1.9281,-1.9281,-1.865,-1.7987,-1.7747,-1.7271,-1.6795,-1.6552,-1.6522,-1.6522,-1.6522,-1.6522,-1.6522,-1.6522,-1.6522,-1.6522,-1.6522,-1.6308,-1.6132,-1.6132,-1.6132,-1.6132,-1.6132,-1.6358,-1.6522,-1.6522,-1.6522,-1.6522,-1.6522,-1.6522,-1.6522,-1.6522,-1.6522,-1.6522,-1.6522,-1.6522,-1.6522,-1.6522,-1.6522,-1.6522,-1.6522,-1.6522,-1.6522,-1.6522,-1.6522,-1.6522,-1.6522,-1.6522,-1.6151,-1.5647,-1.5985,-1.5731,-1.5154,-1.5491,-1.5491,-1.5468,-1.6208,-1.6978,-1.7633,-2.231,-2.231,-2.231,-2.231,-2.0878,-1.969,-1.969,-1.969,-1.9899,-2.0513,-2.0064,-1.9914,-2.0528,-2.2398,-2.3206,-2.2218,-2.162,-2.141,-2.168,-2.0722,-2.0154,-2.0154,-2.0662,-2.1171,-2.168,-2.1201,-2.1186,-2.1695,-2.1695,-2.1695,-2.168,-2.1171,-2.0946,-2.0946,-2.0946,-2.0946,-2.0991,-2.165,-2.1919,-2.1934,-2.2084,-2.2143,-2.2143,-2.2143,-2.2143,-2.2143,-2.2143,-2.2143,-2.2143,-2.2143,-2.2143,-2.2113,-2.1979,-2.1919,-2.1889,-2.1739,-2.0489,-1.9059,-1.8812,-1.8027,-1.7312,-1.7312,-1.6909,-1.6522,-1.6522,-1.6522,-1.6522,-1.6522,-1.6522,-1.6522,-1.6522,-1.6522,-1.6522,-1.6522,-1.6522,-1.6522,-1.6522,-1.6522,-1.6522,-1.6522,-1.6522,-1.6522,-1.6522,-1.6522,-1.6522,-1.6522,-1.6522,-1.6522,-1.6522,-1.6522,-1.6522,-1.6522,-1.6522,-1.6522,-1.6522,-1.6522,-1.6522,-1.6522,-1.6522,-1.6522,-1.6522,-1.6522,-1.6522,-1.6522,-1.6522,-1.6107,-1.5412,-1.5308,-1.5135,-1.486,-1.483,-1.5039,-1.5468,-1.6208,-1.6978,-1.7633,-2.231,-2.231,-2.231,-2.231,-2.0878,-1.969,-1.969,-1.969,-2.0557,-2.2996,-2.1186,-2.0602,-2.3041,-2.3475,-2.3565,-2.3475,-2.2682,-2.2054,-2.1724,-2.1605,-2.1545,-2.1545,-2.1605,-2.165,-2.1695,-2.165,-2.165,-2.1695,-2.1695,-2.1695,-2.1695,-2.165,-2.162,-2.162,-2.162,-2.162,-2.1665,-2.2323,-2.2649,-2.2694,-2.3221,-2.346,-2.346,-2.346,-2.346,-2.346,-2.346,-2.346,-2.346,-2.346,-2.346,-2.3355,-2.2787,-2.2649,-2.2488,-2.1874,-2.0819,-1.9557,-1.8436,-1.7747,-1.7312,-1.7312,-1.6909,-1.6522,-1.6522,-1.6522,-1.6522,-1.6522,-1.6522,-1.6522,-1.6522,-1.6522,-1.6522,-1.6522,-1.6522,-1.6522,-1.6522,-1.6522,-1.6522,-1.6522,-1.6522,-1.6522,-1.6522,-1.6522,-1.6522,-1.6522,-1.6522,-1.6522,-1.6522,-1.6522,-1.6522,-1.6522,-1.6522,-1.6522,-1.6522,-1.6522,-1.6522,-1.6522,-1.6522,-1.6522,-1.6522,-1.6522,-1.6522,-1.6522,-1.6522,-1.5832,-1.4789,-1.5166,-1.4874,-1.4233,-1.4619,-1.5039,-1.5468,-1.6208,-1.6978,-1.7688,-2.231,-2.1432,-2.0698,-2.0698,-2.1482,-2.2113,-2.2113,-2.2113,-2.2473,-2.3475,-2.2742,-2.2503,-2.349,-2.3595,-2.3595,-2.3595,-2.3295,-2.3041,-2.2892,-2.2877,-2.2697,-2.2323,-2.1919,-2.2069,-2.2862,-2.2503,-2.2488,-2.2877,-2.2877,-2.2877,-2.2862,-2.2488,-2.2308,-2.2308,-2.2308,-2.2308,-2.2338,-2.2981,-2.3251,-2.3266,-2.3505,-2.3595,-2.3595,-2.3595,-2.3595,-2.3595,-2.3595,-2.3595,-2.3595,-2.3595,-2.3595,-2.355,-2.3325,-2.3251,-2.2988,-2.1629,-2.0629,-1.9605,-1.8053,-1.7506,-1.7255,-1.6884,-1.6637,-1.6522,-1.6522,-1.6522,-1.6522,-1.6522,-1.6522,-1.6522,-1.6522,-1.6522,-1.6522,-1.6522,-1.6522,-1.6522,-1.6522,-1.6522,-1.6522,-1.6522,-1.6522,-1.6522,-1.6522,-1.6522,-1.6522,-1.6522,-1.6522,-1.6522,-1.6522,-1.6522,-1.6522,-1.6522,-1.6522,-1.6522,-1.6522,-1.6522,-1.6522,-1.6522,-1.6522,-1.6522,-1.6522,-1.6522,-1.6522,-1.6466,-1.6095,-1.5466,-1.4674,-1.4479,-1.4273,-1.4097,-1.4316,-1.4805,-1.5468,-1.6208,-1.6652,-1.7034,-2.2654,-2.176,-2.0917,-2.0917,-2.2398,-2.3595,-2.3595,-2.3595,-2.3595,-2.3595,-2.3595,-2.3595,-2.3595,-2.3595,-2.3595,-2.3595,-2.3595,-2.3595,-2.3595,-2.3595,-2.3415,-2.2981,-2.2532,-2.2712,-2.358,-2.3176,-2.3176,-2.3595,-2.3595,-2.3595,-2.3595,-2.3161,-2.2966,-2.2966,-2.2966,-2.2966,-2.2996,-2.3415,-2.3595,-2.3595,-2.3595,-2.3595,-2.3595,-2.3595,-2.3595,-2.3595,-2.3595,-2.3595,-2.3595,-2.3595,-2.3595,-2.3551,-2.3377,-2.3172,-2.2714,-2.1287,-2.0583,-1.9908,-1.8329,-1.7765,-1.7463,-1.671,-1.6522,-1.6522,-1.6522,-1.6522,-1.6522,-1.6522,-1.6522,-1.6522,-1.6522,-1.6522,-1.6522,-1.6522,-1.6522,-1.6522,-1.6522,-1.6522,-1.6522,-1.6522,-1.6522,-1.6522,-1.6522,-1.6522,-1.6522,-1.6522,-1.6522,-1.6522,-1.6522,-1.6522,-1.6522,-1.6522,-1.6522,-1.6522,-1.6522,-1.6522,-1.6522,-1.6522,-1.6522,-1.6522,-1.6522,-1.6522,-1.6522,-1.6479,-1.6051,-1.5421,-1.4652,-1.4236,-1.4078,-1.4077,-1.4077,-1.4759,-1.5806,-1.6322,-1.6821,-1.7246,-2.3473,-2.3638,-2.3638,-2.3595,-2.3595,-2.3595,-2.3595,-2.3595,-2.3595,-2.3595,-2.3595,-2.3595,-2.3595,-2.3595,-2.3595,-2.3595,-2.3595,-2.3595,-2.3595,-2.3595,-2.3595,-2.3595,-2.3595,-2.3595,-2.3595,-2.3595,-2.3595,-2.3595,-2.3595,-2.3595,-2.3595,-2.3595,-2.3595,-2.3595,-2.3595,-2.3595,-2.3595,-2.3595,-2.3595,-2.3595,-2.3595,-2.3595,-2.3595,-2.3595,-2.3595,-2.3595,-2.3595,-2.3595,-2.3595,-2.3595,-2.3595,-2.3508,-2.2875,-2.2253,-2.1568,-2.0979,-2.0795,-2.0529,-1.932,-1.8631,-1.794,-1.681,-1.6522,-1.6522,-1.6522,-1.6522,-1.6522,-1.6522,-1.6522,-1.6522,-1.6522,-1.6522,-1.6522,-1.6522,-1.6522,-1.6522,-1.6522,-1.6522,-1.6522,-1.6522,-1.6522,-1.6522,-1.6522,-1.6522,-1.6522,-1.6522,-1.6522,-1.6522,-1.6522,-1.6522,-1.6522,-1.6522,-1.6522,-1.6522,-1.6522,-1.6522,-1.6522,-1.6522,-1.6522,-1.6522,-1.6522,-1.6522,-1.6522,-1.6522,-1.6466,-1.5788,-1.4698,-1.4698,-1.4471,-1.4131,-1.4131,-1.5089,-1.6482,-1.6482,-1.7413,-1.8715,-2.5513,-2.5766,-2.5303,-2.3864,-2.3595,-2.3595,-2.3595,-2.3595,-2.3595,-2.3595,-2.3595,-2.3595,-2.3595,-2.3595,-2.3595,-2.3595,-2.3595,-2.3595,-2.3595,-2.3595,-2.3595,-2.3595,-2.3595,-2.3595,-2.3595,-2.3595,-2.3595,-2.3595,-2.3595,-2.3595,-2.3595,-2.3595,-2.3595,-2.3595,-2.3595,-2.3595,-2.3595,-2.3595,-2.3595,-2.3595,-2.3595,-2.3595,-2.3595,-2.3595,-2.3595,-2.3595,-2.3595,-2.3334,-2.2965,-2.2965,-2.2965,-2.2934,-2.2754,-2.1941,-2.1028,-2.0845,-2.0446,-1.994,-1.922,-1.8907,-1.8518,-1.74,-1.6823,-1.6522,-1.6522,-1.6522,-1.6522,-1.6522,-1.6522,-1.6522,-1.6522,-1.6522,-1.6522,-1.6522,-1.6522,-1.6522,-1.6522,-1.6522,-1.6522,-1.6522,-1.6522,-1.6522,-1.6522,-1.6522,-1.6522,-1.6522,-1.6522,-1.6522,-1.6522,-1.6522,-1.6522,-1.6522,-1.6522,-1.6522,-1.6522,-1.6522,-1.6522,-1.6522,-1.6522,-1.6522,-1.6522,-1.6522,-1.6522,-1.6479,-1.6051,-1.5421,-1.4698,-1.4698,-1.4752,-1.4935,-1.5412,-1.6244,-1.7246,-1.7246,-1.7523,-1.7961,-2.6522,-2.6035,-2.5073,-2.3837,-2.3595,-2.3595,-2.3595,-2.3595,-2.3595,-2.3595,-2.3595,-2.3595,-2.3595,-2.3595,-2.3595,-2.3595,-2.3595,-2.3595,-2.3595,-2.3595,-2.3595,-2.3595,-2.3595,-2.3595,-2.3595,-2.3595,-2.3595,-2.3595,-2.3595,-2.3595,-2.3595,-2.3595,-2.3595,-2.3595,-2.3595,-2.3595,-2.3595,-2.3595,-2.3595,-2.3595,-2.3595,-2.3595,-2.3595,-2.3595,-2.3595,-2.3595,-2.3595,-2.3377,-2.3054,-2.3054,-2.2725,-2.23,-2.23,-2.1452,-2.0396,-2.0396,-2.0105,-1.9736,-1.9422,-1.9183,-1.882,-1.8191,-1.7438,-1.6798,-1.6572,-1.6522,-1.6522,-1.6522,-1.6522,-1.6522,-1.6522,-1.6522,-1.6522,-1.6522,-1.6522,-1.6522,-1.6522,-1.6522,-1.6522,-1.6522,-1.6522,-1.6522,-1.6522,-1.6522,-1.6522,-1.6522,-1.6522,-1.6522,-1.6522,-1.6522,-1.6522,-1.6522,-1.6522,-1.6522,-1.6522,-1.6522,-1.6522,-1.6522,-1.6522,-1.6522,-1.6522,-1.6522,-1.6522,-1.6466,-1.6095,-1.5599,-1.505,-1.505,-1.5078,-1.5205,-1.5628,-1.6361,-1.7191,-1.7468,-1.7797,-1.8058,-2.6454,-2.4918,-2.3595,-2.3595,-2.3595,-2.3595,-2.3595,-2.3595,-2.3595,-2.3595,-2.3595,-2.3595,-2.3595,-2.3595,-2.3595,-2.3595,-2.3595,-2.3595,-2.3595,-2.3595,-2.3595,-2.3595,-2.3595,-2.3595,-2.3595,-2.3595,-2.3595,-2.3595,-2.3595,-2.3595,-2.3595,-2.3595,-2.3595,-2.3595,-2.3595,-2.3595,-2.3595,-2.3595,-2.3595,-2.3595,-2.3595,-2.3595,-2.3595,-2.3595,-2.3551,-2.3508,-2.3508,-2.3465,-2.3363,-2.3363,-2.256,-2.1554,-2.1615,-2.0805,-1.9798,-1.9798,-1.9798,-1.9798,-1.9798,-1.9459,-1.9033,-1.8983,-1.8279,-1.7363,-1.6735,-1.6559,-1.6522,-1.6522,-1.6522,-1.6522,-1.6522,-1.6522,-1.6522,-1.6522,-1.6522,-1.6522,-1.6522,-1.6522,-1.6522,-1.6522,-1.6522,-1.6522,-1.6522,-1.6522,-1.6522,-1.6522,-1.6522,-1.6522,-1.6522,-1.6522,-1.6522,-1.6522,-1.6522,-1.6522,-1.6522,-1.6522,-1.6522,-1.6522,-1.6522,-1.6522,-1.6522,-1.6522,-1.6522,-1.6522,-1.6522,-1.6175,-1.5647,-1.57,-1.554,-1.53,-1.531,-1.5849,-1.6652,-1.7357,-1.8015,-1.8715,-2.4601,-2.3906,-2.3595,-2.3595,-2.3595,-2.3595,-2.3595,-2.3595,-2.3595,-2.3595,-2.3595,-2.3595,-2.3595,-2.3595,-2.3595,-2.3595,-2.3595,-2.3595,-2.3595,-2.3595,-2.3595,-2.3595,-2.3595,-2.3595,-2.3595,-2.3595,-2.3595,-2.3595,-2.3595,-2.3595,-2.3595,-2.3595,-2.3595,-2.3595,-2.3595,-2.3595,-2.3595,-2.3595,-2.3595,-2.3595,-2.3595,-2.3595,-2.3595,-2.3595,-2.329,-2.2875,-2.2875,-2.2253,-2.1403,-2.1403,-2.0868,-2.0283,-2.0832,-2.0446,-1.9798,-1.9798,-1.9798,-1.9798,-1.9798,-1.9723,-1.9535,-1.9083,-1.8844,-1.8405,-1.7426,-1.6848,-1.6522,-1.6522,-1.6522,-1.6522,-1.6522,-1.6522,-1.6522,-1.6522,-1.6522,-1.6522,-1.6522,-1.6522,-1.6522,-1.6522,-1.6522,-1.6522,-1.6522,-1.6522,-1.6522,-1.6522,-1.6522,-1.6522,-1.6522,-1.6522,-1.6522,-1.6522,-1.6522,-1.6522,-1.6522,-1.6522,-1.6522,-1.6522,-1.6522,-1.6522,-1.6522,-1.6522,-1.6522,-1.6522,-1.6522,-1.6384,-1.6216,-1.6279,-1.6421,-1.6621,-1.6676,-1.6967,-1.7357,-1.7523,-1.7688,-1.7841,-2.4338,-2.3852,-2.3595,-2.3595,-2.3595,-2.3595,-2.3595,-2.3595,-2.3595,-2.3595,-2.3595,-2.3595,-2.3595,-2.3595,-2.3595,-2.3595,-2.3595,-2.3595,-2.3595,-2.3595,-2.3595,-2.3595,-2.3595,-2.3595,-2.3595,-2.3595,-2.3595,-2.3595,-2.3595,-2.3595,-2.3595,-2.3595,-2.3595,-2.3595,-2.3595,-2.3595,-2.3595,-2.3595,-2.3595,-2.3595,-2.3595,-2.3421,-2.3157,-2.3157,-2.277,-2.2193,-2.2193,-2.1771,-2.1245,-2.1245,-2.0832,-2.0359,-2.0696,-2.0346,-1.9798,-1.9798,-1.9798,-1.9798,-1.9798,-1.9798,-1.9736,-1.9459,-1.9208,-1.8807,-1.7965,-1.7338,-1.6936,-1.6936,-1.671,-1.6522,-1.6522,-1.6522,-1.6522,-1.6522,-1.6522,-1.6522,-1.6522,-1.6522,-1.6522,-1.6522,-1.6522,-1.6522,-1.6522,-1.6522,-1.6522,-1.6522,-1.6522,-1.6522,-1.6522,-1.6522,-1.6522,-1.6522,-1.6522,-1.6522,-1.6522,-1.6522,-1.6522,-1.6522,-1.6522,-1.6522,-1.6522,-1.6522,-1.6522,-1.6522,-1.6522,-1.6647,-1.688,-1.6604,-1.6878,-1.737,-1.6811,-1.7019,-1.7578,-1.7191,-1.7302,-1.7578,-2.4542,-2.4021,-2.3595,-2.3595,-2.3595,-2.3595,-2.3595,-2.3595,-2.3595,-2.3595,-2.3595,-2.3595,-2.3595,-2.3595,-2.3595,-2.3595,-2.3595,-2.3595,-2.3595,-2.3595,-2.3595,-2.3595,-2.3595,-2.3595,-2.3595,-2.3595,-2.3595,-2.3595,-2.3595,-2.3595,-2.3595,-2.3595,-2.3595,-2.3595,-2.3595,-2.3595,-2.3595,-2.3595,-2.3595,-2.3595,-2.3595,-2.329,-2.283,-2.274,-2.23,-2.171,-2.1568,-2.1472,-2.1363,-2.1363,-2.1051,-2.0646,-2.0646,-2.0258,-1.9798,-1.9798,-1.9798,-1.9798,-1.9798,-1.9798,-1.9798,-1.9798,-1.9472,-1.9045,-1.8581,-1.799,-1.7526,-1.7526,-1.7074,-1.666,-1.666,-1.6584,-1.6522,-1.6522,-1.6522,-1.6522,-1.6522,-1.6522,-1.6522,-1.6522,-1.6522,-1.6522,-1.6522,-1.6522,-1.6522,-1.6522,-1.6522,-1.6522,-1.6522,-1.6522,-1.6522,-1.6522,-1.6522,-1.6522,-1.6522,-1.638,-1.6337,-1.6324,-1.6238,-1.6293,-1.6522,-1.6522,-1.6522,-1.6522,-1.6522,-1.6848,-1.7338,-1.676,-1.7002,-1.7662,-1.6626,-1.6714,-1.7412,-1.6733,-1.681,-1.7235,-2.4006,-2.3681,-2.3595,-2.3595,-2.3595,-2.3595,-2.3595,-2.3595,-2.3595,-2.3595,-2.3595,-2.3595,-2.3595,-2.3595,-2.3595,-2.3595,-2.3595,-2.3595,-2.3595,-2.3595,-2.3595,-2.3595,-2.3595,-2.3595,-2.3595,-2.3595,-2.3595,-2.3595,-2.3595,-2.3595,-2.3595,-2.3595,-2.3595,-2.3595,-2.3595,-2.3595,-2.3595,-2.3595,-2.3595,-2.3595,-2.3595,-2.3551,-2.3421,-2.2875,-2.23,-2.1615,-2.1113,-2.0534,-2.0042,-2.0042,-1.9991,-1.9952,-1.9952,-1.985,-1.9798,-1.9798,-1.9798,-1.9798,-1.9798,-1.9798,-1.9798,-1.9798,-1.9748,-1.9673,-1.9597,-1.8807,-1.8091,-1.8091,-1.7652,-1.7262,-1.7262,-1.6861,-1.6522,-1.6522,-1.6522,-1.6522,-1.6522,-1.6522,-1.6522,-1.6522,-1.6522,-1.6522,-1.6522,-1.6522,-1.6522,-1.6522,-1.6522,-1.6522,-1.6522,-1.6522,-1.6522,-1.6522,-1.6522,-1.6522,-1.6522,-1.5964,-1.572,-1.572,-1.5197,-1.5478,-1.6522,-1.6522,-1.6522,-1.6522,-1.6522,-1.6848,-1.7338,-1.676,-1.6782,-1.7203,-1.7034,-1.691,-1.6891,-1.6616,-1.6151,-1.5806,-2.4241,-2.3794,-2.3595,-2.3595,-2.3595,-2.3595,-2.3595,-2.3595,-2.3595,-2.3595,-2.3595,-2.3595,-2.3595,-2.3595,-2.3595,-2.3595,-2.3595,-2.3595,-2.3595,-2.3595,-2.3595,-2.3595,-2.3595,-2.3595,-2.3595,-2.3595,-2.3595,-2.3595,-2.3595,-2.3595,-2.3595,-2.3595,-2.3595,-2.3595,-2.3595,-2.3595,-2.3595,-2.3595,-2.3595,-2.3625,-2.4029,-2.3686,-2.3012,-2.2791,-2.2054,-2.1066,-2.0462,-2.0055,-1.9798,-1.9798,-1.9798,-1.9798,-1.9798,-1.9798,-1.9798,-1.9798,-1.9798,-1.9798,-1.9798,-1.9798,-1.9798,-1.9798,-1.9798,-1.9798,-1.9798,-1.9434,-1.902,-1.8731,-1.7978,-1.7388,-1.7388,-1.6911,-1.6522,-1.6522,-1.6522,-1.6522,-1.6522,-1.6522,-1.6522,-1.6522,-1.6522,-1.6522,-1.6522,-1.6522,-1.6522,-1.6522,-1.6522,-1.6522,-1.6522,-1.6522,-1.6337,-1.6008,-1.6008,-1.5832,-1.5522,-1.5242,-1.5096,-1.5096,-1.4835,-1.5152,-1.6008,-1.6008,-1.6194,-1.6522,-1.6522,-1.6848,-1.7338,-1.676,-1.679,-1.7169,-1.6665,-1.6313,-1.6088,-1.6352,-1.6036,-1.5468]}]]